[[{"header":{"parameterUnit":"m.s-1","parameterCategory":1,"la1":30.6,"la2":29.2853,"lo1":-89.7004,"lo2":-87.6739,"dy":0.0162,"dx":0.0183,"nx":112,"ny":82,"refTime":"2023-03-05T18:00:00:Z","depth":0,"parameterNumber":2,"parameterNumberName":"U-component_of_WINDS"},"data":[0.0,0.0,0.0,0.0,0.0,0.0,0.0,0.0,0.0,0.0,0.0,0.0,0.0,0.0,0.0,0.0,0.0,0.0,0.0,0.0,0.0,0.0,0.0,0.0,0.0,0.0,0.0,0.0,0.0,0.0,0.0,0.0,0.0,0.0,0.0,0.0,0.0,0.0,0.0,0.0,0.0,0.0,0.0,0.0,0.0,0.0,0.0,0.0,0.0,0.0,0.0,0.0,0.0,0.0,0.0,0.0,0.0,0.0,0.0,0.0,0.0,0.0,0.0,0.0,0.0,0.0,0.0,0.0,0.0,0.0,0.0,0.0,0.0,0.0,0.0,0.0,0.0,0.0,0.0,0.0,0.0,0.0,0.0,0.0,0.0,0.0,0.0,0.0,0.0,0.0,0.0,0.9177,0.9736,0.9855,0.9509,0.9448,0.9337,0.9177,0.0,0.0,0.0,0.0,0.0,0.0,0.0,0.0,0.0,0.0,0.0,0.0,0.0,0.0,0.0,0.0,0.0,0.0,0.0,0.0,0.0,0.0,0.0,0.0,0.0,0.0,0.0,0.0,0.0,0.0,0.0,0.0,0.0,0.0,0.0,0.0,0.0,0.0,0.0,0.0,0.0,0.0,0.0,0.0,0.0,0.0,0.0,0.0,0.0,0.0,0.0,0.0,0.0,0.0,0.0,0.0,0.0,0.0,0.0,0.0,0.0,0.0,0.0,0.0,0.0,0.0,0.0,0.0,0.0,0.0,0.0,0.0,0.0,0.0,0.0,0.0,0.0,0.0,0.0,0.0,0.0,0.0,0.0,0.0,0.0,0.0,0.0,0.0,0.0,0.0,0.0,0.0,0.0,0.0,0.0,0.0,0.0,0.0,0.0,0.0,0.0,0.0,0.0,0.0,0.8898,0.9539,1.0437,1.084,1.0418,1.039,1.0273,0.9961,0.0,0.0,0.0,0.0,0.0,0.0,0.0,0.0,0.0,0.0,0.0,0.0,0.0,0.0,0.0,0.0,0.0,0.0,0.0,0.0,0.0,0.0,0.0,0.0,0.0,0.0,0.0,0.0,0.0,0.0,0.0,0.0,0.0,0.0,0.0,0.0,0.0,0.0,0.0,0.0,0.0,0.0,0.0,0.0,0.0,0.0,0.0,0.0,0.0,0.0,0.0,0.0,0.0,0.0,0.0,0.0,0.0,0.0,0.0,0.0,0.0,0.0,0.0,0.0,0.0,0.0,0.0,0.0,0.0,0.0,0.0,0.0,0.0,0.0,0.0,0.0,0.0,0.0,0.0,0.0,0.0,0.0,0.0,0.0,0.0,0.0,0.0,0.0,0.0,0.0,0.0,0.0,0.0,0.0,0.0,0.0,0.0,0.0,0.0,0.0,0.0,0.0,0.0,0.9728,1.0064,1.0282,1.111,1.159,1.1292,1.1142,1.0992,1.0753,1.0408,0.0,0.0,0.0,0.0,0.0,0.0,0.0,0.0,0.0,0.0,0.0,0.0,0.0,0.0,0.0,0.0,0.0,0.0,0.0,0.0,0.0,0.0,0.0,0.0,0.0,0.0,0.0,0.0,0.0,0.0,0.0,0.0,0.0,0.0,0.0,0.0,0.0,0.0,0.0,0.0,0.0,0.0,0.0,0.0,0.0,0.0,0.0,0.0,0.0,0.0,0.0,0.0,0.0,0.0,0.0,0.0,0.0,0.0,0.0,0.0,0.0,0.0,0.0,0.0,0.0,0.0,0.0,0.0,0.0,0.0,0.0,0.0,0.0,0.0,0.0,0.0,0.0,0.0,0.0,0.0,0.0,0.0,0.0,0.0,0.0,0.0,0.0,0.0,0.0,0.0,0.0,0.0,0.0,0.0,0.0,0.0,0.0,0.0,0.0,0.0,0.0,0.0,1.0689,1.1204,1.118,1.1881,1.2282,1.2066,1.1884,1.1689,1.1531,1.1431,0.0,0.0,0.0,0.0,0.0,0.0,0.0,0.0,0.0,0.0,0.0,0.0,0.0,0.0,0.0,0.0,0.0,0.0,0.0,0.0,0.0,0.0,0.0,0.0,0.0,0.0,0.0,0.0,0.0,0.0,0.0,0.0,0.0,0.0,0.0,0.0,0.0,0.0,0.0,0.0,0.0,0.0,0.0,0.0,0.0,0.0,0.0,0.0,0.0,0.0,0.0,0.0,0.0,0.0,0.0,0.0,0.0,0.0,0.0,0.0,0.0,0.0,0.0,0.0,0.0,0.0,0.0,0.0,0.0,0.0,0.0,0.0,0.0,0.0,0.0,0.0,0.0,0.0,0.0,0.0,0.0,0.0,0.0,0.0,0.0,0.0,0.0,0.0,0.0,0.0,0.0,0.0,0.0,0.0,0.0,0.0,0.0,0.0,0.0,0.0,0.0,0.0,1.1487,1.1933,1.2253,1.2797,1.3022,1.2768,1.2603,1.2425,1.2162,1.2066,0.0,0.0,0.0,0.0,0.0,0.0,0.0,0.0,0.0,0.0,0.0,0.0,0.0,0.0,0.0,0.0,0.0,0.0,0.0,0.0,0.0,0.0,0.0,0.0,0.0,0.0,0.0,0.0,0.0,0.0,0.0,0.0,0.0,0.0,0.0,0.0,0.0,0.0,0.0,0.0,0.0,0.0,0.0,0.0,0.0,0.0,0.0,0.0,0.0,0.0,0.0,0.0,0.0,0.0,0.0,0.0,0.0,0.0,0.0,0.0,0.0,0.0,0.0,0.0,0.0,0.0,0.0,0.0,0.0,0.0,0.0,0.0,0.0,0.0,0.0,0.0,0.0,0.0,0.0,0.0,0.0,0.0,0.0,0.0,0.0,0.0,0.0,0.0,0.0,0.0,0.0,0.0,0.0,0.0,0.0,0.0,0.0,0.0,0.0,0.0,0.0,0.0,1.1894,1.239,0.0,1.3265,1.3433,1.331,1.3091,1.2941,1.2836,0.0,0.0,0.0,0.0,0.0,0.0,0.0,0.0,0.0,0.0,0.0,0.0,0.0,0.0,0.0,0.0,0.0,0.0,0.0,0.0,0.0,0.0,0.0,0.0,0.0,0.0,0.0,0.0,0.0,0.0,0.0,0.0,0.0,0.0,0.0,0.0,0.0,0.0,0.0,0.0,0.0,0.0,0.0,0.0,0.0,0.0,0.0,0.0,0.0,0.0,0.0,0.0,0.0,0.0,0.0,0.0,0.0,0.0,0.0,0.0,0.0,0.0,0.0,0.0,0.0,0.0,0.0,0.0,0.0,0.0,0.0,0.0,0.0,0.0,0.0,0.0,0.0,0.0,0.0,0.0,0.0,0.0,0.0,0.0,0.0,0.0,0.0,0.0,0.0,0.0,0.0,0.0,0.0,0.0,0.0,0.0,0.0,0.0,0.0,0.0,0.0,0.0,1.2238,1.2621,1.3025,0.0,1.3819,1.3881,1.3815,1.3635,1.3501,1.3446,0.0,0.0,0.0,0.0,0.0,0.0,0.0,0.0,0.0,0.0,0.0,0.0,0.0,0.0,0.0,0.0,0.0,0.0,0.0,0.0,0.0,0.0,0.0,0.0,0.0,0.0,0.0,0.0,0.0,0.0,0.0,0.0,0.0,0.0,0.0,0.0,0.0,0.0,0.0,0.0,0.0,0.0,0.0,0.0,0.0,0.0,0.0,0.0,0.0,0.0,0.0,0.0,0.0,0.0,0.0,0.0,0.0,0.0,0.0,0.0,0.0,0.0,0.0,0.0,0.0,0.0,0.0,0.0,0.0,0.0,0.0,0.0,0.0,0.0,0.0,0.0,0.0,0.0,0.0,0.0,0.0,0.0,0.0,0.0,0.0,0.0,0.0,0.0,0.0,0.0,0.0,0.0,0.0,0.0,0.0,0.0,0.0,0.0,0.0,0.0,0.0,0.0,1.3755,1.3852,1.3986,1.4432,1.4433,1.4397,1.43,1.4235,1.4105,0.0,0.0,0.0,0.0,0.0,0.0,0.0,0.0,0.0,0.0,0.0,0.0,0.0,0.0,0.0,0.0,0.0,0.0,0.0,0.0,0.0,0.0,0.0,0.0,0.0,0.0,0.0,0.0,0.0,0.0,0.0,0.0,0.0,0.0,0.0,0.0,0.0,0.0,0.0,0.0,0.0,0.0,0.0,0.0,0.0,0.0,0.0,0.0,0.0,0.0,0.0,0.0,0.0,0.0,0.0,0.0,0.0,0.0,0.0,0.0,0.0,0.0,0.0,0.0,0.0,0.0,0.0,0.0,0.0,0.0,0.0,0.0,0.0,0.0,0.0,0.0,0.0,0.0,0.0,0.0,0.0,0.0,0.0,0.0,0.0,0.0,0.0,0.0,0.0,0.0,0.0,0.0,0.0,0.0,0.0,0.0,0.0,0.0,0.0,0.0,0.0,0.0,0.0,1.3927,1.4027,1.421,1.4724,1.4763,1.4746,1.4651,1.4588,1.4479,1.4324,0.0,0.0,0.0,0.0,0.0,0.0,0.0,0.0,0.0,0.0,0.0,0.0,0.0,0.0,0.0,0.0,0.0,0.0,0.0,0.0,0.0,0.0,0.0,0.0,0.0,0.0,0.0,0.0,0.0,0.0,0.0,0.0,0.0,0.0,0.0,0.0,0.0,0.0,0.0,0.0,0.0,0.0,0.0,0.0,0.0,0.0,0.0,0.0,0.0,0.0,0.0,0.0,0.0,0.0,0.0,0.0,0.0,0.0,0.0,0.0,0.0,0.0,0.0,0.0,0.0,0.0,0.0,0.0,0.0,0.0,0.0,0.0,0.0,0.0,0.0,0.0,0.0,0.0,0.0,0.0,0.0,0.0,0.0,0.0,0.0,0.0,0.0,0.0,0.0,0.0,0.0,0.0,0.0,0.0,0.0,0.0,0.0,0.0,0.0,0.0,0.0,0.0,1.4573,1.4631,1.4731,1.5013,1.5025,1.4994,1.4873,1.4887,1.4825,1.4672,0.0,0.0,0.0,0.0,0.0,0.0,0.0,0.0,0.0,0.0,0.0,0.0,0.0,0.0,0.0,0.0,0.0,0.0,0.0,0.0,0.0,0.0,0.0,0.0,0.0,0.0,0.0,0.0,0.0,0.0,0.0,0.0,0.0,0.0,0.0,0.0,0.0,0.0,0.0,0.0,0.0,0.0,0.0,0.0,0.0,0.0,0.0,0.0,0.0,0.0,0.0,0.0,0.0,0.0,0.0,0.0,0.0,0.0,0.0,0.0,0.0,0.0,0.0,0.0,0.0,0.0,0.0,0.0,0.0,0.0,0.0,0.0,0.0,0.0,0.0,0.0,0.0,0.0,0.0,0.0,0.0,0.0,0.0,0.0,0.0,0.0,0.0,0.0,0.0,0.0,0.0,0.0,0.0,0.0,0.0,0.0,0.0,0.0,0.0,0.0,0.0,0.0,1.5477,1.5448,1.5403,1.5328,1.5268,1.5163,1.5074,1.5163,1.5147,1.4963,0.0,0.0,0.0,0.0,0.0,0.0,0.0,0.0,0.0,0.0,0.0,0.0,0.0,0.0,0.0,0.0,0.0,0.0,0.0,0.0,0.0,0.0,0.0,0.0,0.0,0.0,0.0,0.0,0.0,0.0,0.0,0.0,0.0,0.0,0.0,0.0,0.0,0.0,0.0,0.0,0.0,0.0,0.0,0.0,0.0,0.0,0.0,0.0,0.0,0.0,0.0,0.0,0.0,0.0,0.0,0.0,0.0,0.0,0.0,0.0,-1.1972,0.0,0.0,0.0,0.0,0.0,0.0,0.0,0.0,0.0,0.0,0.0,0.0,0.0,0.0,0.0,0.0,0.0,0.0,0.0,0.0,0.0,0.0,0.0,0.0,0.0,0.0,0.0,0.0,0.0,0.0,0.0,0.0,0.0,0.0,0.0,0.0,0.0,0.0,0.0,0.0,0.0,1.5726,1.5639,1.5551,1.5522,1.5463,1.5418,1.5389,1.5463,1.5463,1.5299,1.5359,0.0,0.0,0.0,0.0,0.0,0.0,0.0,0.0,0.0,0.0,0.0,0.0,0.0,0.0,0.0,0.0,0.0,0.0,0.0,0.0,0.0,0.0,0.0,0.0,0.0,0.0,0.0,0.0,0.0,0.0,0.0,0.0,0.0,0.0,0.0,0.0,0.0,0.0,0.0,0.0,0.0,0.0,0.0,0.0,0.0,0.0,0.0,0.0,0.0,0.0,0.0,0.0,0.0,0.0,0.0,0.0,0.0,0.0,0.0,0.0,-1.2079,0.0,0.0,0.0,0.0,0.0,0.0,0.0,0.0,0.0,0.0,0.0,0.0,0.0,0.0,0.0,0.0,0.0,0.0,0.0,0.0,0.0,0.0,0.0,0.0,0.0,0.0,0.0,0.0,0.0,0.0,0.0,0.0,0.0,0.0,0.0,0.0,0.0,0.0,0.0,0.0,1.5898,1.6112,1.6248,1.6234,1.6204,1.6174,1.6144,1.5934,1.5755,1.5639,1.5726,0.0,0.0,0.0,0.0,0.0,0.0,0.0,0.0,0.0,0.0,0.0,0.0,0.0,0.0,0.0,0.0,0.0,0.0,0.0,0.0,0.0,0.0,0.0,0.0,0.0,0.0,0.0,0.0,0.0,0.0,0.0,0.0,0.0,0.0,0.0,0.0,0.0,0.0,0.0,0.0,0.0,0.0,0.0,0.0,0.0,0.0,0.0,0.0,0.0,0.0,0.0,0.0,0.0,-1.4116,-1.4344,-1.4212,-1.4268,-1.4237,-1.4141,-1.3362,-1.298,-1.285,0.0,0.0,0.0,0.0,0.0,0.0,0.0,0.0,0.0,0.0,0.0,0.0,0.0,0.0,0.0,0.0,0.0,0.0,0.0,0.0,0.0,0.0,0.0,0.0,0.0,1.3094,1.3312,0.0,0.0,0.0,0.0,0.0,0.0,0.0,0.0,0.0,0.0,0.0,0.0,1.6264,1.6844,1.7212,1.7167,1.7031,1.6925,1.6894,1.6391,1.6039,1.5998,1.6095,1.6123,0.0,0.0,0.0,0.0,0.0,0.0,0.0,0.0,0.0,0.0,0.0,0.0,0.0,0.0,0.0,0.0,0.0,0.0,0.0,0.0,0.0,0.0,0.0,0.0,0.0,0.0,0.0,0.0,0.0,0.0,0.0,0.0,-1.4537,-1.4386,0.0,0.0,0.0,0.0,0.0,0.0,0.0,0.0,0.0,0.0,0.0,0.0,0.0,-1.3368,-1.3818,-1.373,-1.3935,-1.4426,-1.4912,-1.5129,-1.5073,-1.5576,-1.5765,-1.5664,-1.4985,0.0,-1.3665,-1.377,0.0,0.0,0.0,0.0,0.0,0.0,0.0,0.0,0.0,0.0,0.0,0.0,0.0,0.0,0.0,0.0,0.0,0.0,0.0,0.0,0.0,0.0,1.3238,1.3699,1.4501,1.5182,0.0,1.5162,1.5237,1.5968,1.6068,0.0,0.0,0.0,0.0,0.0,0.0,0.0,1.7286,1.7848,1.8207,1.8207,1.7575,1.7192,1.7236,1.6704,1.6328,1.6344,1.6409,1.6394,1.6344,1.6274,0.0,0.0,0.0,0.0,0.0,0.0,0.0,0.0,0.0,0.0,0.0,0.0,0.0,0.0,0.0,0.0,0.0,0.0,0.0,0.0,0.0,0.0,0.0,0.0,0.0,0.0,0.0,0.0,0.0,-1.4747,-1.4616,-1.453,-1.4849,-1.5023,0.0,0.0,0.0,0.0,0.0,0.0,0.0,0.0,0.0,-1.3463,-1.3682,-1.3887,-1.4045,-1.4675,-1.5092,-1.528,-1.5817,-1.6046,-1.5999,-1.6215,-1.6301,-1.6219,-1.591,-1.5575,-1.5159,-1.4492,-1.4732,-1.5539,0.0,0.0,0.0,0.0,-1.6531,-1.5156,-1.4875,-1.3001,0.0,-0.8534,0.0,0.0,0.0,0.0,0.0,0.0,0.0,0.0,0.0,0.0,1.3712,1.4531,1.5254,1.5879,1.6427,1.6426,1.6381,0.0,1.6528,1.6474,1.6474,0.0,0.0,0.0,0.0,1.7767,1.819,1.8776,1.917,1.917,1.8918,1.8556,1.8179,1.7614,1.7125,1.6701,1.6722,1.6763,1.6686,1.6607,1.6554,0.0,0.0,0.0,0.0,0.0,0.0,0.0,0.0,0.0,0.0,0.0,0.0,0.0,0.0,0.0,0.0,0.0,0.0,0.0,0.0,0.0,0.0,0.0,0.0,0.0,0.0,0.0,0.0,-1.4991,-1.5026,-1.4942,-1.5593,-1.6022,0.0,0.0,0.0,0.0,0.0,0.0,-1.4559,-1.445,-1.4306,-1.416,-1.4517,-1.4721,-1.4765,-1.5649,-1.6133,-1.6177,-1.6593,-1.6773,-1.6686,-1.6607,-1.6528,-1.649,-1.6436,-1.6409,-1.6305,-1.5302,-1.5301,-1.5957,-1.6327,-1.698,-1.7755,-1.7837,-1.7061,-1.5815,-1.4928,-1.2274,-0.8961,-0.7147,0.0,-0.1775,-0.098,0.0,0.0,0.0,0.0,1.0048,1.1673,1.3095,1.4348,1.5397,1.5975,1.6473,1.7133,1.7337,1.7264,0.0,1.6876,1.6873,1.7091,0.0,0.0,0.0,0.0,1.8594,1.9151,1.9778,2.0177,2.0177,2.0064,1.9695,1.8991,1.8409,1.7779,1.705,1.7068,1.7093,1.7027,1.6942,1.6892,1.6825,0.0,0.0,0.0,0.0,0.0,0.0,0.0,0.0,0.0,0.0,0.0,0.0,0.0,0.0,0.0,0.0,0.0,0.0,0.0,0.0,0.0,0.0,0.0,0.0,0.0,0.0,0.0,0.0,0.0,-1.5844,-1.6532,0.0,0.0,0.0,0.0,-1.6639,-1.6526,-1.6432,-1.6373,-1.6243,-1.6111,-1.5976,-1.587,-1.6064,-1.6559,-1.6452,-1.6663,-1.7206,-1.7118,-1.7052,-1.6968,-1.6841,-1.6763,-1.667,-1.6554,-1.6528,-1.6596,-1.6517,-1.6616,-1.6862,-1.7278,-1.7687,-1.8094,-1.8292,-1.7841,-1.6812,-1.4695,-1.2685,-1.0343,-0.5964,-0.289,-0.084,-0.0652,0.0495,0.0,0.0,0.7237,1.0077,1.2134,1.4018,1.5617,1.6433,1.6978,1.7375,1.7526,1.7681,1.7681,0.0,1.7224,1.7404,1.81,0.0,1.8503,1.9274,1.9906,2.029,2.0323,2.0837,2.1229,2.1229,2.0661,1.9994,1.9337,1.8659,1.8002,1.733,1.7337,1.7384,1.7361,1.724,1.7191,1.7167,1.7043,0.0,0.0,0.0,0.0,0.0,0.0,0.0,0.0,0.0,0.0,0.0,0.0,0.0,0.0,0.0,0.0,0.0,0.0,0.0,0.0,0.0,0.0,0.0,0.0,0.0,0.0,0.0,0.0,-1.682,-1.7464,0.0,-1.7805,-1.7739,-1.7665,-1.7613,-1.7114,-1.6733,-1.6631,-1.654,-1.6429,-1.63,-1.6571,-1.6806,-1.6967,-1.7275,-1.7518,-1.7687,-1.7555,-1.7462,-1.7439,-1.7264,-1.7142,-1.7002,-1.6876,-1.6805,-1.6811,-1.6853,-1.6924,-1.706,-1.7526,-1.7963,-1.8403,-1.8729,-1.8308,-1.7376,-1.5835,-1.2685,-0.8667,-0.4613,-0.2991,-0.2581,-0.2507,-0.1292,0.0654,0.3548,0.6716,0.9807,1.2298,1.4248,1.579,1.6638,1.7224,1.7641,1.7861,1.8408,1.88,1.8733,1.8447,1.8467,1.9269,1.9352,1.9593,2.0361,2.0666,2.0927,2.1334,2.1556,2.1661,2.1617,2.1035,2.0322,1.9623,1.8949,1.8253,1.7545,1.7519,1.7542,1.7542,1.7432,1.7392,1.7392,1.7264,1.7158,0.0,0.0,0.0,0.0,0.0,0.0,0.0,0.0,0.0,0.0,0.0,0.0,0.0,0.0,0.0,0.0,0.0,0.0,0.0,0.0,0.0,0.0,0.0,0.0,0.0,0.0,-1.784,-1.7748,-1.8418,-1.8864,-1.8776,-1.8732,-1.8692,-1.8643,-1.8103,-1.7734,-1.766,-1.7563,-1.7457,-1.7347,-1.7648,-1.7752,-1.764,-1.8006,-1.818,-1.81,-1.7992,-1.7932,-1.7893,-1.767,-1.7509,-1.7384,-1.7175,-1.7059,-1.6975,-1.7048,-1.7117,-1.7248,-1.7681,-1.8135,-1.8646,-1.907,-1.8935,-1.8185,-1.5986,-1.2408,-0.834,-0.5445,-0.476,-0.4992,-0.4723,-0.3169,-0.0783,0.2785,0.6375,0.9806,1.2555,1.4602,1.6161,1.6866,1.7439,1.7905,1.8138,1.8895,1.9594,1.9938,1.9687,1.9696,2.0465,2.0576,2.0781,2.1494,2.1586,2.1701,2.2108,2.2118,2.2061,2.2003,2.1334,2.0598,1.9846,1.9202,1.8488,1.7754,1.7726,1.7726,1.7726,1.7664,1.7618,1.7595,1.7448,1.7353,1.7296,0.0,0.0,0.0,0.0,0.0,0.0,0.0,0.0,0.0,0.0,0.0,0.0,0.0,0.0,0.0,0.0,0.0,0.0,0.0,0.0,0.0,0.0,0.0,-1.7688,-1.8308,-1.8791,-1.865,-1.9386,-1.9842,-1.9707,-1.9713,-1.9701,-1.9699,-1.9577,-1.9499,-1.9499,-1.9376,-1.9292,-1.92,-1.9069,-1.8914,-1.8734,-1.8642,-1.8584,-1.8505,-1.8445,-1.8368,-1.831,-1.8031,-1.7876,-1.7772,-1.7462,-1.7248,-1.7126,-1.7183,-1.7289,-1.7448,-1.7772,-1.8278,-1.8855,-1.9326,-1.9649,-1.9256,-1.5048,-1.1982,-0.9776,-0.8674,-0.8126,-0.7858,-0.7213,-0.5119,-0.2115,0.191,0.6182,1.0134,1.2896,1.5202,1.6841,1.7255,1.7777,1.8245,1.8435,1.9175,2.0038,2.0901,2.0925,2.1027,2.1738,2.1836,2.2073,2.2721,2.2764,0.0,2.2605,2.2515,2.2405,2.2371,2.1603,2.0771,2.0044,1.9365,1.8665,1.7956,1.7983,1.8005,1.8005,1.7944,1.7878,1.7811,1.7618,1.7509,1.7509,0.0,0.0,0.0,0.0,0.0,0.0,0.0,0.0,0.0,0.0,0.0,0.0,0.0,0.0,0.0,0.0,0.0,0.0,0.0,0.0,0.0,0.0,-1.9706,-1.943,-1.9593,-1.9726,-1.9697,-1.9906,-2.0019,-1.9928,-1.9866,-1.9851,-1.9858,-1.9762,-1.9713,-1.9719,-1.9636,-1.955,-1.9419,-1.9323,-1.9232,-1.9064,-1.8998,-1.893,-1.886,-1.8843,-1.8771,-1.8661,-1.8454,-1.8235,-1.8001,-1.7755,-1.7549,-1.7392,-1.7353,-1.7472,-1.7704,-1.791,-1.838,-1.9004,-1.948,-1.9261,-1.844,-1.6325,-1.4563,-1.316,-1.2786,-1.2166,-1.1389,-1.0318,-0.7412,-0.3543,0.1142,0.5763,1.017,1.3624,1.6025,1.7745,1.8745,1.9416,1.9938,2.028,2.1128,2.19,2.2179,2.2702,2.3049,2.297,2.2959,2.3024,2.3157,2.3119,0.0,2.297,2.2893,2.2565,2.1893,2.1128,2.0347,1.9561,1.8846,1.8332,1.8147,1.813,1.8147,1.8147,1.813,1.8048,1.7939,1.7839,1.7732,0.0,0.0,0.0,0.0,0.0,0.0,0.0,0.0,0.0,0.0,0.0,0.0,0.0,0.0,0.0,0.0,0.0,0.0,0.0,0.0,0.0,0.0,-2.0173,-2.0197,-2.0186,-2.0171,-2.0144,-2.0134,-2.0134,-2.0125,-2.0088,-2.006,-2.0011,-1.9982,-1.9941,-1.9918,-1.9889,-1.9823,-1.9744,-1.9625,-1.9601,-1.9504,-1.938,-1.9335,-1.9289,-1.9209,-1.9212,-1.9113,-1.8964,-1.8789,-1.8569,0.0,-1.8103,-1.7905,-1.7721,-1.803,-1.828,0.0,0.0,0.0,0.0,0.0,-2.0469,-1.9753,-1.8788,-1.7765,-1.6827,-1.6466,-1.556,-1.4243,-1.2265,-0.8581,-0.4008,0.1269,0.6268,1.0888,1.4479,1.69,1.8609,1.9541,2.0223,2.0771,2.1146,2.2016,2.2754,2.285,2.3565,0.0,2.3855,2.3728,2.362,2.3508,2.3486,2.3417,2.3319,2.3247,2.2876,2.1966,2.115,2.0336,1.9539,1.8774,0.0,0.0,0.0,1.8339,1.8339,1.826,0.0,0.0,0.0,1.7944,1.7861,0.0,0.0,0.0,1.7502,1.7479,0.0,0.0,0.0,0.0,0.0,0.0,0.0,0.0,0.0,0.0,0.0,0.0,0.0,0.0,0.0,0.0,-2.0203,-2.0238,-2.0308,-2.0253,-2.0223,-2.0215,-2.0215,-2.0227,-2.0222,-2.0222,-2.0186,-2.0122,-2.0115,-2.0079,-2.0031,0.0,0.0,0.0,0.0,-1.9763,-1.9655,-1.9641,-1.9582,-1.9527,-1.9527,-1.9423,-1.9225,-1.9079,-1.8895,-1.8641,-1.8518,-1.8367,-1.8241,-1.9073,-1.9477,-1.9555,-1.8877,-1.9396,-2.0699,-2.2028,-2.2383,-2.2107,-2.1616,0.0,0.0,-1.9631,-1.8358,-1.6488,-1.3438,-0.9063,-0.3962,0.1891,0.7248,1.2001,1.5404,1.7826,1.953,2.014,2.0737,2.1288,2.1616,2.2409,2.3107,2.3231,2.3911,2.4447,2.4447,2.421,2.3998,2.3878,2.3837,2.3795,2.3682,2.3594,2.3187,2.2202,0.0,0.0,1.9691,1.8949,1.8544,1.8524,1.8524,1.8524,1.8524,1.8408,1.833,1.833,1.8201,1.8134,1.8095,1.7988,1.7922,1.7922,1.7726,1.7635,0.0,0.0,0.0,0.0,0.0,0.0,0.0,0.0,0.0,0.0,0.0,0.0,0.0,0.0,0.0,-2.0195,-2.0246,-2.0289,-2.0369,-2.036,-2.0349,-2.0366,-2.0353,-2.0365,-2.0359,-2.0366,-2.0328,-2.0269,-2.0255,-2.0219,-2.0156,-2.015,0.0,-2.0049,-1.9988,-1.9922,-1.9847,-1.9788,-1.9751,-1.9738,0.0,0.0,-1.9452,-1.9286,-1.9134,-1.895,-1.9391,-1.9502,-1.9415,-2.0248,-2.0758,-2.1003,-2.1025,-2.1393,-2.1979,-2.247,-2.2662,-2.2639,-2.2423,-2.2074,-2.1693,-2.1498,-2.0153,-1.797,-1.4809,-0.9947,0.0,0.1949,0.765,1.2731,1.6451,1.8889,2.067,2.168,2.2447,2.3017,2.3402,2.3823,2.4153,2.429,2.4535,2.4729,2.4729,2.4498,2.4303,2.421,2.4097,2.402,2.4019,2.3899,2.3252,2.1727,2.1398,2.0692,1.9182,1.8914,1.8788,1.8751,1.8732,1.8732,1.8732,1.8603,1.8547,1.8547,1.8408,1.8284,1.8184,1.8155,1.8087,1.7983,1.79,1.7839,0.0,0.0,0.0,0.0,0.0,0.0,0.0,0.0,0.0,0.0,0.0,-2.0872,0.0,0.0,-2.0694,-2.0345,-2.0365,-2.04,-2.0445,-2.0448,-2.0448,-2.0439,-2.0439,-2.0448,-2.0452,-2.0443,-2.043,-2.0357,-2.036,-2.0352,-2.0302,-2.0275,-2.0231,-2.0159,-2.0125,-2.0069,-2.0,-1.9977,-1.9934,-1.9908,-1.9842,-1.9726,-1.9601,-1.9504,-1.9326,-1.914,-1.9813,-2.0045,-2.004,-2.136,-2.2298,-2.2904,-2.3077,-2.3068,-2.3025,-2.3706,-2.4039,-2.4134,-2.4074,-2.3889,-2.3591,-2.3191,-2.1592,-1.9154,-1.5337,-1.0071,-0.4059,0.2409,0.8159,1.3339,1.713,1.9521,2.1222,2.2344,2.3087,2.3646,2.4018,2.4303,2.4532,2.4663,2.4768,2.4856,2.4903,2.4798,2.4639,2.4512,2.4425,2.4373,2.4265,2.3842,2.3052,2.1734,2.1206,2.0461,1.9212,1.907,1.9036,1.8984,1.8966,1.8948,1.8948,1.8843,1.8789,1.8753,1.8622,1.8505,1.8385,1.8284,1.8408,1.8702,1.8663,1.8391,0.0,0.0,0.0,0.0,0.0,0.0,0.0,0.0,-2.2005,-2.2117,-2.2185,-2.2092,-2.1649,-2.1665,-2.156,-2.0997,-2.0953,-2.102,-2.1004,-2.0864,-2.0749,-2.075,-2.0603,-2.0503,-2.0492,-2.0506,-2.0477,-2.0429,-2.0414,-2.0413,-2.042,-2.0369,-2.0308,-2.0236,-2.0392,-2.0433,-2.0374,-2.0537,-2.0488,-2.0272,-2.0191,-2.0024,-1.9725,-1.9652,-1.9571,-1.9557,-2.0439,-2.0915,-2.1134,-2.2611,-2.371,-2.4458,-2.4607,-2.4346,-2.3974,-2.4867,-2.5333,-2.5504,-2.5507,-2.5407,-2.5144,-2.4417,-2.265,-2.0019,-1.5668,-1.0074,-0.3879,0.2792,0.8659,1.3817,1.7625,1.9983,2.1628,2.266,2.3346,2.3858,2.4192,2.4462,2.4679,2.4802,2.4893,2.4987,2.5032,2.505,2.4994,2.4779,2.4753,2.4689,2.4526,2.3768,2.2885,2.1988,2.1094,2.0255,1.9433,1.9314,1.9248,1.9248,1.9198,1.9164,1.9148,1.9084,1.9035,1.8948,1.8825,1.8715,1.8656,1.8605,1.8889,1.9452,1.9608,1.9238,-2.2313,-2.2417,-2.2607,-2.288,-2.3094,-2.3294,0.0,0.0,-2.2884,-2.3033,-2.2698,-2.2405,-2.2518,-2.2588,-2.2662,-2.2698,-2.2776,-2.281,-2.2807,-2.2147,-2.1641,-2.1658,-2.0976,-2.0501,-2.0502,-2.0501,-2.0498,-2.0492,-2.049,-2.048,-2.0494,-2.0488,-2.0454,-2.0383,-2.1075,-2.1405,-2.1334,-2.2048,-2.2029,-2.1234,-2.1181,-2.0695,-1.9873,-1.9738,-2.001,-2.0603,-2.2073,-2.3177,-2.3948,-2.4221,-2.447,-2.4673,-2.4813,-2.4855,-2.4867,-2.5113,-2.5335,-2.5515,-2.5564,-2.5538,-2.5349,-2.4681,-2.3027,-2.0528,-1.6195,-1.0447,-0.4024,0.2571,0.8815,1.4327,1.7989,2.0431,2.2135,2.3028,2.361,2.4057,2.4391,2.4629,2.4836,2.494,2.5082,2.5176,2.5179,2.5233,2.5201,2.4993,2.4921,2.4861,2.4856,2.3986,2.3068,2.2239,2.1382,2.0509,1.9629,1.9499,1.9475,1.9475,1.9394,1.9368,1.9375,1.9292,1.923,1.9168,1.9035,1.8896,1.8789,1.9351,1.9641,1.9685,2.0328,2.0516,-2.2349,-2.2596,-2.2868,0.0,-2.336,-2.3611,-2.381,-2.3839,-2.3856,-2.4051,-2.3992,-2.3831,-2.3572,-2.3562,-2.3492,0.0,-2.3088,-2.3104,-2.3105,-2.2786,-2.2563,-2.2552,-2.2227,-2.163,-2.0643,-2.0527,-2.0508,-2.0508,-2.0507,-2.0504,-2.0497,-2.0504,-2.0717,-2.1193,-2.1507,-2.1867,-2.232,-2.2601,-2.2553,-2.2144,-2.1577,-2.1051,-2.0594,-2.0496,-2.1115,-2.2315,-2.2954,-2.3766,-2.4626,-2.4657,-2.4749,-2.4884,-2.4931,-2.5004,-2.5063,-2.516,-2.5302,-2.5453,-2.5524,-2.5527,-2.5426,-2.4899,-2.3501,-2.1223,-1.7175,-1.1511,-0.5069,0.1884,0.8393,1.4236,1.8238,2.0839,2.2626,2.3446,2.3983,2.4355,2.4623,2.479,2.4966,2.5094,2.519,2.5264,2.5303,2.5369,2.5369,2.5244,2.5149,2.5068,2.5019,2.3803,2.2394,2.101,2.0496,2.012,1.9751,1.9688,1.9663,1.9675,1.9655,1.9628,1.9569,1.9513,1.9442,1.9387,1.928,1.9152,1.8982,1.9723,2.0258,2.0604,2.1366,2.1923,-2.2377,0.0,0.0,-2.3095,-2.3389,-2.3703,-2.3915,-2.4192,-2.4478,-2.4697,-2.491,-2.4946,-2.4566,-2.4549,-2.4418,-2.3898,-2.3826,-2.3825,-2.3815,-2.3603,-2.3449,-2.3435,-2.3233,-2.2617,-2.1416,-2.1249,-2.1216,-2.1217,-2.1224,-2.1229,-2.1211,-2.1229,-2.1515,-2.2142,-2.2332,-2.2726,-2.3279,-2.3469,-2.3388,-2.3083,-2.2374,-2.1858,-2.1493,-2.1619,-2.2342,-2.3461,-2.3686,-2.4178,-2.4865,-2.4856,-2.4926,-2.5025,-2.5018,-2.505,-2.5082,-2.5122,-2.5244,-2.5379,-2.5463,-2.5508,-2.5439,-2.5098,-2.3958,-2.2078,-1.8545,-1.3141,-0.6685,0.0688,0.7586,1.3813,1.8604,2.1389,2.3158,2.389,2.4335,2.4639,2.4832,2.4968,2.5091,2.5231,2.5313,2.5365,2.541,2.548,2.5495,2.5441,2.5348,2.5254,2.5163,2.3684,2.1949,2.0162,1.992,1.988,1.988,1.9888,1.9866,1.987,1.9854,1.9837,1.9763,1.9701,1.9655,1.9587,1.9489,1.9497,1.9573,2.0313,2.1025,2.1689,2.2481,2.3142,0.0,0.0,-2.297,-2.3217,-2.3508,-2.3774,-2.4036,-2.4302,-2.457,-2.4828,-2.5037,-2.5254,-2.5425,-2.5502,-2.5566,-2.5611,-2.5625,-2.5618,-2.5618,-2.4895,-2.4347,-2.4263,-2.3577,-2.3071,0.0,-2.3015,-2.3014,-2.301,-2.3013,-2.3023,-2.3022,-2.3025,-2.3027,-2.3061,-2.3883,-2.4303,-2.4263,-2.502,-2.4953,-2.4056,-2.3967,-2.3416,-2.2483,-2.3137,-2.3498,-2.3639,-2.4417,-2.4865,-2.4993,-2.4993,-2.5025,-2.5101,-2.5101,-2.5057,-2.4993,-2.5013,-2.5126,-2.5322,-2.5459,-2.5503,-2.5479,-2.5255,-2.4455,-2.3082,-2.0487,-1.5377,-0.8889,-0.1042,0.6253,1.3115,1.9107,2.2166,2.382,2.4362,2.464,2.4836,2.5057,2.5153,2.5224,2.5369,2.5456,2.549,2.5506,2.555,2.557,2.5518,2.5479,2.5437,2.5311,2.3765,2.2057,2.0361,2.0124,2.0087,2.0087,2.0088,2.005,2.0001,1.999,1.9947,1.9904,1.9889,1.9849,1.9795,1.9655,1.9959,2.0749,2.1355,2.2079,2.2868,2.3616,2.3978,0.0,0.0,-2.3102,-2.3376,-2.3667,-2.3978,-2.4229,-2.4508,-2.4752,-2.4993,-2.5184,-2.5376,-2.5538,-2.558,-2.5612,-2.5698,-2.5702,-2.5709,-2.5693,-2.541,-2.5187,-2.5177,-2.4924,0.0,0.0,0.0,0.0,-2.3104,-2.3108,-2.3101,-2.3101,-2.3091,-2.3374,-2.3945,-2.4253,-2.4668,-2.5226,-2.544,-2.5389,-2.502,-2.4284,-2.3728,-2.337,-2.3556,-2.3966,-2.4542,-2.4834,-2.4987,-2.5076,-2.5113,-2.5132,-2.5107,-2.5051,-2.4999,-2.4926,-2.4879,-2.4888,-2.4943,-2.5216,-2.5333,-2.5347,-2.5244,-2.4804,-2.3962,-2.1995,-1.8523,-1.3049,-0.2225,0.4356,1.0274,1.9665,2.3199,2.4398,2.4797,2.5015,2.5166,2.5274,2.5346,2.5403,2.5466,2.5511,2.5565,2.5576,2.5591,2.5591,2.5571,2.5538,2.5263,2.4656,2.3543,2.2408,2.1244,2.0597,2.0219,2.0219,2.0233,2.0208,2.0144,2.0135,2.0108,2.003,2.0029,1.9988,1.9922,2.0417,2.0753,2.0945,2.2245,2.2986,2.3182,2.3931,2.4229,0.0,-2.306,-2.3307,-2.3606,-2.3901,-2.4211,-2.4459,-2.4716,-2.4955,-2.5141,-2.5303,-2.5468,-2.5579,-2.5625,-2.5644,-2.5683,-2.5445,-2.5332,-2.5668,-2.5387,-2.5284,-2.5571,-2.559,-2.5599,0.0,0.0,0.0,-2.3984,-2.3992,-2.4004,-2.4027,-2.4035,-2.4284,-2.4842,-2.4863,-2.5132,-2.5681,-2.564,-2.5549,-2.5468,-2.4745,-2.4372,-2.4297,-2.4238,-2.453,-2.5069,-2.5063,-2.5106,-2.5149,-2.518,-2.5156,-2.5088,-2.5012,-2.4912,-2.4813,-2.4719,-2.4657,-2.4639,-2.4981,-2.5118,-2.5146,-2.5124,-2.4918,-2.4413,-2.3018,-1.9975,-1.4674,-0.3535,0.3213,0.9419,1.952,2.341,2.4764,2.512,2.5291,2.5395,2.546,2.5515,2.5542,2.5541,2.5582,2.5636,2.5632,2.5636,2.5648,2.5632,2.5585,2.5227,2.4361,2.3747,2.3063,2.2198,2.1604,2.1255,2.1255,2.1246,2.1082,2.0716,2.0696,2.0537,2.0199,2.0143,2.0116,2.0069,2.0859,2.1377,2.1562,2.2943,2.37,2.3877,2.4361,2.4524,-2.3126,-2.3376,-2.361,-2.3937,-2.4229,-2.4458,-2.4673,-2.4926,-2.5141,-2.5293,-2.5412,-2.5538,0.0,0.0,-2.5631,-2.5625,-2.4898,-2.4629,-2.5444,-2.49,-2.4689,0.0,0.0,0.0,0.0,0.0,0.0,-2.5591,0.0,-2.5621,-2.5707,-2.571,-2.5703,-2.5699,-2.5702,-2.5703,-2.5694,-2.5629,-2.5522,-2.5395,-2.5341,-2.5262,-2.5192,-2.5138,-2.5145,-2.5198,-2.5198,-2.5198,-2.5206,-2.5203,-2.5144,-2.5089,-2.4945,-2.4798,-2.4657,-2.4528,-2.4428,-2.4429,-2.4746,-2.4858,-2.4879,-2.4943,-2.4774,-2.4386,-2.3488,-1.9768,-1.3962,-0.4863,0.282,1.0256,1.8806,2.2885,2.4863,2.5283,2.5442,2.5525,2.5584,2.559,2.5601,2.5592,2.5654,2.5694,2.5709,2.5703,2.5693,2.5704,2.5652,2.5317,2.4471,2.433,2.398,2.3169,2.3026,2.3009,2.3009,2.2946,2.2527,2.1668,2.161,2.1203,2.033,2.0231,2.0215,2.02,2.1041,2.1857,2.262,2.3465,2.4245,2.4929,2.4907,2.4889,-2.3405,-2.3674,-2.3943,-2.4229,-2.4458,-2.4682,-2.4934,-2.508,-2.5234,-2.5412,-2.5524,-2.5585,0.0,0.0,0.0,-2.4726,-2.4,0.0,-2.3725,-2.4135,0.0,-2.4678,0.0,-2.561,-2.561,-2.5595,0.0,0.0,-2.5675,-2.5683,-2.5697,-2.569,-2.5703,-2.5696,-2.5702,-2.5703,-2.5694,-2.5632,-2.5565,-2.5478,-2.5412,-2.5332,-2.5264,-2.5212,-2.5171,-2.5201,-2.5201,-2.5198,-2.5203,-2.5156,-2.5063,-2.4945,-2.4749,-2.4556,-2.4389,-2.4247,-2.4116,-2.4037,-2.4117,-2.4282,-2.4449,-2.4407,-2.4217,-2.3733,-2.2319,-2.0032,-1.5558,-0.4122,0.2158,0.7901,1.8605,2.2854,2.4495,2.5104,2.5386,2.5502,2.5523,2.5563,2.5603,2.5602,2.5641,2.5702,2.5703,2.5701,2.5696,2.5691,2.5696,2.5577,2.5297,2.4748,2.428,2.407,2.3458,2.3061,2.3061,2.3008,2.2601,2.174,2.1676,2.1277,2.0404,2.0359,2.0353,2.0354,2.1775,2.2582,2.275,2.4216,2.5004,2.5201,2.5096,2.5037,-2.3674,-2.3963,-2.4192,-2.4458,-2.4685,-2.4893,-2.5094,-2.5222,-2.5321,-2.5476,-2.555,0.0,0.0,0.0,0.0,0.0,0.0,0.0,-2.3049,-2.3188,-2.3546,0.0,-2.4803,0.0,-2.5621,-2.564,-2.5664,0.0,-2.5707,-2.5694,-2.571,-2.5698,-2.5709,-2.57,-2.5703,-2.5701,-2.5705,-2.5636,-2.5574,-2.5506,-2.5437,-2.5378,-2.5341,-2.5283,-2.5252,-2.5252,0.0,-2.5176,-2.5175,-2.5418,-2.5428,-2.5299,-2.5406,-2.5116,-2.4669,-2.4449,-2.4124,-2.3768,-2.3664,-2.3732,-2.3751,-2.3431,-2.3075,-2.2407,-2.0558,-1.8062,-1.3864,-0.403,0.2109,0.7904,1.7239,2.1572,2.3715,2.4594,2.5023,2.5266,2.5341,2.542,2.5479,2.5516,2.5561,2.562,2.5646,2.5676,2.5701,2.5702,2.5702,2.5696,2.5652,2.5244,2.4973,2.4973,2.4524,2.4248,2.4248,2.4214,2.3653,2.2391,2.2304,2.1745,2.0507,2.0449,2.0439,2.0443,2.1709,2.2538,2.2894,2.421,2.5031,2.5385,2.5283,2.5216,-2.3943,-2.4192,-2.4405,-2.4673,-2.4865,-2.5057,-2.5176,-2.5313,-2.5421,-2.5505,0.0,-2.5628,-2.5687,-2.4885,-2.4232,-2.4238,0.0,-2.1908,-2.2662,-2.2203,-2.2391,-2.4029,-2.4336,-2.4745,-2.5612,-2.5701,-2.5701,-2.569,-2.5704,-2.571,-2.5707,-2.5709,-2.5698,-2.5703,-2.5703,-2.5697,-2.5707,-2.5634,-2.5568,-2.5493,-2.5426,-2.5406,-2.5378,-2.5322,-2.5282,-2.5271,0.0,0.0,-2.526,-2.5815,-2.5984,-2.5929,-2.6291,-2.5954,-2.5198,-2.4795,-2.4236,-2.3624,-2.333,-2.3193,-2.3028,-2.2326,-2.1721,-2.0816,-1.8495,-1.5084,-1.0667,-0.4143,0.2369,0.8833,1.5244,1.954,2.2473,2.3761,2.4403,2.4782,2.4982,2.512,2.5232,2.5325,2.5401,2.5474,2.5561,2.5629,2.5684,2.5687,2.5685,2.5693,2.5693,2.5681,2.5701,2.5701,2.5701,2.5703,2.5703,2.569,2.4957,2.3212,2.3104,2.2318,2.0565,2.0506,2.0499,2.0504,2.1305,2.2087,2.2851,2.3835,2.4669,2.5344,2.5401,2.5387,-2.4247,-2.4479,-2.4673,-2.4818,-2.4962,-2.5115,-2.5243,-2.5388,0.0,0.0,-2.5581,-2.5629,-2.5681,-2.4404,-2.3338,-2.334,0.0,0.0,0.0,0.0,-2.219,0.0,0.0,0.0,0.0,0.0,0.0,0.0,0.0,-2.5709,-2.5707,-2.5698,-2.5703,-2.5697,-2.5707,-2.569,-2.5707,-2.5625,-2.5562,-2.5499,-2.5437,-2.5369,-2.5322,-2.5241,-2.5198,-2.5126,-2.505,0.0,-2.5827,-2.5733,-2.595,-2.6362,-2.6168,-2.5871,-2.543,-2.4582,-2.4181,-2.3919,-2.3204,-2.2893,-2.2652,-2.1881,-2.107,-1.9821,-1.6741,-1.3358,-0.9355,-0.3527,0.2197,0.7888,1.3466,1.7385,2.0377,2.2335,2.3291,2.3804,2.4068,2.4429,2.4778,2.5015,2.512,2.5232,2.5398,2.5492,2.5556,2.5604,2.5615,2.562,2.562,2.5664,2.5703,2.5703,2.5702,2.5701,2.5701,2.5641,2.49,2.3203,2.3105,2.2324,2.0564,2.0505,2.0504,2.0501,2.1338,2.1862,2.201,2.3605,2.4425,2.4538,2.5236,2.5535,-2.4339,-2.4564,-2.4719,-2.4861,-2.4987,-2.5138,-2.5264,0.0,0.0,0.0,-2.5605,-2.5613,-2.5683,0.0,0.0,0.0,0.0,0.0,0.0,0.0,0.0,0.0,0.0,0.0,0.0,0.0,0.0,0.0,0.0,-2.5701,-2.5699,-2.5703,-2.5696,-2.5703,-2.5678,-2.5652,-2.5649,-2.5582,-2.5511,-2.5449,-2.5378,-2.5303,-2.5241,-2.5141,-2.505,-2.493,-2.4847,0.0,-2.5811,-2.5949,-2.6329,-2.6825,-2.6869,-2.648,-2.5792,-2.4774,-2.4199,-2.3767,-2.289,-2.2508,-2.2204,-2.0767,-1.9815,-1.8603,-1.5358,-1.2107,-0.8548,-0.3765,0.1299,0.6369,1.1079,1.4935,1.813,2.0127,2.1601,2.2716,2.3077,2.354,2.397,2.4313,2.4611,2.4847,2.5045,2.5226,2.5348,2.5386,2.5425,2.5444,2.5444,2.5479,2.5532,2.5636,2.5652,2.5624,2.561,2.5561,2.4827,2.3151,2.3059,2.2271,2.0516,2.048,2.0501,2.049,2.091,2.1344,2.1796,2.3083,2.3937,2.436,2.5242,2.5609,-2.4373,-2.4578,-2.4753,-2.4893,-2.5006,-2.5145,-2.5273,-2.5397,0.0,0.0,-2.5605,-2.5613,-2.5683,0.0,-2.4178,0.0,0.0,0.0,0.0,0.0,0.0,0.0,0.0,0.0,0.0,0.0,0.0,0.0,0.0,0.0,-2.5702,-2.5687,-2.5687,-2.5678,-2.5619,-2.5585,-2.5582,-2.5517,-2.5437,-2.5367,-2.5293,-2.5209,-2.5153,-2.5019,-2.4879,-2.4718,-2.4588,0.0,0.0,-2.6118,-2.6634,-2.7255,-2.7484,-2.7035,-2.6138,-2.4968,-2.4224,-2.3624,-2.2569,-2.213,-2.173,-1.9776,-1.8715,-1.7609,-1.4419,-1.1337,-0.8207,-0.4355,0.0042,0.4524,0.852,1.2291,1.5568,1.7867,1.9779,2.1266,2.1829,2.2355,2.287,2.3364,2.3879,2.4302,2.4546,2.4822,2.505,2.5067,2.5128,2.5187,2.5187,2.5187,2.5245,2.5412,2.548,2.5507,2.5456,2.5286,2.454,2.3048,2.279,2.2003,2.0439,2.0444,2.0473,2.0472,2.0476,2.0909,2.1786,2.266,2.3549,2.4413,2.5291,2.5675,-2.4444,-2.4645,-2.4821,-2.495,-2.5038,-2.5149,-2.5271,0.0,0.0,-2.5564,-2.5605,-2.5613,-2.5683,-2.4993,-2.4373,0.0,0.0,-2.2988,0.0,0.0,0.0,0.0,0.0,0.0,0.0,0.0,0.0,0.0,0.0,0.0,-2.5703,-2.5642,-2.5617,-2.5615,-2.5543,-2.5511,-2.551,-2.5429,-2.5379,-2.5302,-2.5179,-2.5068,-2.5006,-2.4875,-2.4704,-2.4522,-2.4392,0.0,0.0,-2.5883,-2.6499,-2.7625,-2.7272,-2.6922,-2.6371,-2.489,-2.4208,-2.3877,-2.2412,-2.1764,-2.1262,-1.9489,-1.8479,-1.7345,-1.4178,-1.1382,-0.8553,-0.5209,-0.1516,0.2298,0.6193,0.9273,1.2323,1.6191,1.7999,1.9156,2.0047,2.0729,2.1437,2.2194,2.287,2.344,2.384,2.4222,2.4504,2.4643,2.4709,2.4782,2.4847,2.4847,2.4847,2.4872,2.5094,2.5254,2.5302,2.4591,2.3764,2.2874,2.2122,2.1301,2.036,2.0365,2.0402,2.0404,2.041,2.0841,2.1705,2.2656,2.3553,2.4425,2.5297,2.5699,-2.4391,-2.4596,-2.4776,-2.4922,-2.4993,-2.5075,-2.5201,0.0,-2.5426,-2.5512,-2.5561,-2.5613,-2.5683,-2.5422,-2.5017,0.0,0.0,0.0,0.0,0.0,0.0,0.0,0.0,0.0,0.0,0.0,0.0,0.0,0.0,0.0,-2.5639,-2.5605,-2.5585,-2.5537,-2.5464,-2.541,-2.5385,-2.5313,-2.5252,-2.5184,-2.5031,-2.4915,-2.4813,-2.4642,-2.4459,-2.4265,-2.4078,0.0,0.0,-2.5517,-2.6092,-2.7132,-2.6808,-2.6453,-2.5988,-2.4463,-2.3852,-2.3588,-2.2033,-2.1324,-2.0879,-1.939,-1.8087,-1.6646,-1.4013,-1.1518,-0.9006,-0.6049,-0.2974,0.0214,0.3591,0.7314,1.0914,1.3749,1.5299,1.6467,1.7633,1.8666,1.9642,2.0591,2.1454,2.2246,2.2799,2.3336,2.3762,2.4026,2.4153,2.4241,2.431,2.3917,2.3673,2.3657,2.4436,2.4758,2.4262,2.3938,2.3195,2.1863,2.1541,2.1032,2.0159,2.018,2.0238,2.0282,2.0791,2.1249,2.1648,2.3065,2.3952,2.4365,2.5231,2.5645,-2.4391,-2.4564,-2.4729,-2.4842,-2.4934,-2.5038,0.0,0.0,-2.5418,-2.5486,-2.5561,-2.5613,-2.5681,-2.5694,-2.5506,0.0,0.0,-2.457,0.0,0.0,0.0,0.0,0.0,0.0,0.0,0.0,0.0,0.0,0.0,0.0,0.0,-2.5544,-2.5524,-2.5464,-2.5404,-2.5341,-2.5245,-2.5163,-2.5099,-2.5006,-2.4907,-2.476,-2.461,-2.4389,-2.4192,-2.3999,0.0,0.0,0.0,-2.5157,-2.5695,-2.6641,-2.6349,-2.6046,-2.5607,-2.4051,-2.3446,-2.3167,-2.1567,-2.0811,-2.0371,-1.9091,-1.7606,-1.5929,-1.3795,-1.1611,-0.9358,-0.6814,-0.3733,-0.0564,0.2214,0.562,0.8885,1.0891,1.243,1.3768,1.5121,1.6486,1.7774,1.887,1.9955,2.0936,2.1685,2.2315,2.2845,2.3216,2.3243,2.3247,2.3347,2.2753,2.2318,2.2318,2.3137,2.3494,2.3036,2.2821,2.2233,2.1092,2.0906,2.0557,1.9979,2.0002,2.0069,2.0142,2.1001,2.1609,2.1934,2.3427,2.4314,2.4646,2.5251,2.5556,-2.4444,-2.4599,-2.4714,-2.4783,-2.4912,-2.5032,0.0,0.0,-2.5421,-2.5479,-2.5561,-2.5609,-2.5696,-2.5693,-2.5701,-2.5683,0.0,0.0,0.0,0.0,0.0,0.0,0.0,0.0,0.0,0.0,0.0,0.0,0.0,0.0,0.0,-2.5448,-2.5395,-2.5395,-2.5332,-2.5231,-2.5096,-2.5043,-2.4929,-2.4794,-2.4719,-2.461,-2.4389,-2.4192,-2.3981,0.0,0.0,0.0,0.0,-2.4756,-2.5321,-2.6383,-2.6026,-2.5787,-2.54,-2.3819,-2.306,-2.2675,-2.108,-2.0189,-1.9611,-1.8481,-1.702,-1.5375,-1.3616,-1.1643,-0.9559,-0.7488,-0.3577,0.044,0.2459,0.4128,0.5723,0.7584,0.9489,1.1195,1.2542,1.4214,1.5838,1.7169,1.8469,1.9617,2.0573,2.1222,2.1773,2.2255,2.1901,2.1673,2.1815,2.1282,2.0909,2.0909,2.0989,2.1254,2.1777,2.1092,2.0696,2.08,2.0129,1.9745,1.9807,1.987,1.9928,1.9998,2.0851,2.1761,2.2681,2.3573,2.4484,2.5382,2.5406,2.5439,-2.4478,-2.4596,-2.4726,-2.4779,-2.4912,-2.5019,-2.5122,0.0,-2.5365,-2.5485,-2.5546,-2.5621,-2.5696,-2.5693,-2.5701,-2.5702,-2.5703,0.0,0.0,0.0,0.0,0.0,0.0,0.0,0.0,0.0,0.0,0.0,0.0,0.0,0.0,-2.537,-2.5332,-2.5332,-2.5228,-2.5106,-2.4949,-2.4912,-2.4798,-2.466,-2.4549,-2.4393,-2.4192,-2.3999,0.0,0.0,0.0,0.0,0.0,-2.374,-2.4261,-2.5269,-2.4895,-2.4906,-2.5003,-2.3401,-2.266,-2.2236,-2.0594,-1.9696,-1.9155,-1.8271,-1.6822,-1.5159,-1.3864,-1.1795,-0.9361,-0.651,-0.3633,-0.0926,0.0926,0.2443,0.3869,0.5281,0.7117,0.8979,1.0599,1.2307,1.4006,1.5465,1.6798,1.7979,1.9016,1.9455,1.9862,2.037,2.0213,2.0101,2.0331,1.976,1.9371,1.9441,1.908,1.9279,2.0407,2.0318,2.0009,1.9601,1.9452,1.9405,1.9527,1.9649,2.0001,2.0678,2.158,2.2486,2.3389,2.4312,2.4945,2.5322,2.5331,2.5365,0.0,-2.4645,-2.4723,-2.4861,-2.494,0.0,0.0,0.0,-2.5374,-2.5478,-2.554,-2.5617,-2.5684,-2.5709,-2.5699,-2.5702,-2.5703,0.0,0.0,0.0,0.0,0.0,0.0,0.0,0.0,0.0,0.0,0.0,0.0,0.0,0.0,-2.5273,-2.5209,-2.5164,-2.5082,-2.4961,-2.4837,-2.4753,-2.4647,-2.4498,-2.4339,-2.4173,-2.3979,-2.3774,0.0,0.0,0.0,0.0,0.0,-2.3103,-2.3473,-2.4216,-2.3807,-2.3977,-2.428,-2.2621,-2.2017,-2.182,-2.0124,-1.9199,-1.863,-1.7841,-1.6157,-1.417,-1.2813,-1.0937,-0.8725,-0.607,-0.4061,-0.2255,-0.0487,0.0975,0.2228,0.3459,0.5264,0.7158,0.8743,1.0635,1.2416,1.3907,1.5107,1.6252,1.7326,1.7727,1.8049,1.8573,1.8509,1.8427,1.8686,1.8202,1.7888,1.8005,1.7697,1.7901,1.8874,1.9198,1.9215,1.8861,1.8999,1.9146,1.9271,1.9409,1.9931,2.0868,2.1784,2.2693,2.3577,2.455,2.508,2.5149,2.5192,2.5254,0.0,0.0,0.0,0.0,0.0,0.0,0.0,0.0,0.0,-2.5485,-2.556,-2.5613,-2.5691,-2.5698,-2.5694,-2.5699,0.0,0.0,0.0,0.0,0.0,0.0,0.0,0.0,0.0,0.0,0.0,0.0,0.0,0.0,0.0,-2.5168,-2.5024,-2.4902,-2.4888,-2.4804,-2.4692,-2.4613,-2.4481,-2.4284,-2.4135,-2.3961,-2.3774,-2.3576,0.0,0.0,0.0,0.0,0.0,-2.2727,-2.2818,-2.3157,-2.2817,-2.302,-2.3289,-2.1583,-2.1258,-2.1431,-1.9695,-1.8744,-1.8098,-1.7196,-1.5136,-1.2685,-1.0949,-0.9403,-0.7852,-0.6064,-0.4739,-0.346,-0.1779,-0.0356,0.0935,0.2135,0.3908,0.5698,0.7056,0.908,1.1081,1.2455,1.3446,1.4421,1.556,1.5958,1.6313,1.6848,1.6762,1.6713,1.6908,1.6697,1.6549,1.6628,1.6825,1.7068,1.7337,1.7915,1.8351,1.8547,1.8753,1.893,1.9082,1.9212,1.9743,2.0736,2.1684,2.261,2.3461,2.4426,2.4888,2.4888,2.5031,2.5122,0.0,0.0,0.0,0.0,0.0,0.0,0.0,0.0,0.0,0.0,0.0,0.0,0.0,0.0,0.0,0.0,0.0,0.0,0.0,0.0,0.0,0.0,0.0,0.0,0.0,0.0,0.0,0.0,0.0,0.0,0.0,-2.5091,-2.4968,-2.4837,-2.4719,-2.4626,-2.4545,-2.4374,-2.4229,-2.4152,-2.3899,-2.3753,-2.3638,-2.3389,0.0,0.0,0.0,0.0,-2.2089,-2.1709,-2.1793,-2.2109,-2.1683,-2.1879,-2.224,-2.1,-2.0809,-2.0994,-1.9715,-1.9155,-1.8623,-1.6532,-1.4631,-1.2882,-1.134,-0.9624,-0.7923,-0.6651,-0.5247,-0.3902,-0.2804,-0.1382,0.0134,0.156,0.3257,0.4922,0.6336,0.8039,0.974,1.1033,1.2024,1.2956,1.3906,1.4285,1.4647,1.5104,1.5086,1.5136,1.5458,1.5595,1.5796,1.6062,1.6324,1.6617,1.7002,1.7516,1.7936,1.8194,1.845,1.8677,1.8861,1.9001,1.9806,2.1349,2.2957,2.3892,2.4178,2.4516,2.4707,2.4749,2.4837,2.4934,-2.505,-2.5018,-2.5018,0.0,0.0,0.0,0.0,0.0,0.0,0.0,0.0,0.0,0.0,0.0,0.0,0.0,0.0,0.0,0.0,0.0,0.0,0.0,0.0,0.0,0.0,0.0,0.0,0.0,0.0,0.0,0.0,-2.4632,-2.4298,-2.4159,-2.3649,-2.37,-2.4392,-2.4247,-2.4095,-2.3976,-2.375,-2.3576,-2.3435,-2.3175,-2.2919,0.0,0.0,0.0,-2.1601,-2.1183,-2.1049,-2.1023,-2.0671,-2.0827,-2.115,-2.0141,-2.0139,-2.0513,-1.9405,-1.8711,-1.8066,-1.639,-1.4757,-1.3224,-1.2026,-1.0381,-0.866,-0.7279,-0.5946,-0.4651,-0.3527,-0.2215,-0.0807,0.0867,0.2492,0.4091,0.5464,0.7118,0.8658,0.9794,1.065,1.1474,1.2294,1.2651,1.2998,1.349,1.3757,1.4038,1.4347,1.4752,1.509,1.5404,1.5752,1.616,1.6591,1.7027,1.7486,1.7915,1.8187,1.8428,1.8639,1.9108,2.0207,2.1986,2.3416,2.4173,2.4211,2.4374,2.4515,2.4564,2.466,2.4783,-2.5114,-2.5063,-2.5063,-2.5168,-2.5195,0.0,0.0,0.0,0.0,0.0,0.0,0.0,0.0,0.0,0.0,0.0,0.0,0.0,0.0,0.0,0.0,0.0,0.0,0.0,0.0,0.0,0.0,0.0,0.0,0.0,0.0,-2.4117,-2.3545,-2.34,-2.2423,-2.2548,-2.3879,-2.3876,-2.3773,-2.3611,-2.3584,-2.3453,-2.3241,-2.2995,-2.2712,0.0,0.0,0.0,-2.1293,-2.0909,-2.0496,-2.0104,-1.9823,-1.9908,-2.0088,-1.9219,-1.9492,-2.0088,-1.9222,-1.8265,-1.73,-1.6553,-1.5199,-1.3708,-1.2837,-1.1362,-0.9748,-0.8165,-0.6753,-0.5418,-0.4102,-0.2985,-0.1696,0.0095,0.1768,0.3277,0.463,0.6232,0.7734,0.8663,0.9333,0.9989,1.0791,1.1193,1.1568,1.2043,1.2614,1.3135,1.3496,1.4006,1.4438,1.4752,1.521,1.5681,1.6176,1.6528,1.7018,1.7635,1.7915,1.8239,1.8641,1.9517,2.0758,2.2431,2.3454,2.3955,2.3976,2.4153,2.4303,2.4376,2.4498,2.4647,-2.5168,-2.5191,-2.5164,-2.5191,-2.5206,0.0,0.0,0.0,0.0,0.0,0.0,0.0,0.0,0.0,0.0,0.0,0.0,0.0,0.0,0.0,0.0,0.0,0.0,0.0,0.0,0.0,0.0,0.0,0.0,0.0,0.0,-2.4104,-2.3545,-2.34,-2.2423,-2.1944,-2.2008,-2.2571,-2.2795,-2.2689,-2.3132,-2.3241,-2.3045,-2.2764,-2.248,0.0,0.0,-2.1448,-2.0958,-2.0597,-2.0224,-1.9823,-1.9493,-1.9324,-1.9161,-1.874,-1.9127,-1.9857,-1.9807,-1.9071,-1.801,-1.7035,-1.5857,-1.4521,-1.3119,-1.2105,-1.1099,-0.9504,-0.7753,-0.6021,-0.4853,-0.3507,-0.2073,-0.0497,0.1227,0.2885,0.4292,0.5471,0.6547,0.7557,0.818,0.8774,0.9479,1.0147,1.0753,1.1282,1.1799,1.2306,1.2861,1.3251,1.3722,1.4319,1.4766,1.521,1.5739,1.6203,1.6633,1.7027,1.7549,1.8327,1.9388,2.0312,2.1292,2.2307,2.3264,2.3768,2.3816,2.3996,2.4113,2.4228,2.4376,2.4498,-2.5184,-2.5206,-2.5217,-2.5228,0.0,-2.5273,-2.5379,0.0,0.0,0.0,0.0,0.0,0.0,0.0,0.0,0.0,0.0,0.0,0.0,0.0,0.0,0.0,0.0,0.0,0.0,0.0,0.0,0.0,0.0,0.0,0.0,0.0,-2.2734,-2.2654,-2.1237,-2.0429,-2.0241,-2.0879,-2.159,-2.2386,-2.2539,-2.2716,-2.2944,-2.2659,-2.2371,-2.201,0.0,-2.1246,-2.0811,-2.0357,-1.994,-1.9581,-1.9288,-1.9003,-1.8758,-1.8934,-1.9287,-1.9767,-1.9862,-1.9327,-1.8417,-1.7664,-1.6461,-1.518,-1.4165,-1.2886,-1.157,-1.0401,-0.8635,-0.6795,-0.5498,-0.411,-0.267,-0.1183,0.0575,0.2272,0.3591,0.4683,0.5625,0.6443,0.7237,0.7958,0.8496,0.9182,0.9845,1.0389,1.0933,1.1468,1.2054,1.2591,1.3148,1.3702,1.4278,1.4845,1.536,1.5896,1.6474,1.7126,1.794,1.8881,1.9992,2.0928,2.1837,2.2723,2.3302,2.3611,2.3638,2.3813,2.3976,2.4094,2.4228,2.4394,-2.5198,-2.5209,-2.5239,-2.5292,0.0,-2.5312,-2.5369,0.0,0.0,0.0,0.0,0.0,0.0,0.0,0.0,0.0,0.0,0.0,0.0,0.0,0.0,0.0,0.0,0.0,0.0,0.0,0.0,0.0,0.0,0.0,0.0,0.0,-2.1977,-2.1705,-2.0129,-1.92,-1.9066,-1.9507,-2.0467,-2.1975,-2.1942,-2.222,-2.279,-2.2525,-2.2203,-2.1882,-2.1433,-2.1055,-2.0662,-2.015,-1.9741,-1.9339,-1.9101,-1.8821,-1.8615,-1.9179,-1.9522,-1.9707,-1.9763,-1.9396,-1.8732,-1.8127,-1.7038,-1.5784,-1.5054,-1.356,-1.1935,-1.0987,-0.9418,-0.7719,-0.6224,-0.4813,-0.3465,-0.1917,-0.0268,0.1392,0.2677,0.3822,0.4766,0.5472,0.6344,0.7102,0.7659,0.8307,0.8941,0.9561,1.0128,1.0705,1.1394,1.2018,1.2626,1.3148,1.3809,1.4519,1.5226,1.5754,1.6456,1.7437,1.8334,1.928,2.0323,2.1264,2.2174,2.3077,2.3313,2.3453,2.3494,2.3703,2.3834,2.3976,2.4094,2.4284,-2.5201,-2.5241,-2.5292,-2.5293,-2.5302,0.0,-2.5369,-2.5406,0.0,-2.5488,0.0,0.0,0.0,0.0,0.0,0.0,0.0,0.0,0.0,0.0,0.0,0.0,0.0,0.0,0.0,0.0,0.0,0.0,0.0,0.0,0.0,0.0,0.0,-2.0822,-1.9769,-1.9135,-1.9001,-1.886,-1.9548,-2.1004,-2.1482,-2.2004,-2.2515,-2.2186,-2.1899,-2.1603,-2.1246,-2.086,-2.041,-1.9965,-1.9588,-1.9265,-1.8903,-1.8695,-1.8735,-1.915,-1.9443,-1.9649,-1.9775,-1.9448,-1.8881,-1.8127,-1.739,-1.6501,-1.5209,-1.3875,-1.2589,-1.1382,-1.0121,-0.8698,-0.6988,-0.5675,-0.4409,-0.2766,-0.1387,-0.0,0.1554,0.2868,0.3958,0.4813,0.5475,0.6129,0.6867,0.7538,0.8193,0.878,0.946,1.0167,1.0933,1.1505,1.2138,1.2861,1.3408,1.4219,1.5389,1.5924,1.6647,1.7709,1.8306,1.9134,2.0257,2.1152,2.2079,2.3077,2.3193,2.3313,2.3494,2.3634,2.3747,2.3816,2.4016,2.419,-2.5241,-2.5282,-2.5292,-2.5303,-2.5303,0.0,0.0,-2.5406,-2.5423,0.0,0.0,0.0,0.0,0.0,0.0,0.0,0.0,0.0,0.0,0.0,0.0,0.0,0.0,0.0,0.0,0.0,0.0,0.0,0.0,0.0,0.0,0.0,0.0,-2.0655,-1.9671,-1.9069,-1.8948,-1.8752,-1.9339,-2.073,-2.0877,-2.1505,-2.2487,-2.2158,-2.184,-2.1589,-2.1151,-2.0745,-2.0376,-1.9925,-1.953,-1.9145,-1.9004,-1.9086,-1.93,-1.9712,-1.9969,-2.0051,-1.9889,-1.9448,-1.8881,-1.8247,-1.7523,-1.6754,-1.5776,-1.4446,-1.3014,-1.1982,-1.0608,-0.9093,-0.7545,-0.6357,-0.5265,-0.3889,-0.2506,-0.1059,0.039,0.1654,0.2823,0.3872,0.4692,0.5415,0.604,0.6779,0.7494,0.8142,0.8861,0.9579,1.0331,1.1057,1.1763,1.2508,1.3509,1.4639,1.5881,1.6443,1.7157,1.8282,1.8817,1.9574,2.0634,2.1625,2.241,2.2902,2.307,2.3217,2.3378,2.3544,2.3678,2.3789,2.3955,2.4113,-2.5282,-2.5292,-2.5302,0.0,0.0,0.0,-2.5378,-2.5406,-2.5423,0.0,0.0,0.0,0.0,0.0,0.0,0.0,0.0,0.0,0.0,0.0,0.0,0.0,0.0,0.0,0.0,0.0,0.0,0.0,0.0,0.0,0.0,0.0,0.0,0.0,-1.9426,-1.8984,-1.8878,-1.889,-1.9465,-2.0593,-2.0701,-2.1327,-2.2388,-2.2073,-2.1781,-2.1481,-2.1039,-2.0679,-2.0308,-1.9889,-1.9398,-1.8984,-1.9056,-1.9289,-1.9638,-2.0047,-2.0285,-2.0321,-1.9952,-1.9448,-1.8881,-1.8302,-1.7579,-1.6866,-1.5987,-1.4651,-1.3186,-1.2235,-1.0891,-0.9458,-0.8296,-0.7171,-0.6036,-0.4835,-0.3561,-0.2228,-0.0837,0.039,0.1605,0.281,0.3884,0.4774,0.536,0.6164,0.696,0.7688,0.8466,0.9249,0.998,1.0715,1.1568,1.2532,1.3846,1.5036,1.6102,1.686,1.7746,1.8886,1.9422,2.0047,2.0866,2.1915,2.2552,2.2764,2.297,2.3126,2.3265,2.3471,2.3629,2.3765,2.3894,2.4036,-2.5311,-2.5312,0.0,0.0,0.0,0.0,0.0,-2.5387,0.0,0.0,0.0,0.0,0.0,0.0,0.0,0.0,0.0,0.0,0.0,0.0,0.0,0.0,0.0,0.0,0.0,0.0,0.0,0.0,0.0,0.0,0.0,0.0,0.0,0.0,-1.8999,-1.8878,-1.8788,-1.9321,-1.9926,-2.0611,-2.107,-2.1613,-2.2192,-2.1915,-2.1617,-2.1277,-2.0958,-2.0595,-2.027,-1.9869,-1.9288,-1.8744,-1.8988,-1.9302,-1.9638,-2.0047,-2.0285,-2.0321,-1.9952,-1.9448,-1.8881,-1.8302,-1.7623,-1.6802,-1.5628,-1.4418,-1.3186,-1.2033,-1.0882,-0.9844,-0.9166,-0.8049,-0.681,-0.5605,-0.4611,-0.3506,-0.2117,-0.0892,0.0335,0.1561,0.2929,0.4079,0.4796,0.5717,0.6622,0.7373,0.8305,0.9173,0.9918,1.0621,1.1605,1.3057,1.434,1.5339,1.5955,1.7119,1.8294,1.9452,1.9999,2.0492,2.0899,2.186,2.2487,2.2685,2.2893,2.307,2.3193,2.3383,2.3585,2.37,2.3852,2.3976,-2.5293,0.0,0.0,0.0,0.0,0.0,0.0,0.0,0.0,0.0,0.0,0.0,0.0,0.0,0.0,0.0,0.0,0.0,0.0,0.0,0.0,0.0,0.0,0.0,0.0,0.0,0.0,0.0,0.0,0.0,0.0,0.0,0.0,0.0,-1.8984,-1.8825,-1.8659,-1.9181,-1.9772,-2.0405,-2.0918,-2.1478,-2.2056,-2.1827,-2.1542,-2.1199,-2.0941,-2.0595,-2.0235,-1.9581,-1.904,-1.8786,-1.9461,-1.9672,-1.9678,-2.0468,-2.0641,-2.0372,-2.0029,-1.9512,-1.8934,-1.8398,-1.7562,-1.6559,-1.5601,-1.4321,-1.2976,-1.2114,-1.1031,-0.9991,-0.942,-0.8626,-0.767,-0.6362,-0.5269,-0.4171,-0.3063,-0.184,-0.0559,0.0726,0.1992,0.3214,0.4029,0.5268,0.6376,0.7245,0.8364,0.9684,1.135,1.2281,1.32,1.4162,1.5071,1.6027,1.7107,1.7969,1.8961,2.0135,2.0703,2.1168,2.1524,2.2062,2.2432,2.2649,2.2842,2.302,2.3193,2.336,2.3522,2.37,2.3792,2.3896,-2.5341,0.0,0.0,0.0,0.0,0.0,0.0,0.0,0.0,0.0,0.0,0.0,0.0,0.0,0.0,0.0,0.0,0.0,0.0,0.0,0.0,0.0,0.0,0.0,0.0,0.0,0.0,0.0,0.0,0.0,0.0,0.0,0.0,0.0,-1.8878,-1.8733,-1.8565,-1.9412,-1.9993,-2.0267,-2.1119,-2.1653,-2.1869,-2.1738,-2.1481,-2.1135,-2.0695,-2.0357,-2.001,-1.9435,-1.9003,-1.8825,-1.9698,-1.991,-1.9884,-2.0703,-2.0785,-2.0422,-2.008,-1.9364,-1.8622,-1.8084,-1.7168,-1.6103,-1.5067,-1.3959,-1.2894,-1.1956,-1.1036,-1.0205,-0.9621,-0.8995,-0.8203,-0.6961,-0.5932,-0.4948,-0.3898,-0.2732,-0.1452,-0.0167,0.1283,0.2658,0.3681,0.5051,0.6302,0.7272,0.8714,1.0292,1.1933,1.2951,1.3813,1.4607,1.5619,1.6613,1.7675,1.8617,1.9539,2.0429,2.099,2.1464,2.1797,2.2106,2.2349,2.2569,2.2764,2.2944,2.3119,2.3289,2.3453,2.3656,2.3747,2.3873,0.0,0.0,0.0,0.0,0.0,0.0,0.0,0.0,0.0,0.0,0.0,0.0,0.0,0.0,0.0,0.0,0.0,0.0,0.0,0.0,0.0,0.0,0.0,0.0,0.0,0.0,0.0,0.0,0.0,0.0,0.0,0.0,0.0,-1.8895,-1.8753,-1.8657,-1.859,-1.9851,-2.0405,0.0,-2.16,-2.2003,-2.1694,-2.1603,-2.1388,-2.1038,-2.0376,-1.996,-1.969,-1.9398,-1.9101,-1.886,-1.9698,-1.9958,-2.0009,-2.0616,-2.0677,-2.0354,-1.9851,-1.898,-1.8032,-1.7508,-1.6598,-1.5488,-1.4256,-1.3508,-1.28,-1.1624,-1.0922,-1.036,-0.9777,-0.9093,-0.8362,-0.7402,-0.6598,-0.5668,-0.4508,-0.3456,-0.2345,-0.1005,0.0725,0.2397,0.3561,0.4992,0.6396,0.7638,0.932,1.0894,1.2064,1.2956,1.386,1.4742,1.6049,1.7139,1.7904,1.9066,1.998,2.046,2.099,2.1433,2.1797,2.2032,2.2276,2.2487,2.2712,2.2868,2.2995,2.3193,2.3407,2.3607,2.3739,2.3871,0.0,0.0,0.0,0.0,0.0,0.0,0.0,0.0,0.0,0.0,0.0,0.0,0.0,0.0,0.0,0.0,0.0,0.0,0.0,0.0,0.0,0.0,0.0,0.0,0.0,0.0,0.0,0.0,0.0,0.0,0.0,0.0,0.0,-1.8914,-1.8715,-1.8827,-1.9279,-1.9976,-2.0558,0.0,-2.1692,-2.1928,-2.1694,-2.1526,-2.1214,-2.0744,-2.0289,-1.996,-1.969,-1.9398,-1.9101,-1.8817,-1.9249,-1.935,-1.9334,-1.9588,-1.9476,-1.923,-1.8818,-1.8214,-1.7482,-1.7073,-1.6081,-1.4917,-1.4114,-1.3252,-1.2336,-1.1495,-1.0922,-1.036,-0.9777,-0.9159,-0.8533,-0.7777,-0.6858,-0.5882,-0.4838,-0.3735,-0.2625,-0.1285,0.0223,0.1786,0.3176,0.4776,0.6612,0.8982,1.0382,1.161,1.2832,1.3796,1.4773,1.5685,1.6625,1.7531,1.8379,1.9133,1.9839,2.046,2.0941,2.1356,2.1724,2.202,2.2276,2.2487,2.2712,2.2868,2.2995,2.3193,2.3407,2.3607,2.3678,2.3828,0.0,0.0,0.0,0.0,0.0,0.0,0.0,0.0,0.0,0.0,0.0,0.0,0.0,0.0,0.0,0.0,0.0,0.0,0.0,0.0,0.0,0.0,0.0,0.0,0.0,0.0,0.0,0.0,0.0,0.0,0.0,-1.9168,-1.9018,-1.886,-1.8695,-1.8874,-1.9456,-2.0015,-2.0576,-2.1116,-2.1675,-2.1781,-2.145,-2.1214,-2.0893,-2.0559,-2.02,-1.9919,-1.9632,-1.9413,-1.9101,-1.8841,-1.9109,-1.9156,-1.9127,-1.9252,-1.9152,-1.8865,-1.8427,-1.778,-1.6979,-1.6439,-1.5516,-1.4446,-1.3707,-1.2919,-1.2175,-1.1477,-1.0922,-1.036,-0.9777,-0.9211,-0.8593,-0.7883,-0.702,-0.61,-0.5117,-0.4012,-0.279,-0.1453,0.0056,0.1619,0.3174,0.5316,0.7486,0.9496,1.0677,1.1733,1.2967,1.3993,1.4971,1.5964,1.6854,1.7733,1.8539,1.9221,1.999,2.0876,2.1351,2.1956,2.2636,2.2934,2.2887,2.2477,2.2659,2.2816,2.2944,2.3562,2.3951,2.4088,2.4585,2.4883,0.0,0.0,0.0,0.0,0.0,0.0,0.0,0.0,0.0,0.0,0.0,0.0,0.0,0.0,0.0,0.0,0.0,0.0,0.0,0.0,0.0,0.0,0.0,0.0,0.0,0.0,0.0,0.0,0.0,0.0,-1.9282,-1.9172,-1.9002,-1.8806,-1.8656,-1.8918,-1.9577,-2.0054,-2.0594,-2.1221,-2.1628,-2.1617,-2.1183,-2.0925,-2.0628,-2.0388,-2.0111,-1.9863,-1.9574,-1.9376,-1.9101,-1.8841,-1.8983,-1.8989,-1.892,-1.8983,-1.8803,-1.852,-1.8042,-1.7325,-1.6428,-1.5763,-1.4915,-1.4025,-1.3256,-1.2647,-1.2126,-1.1477,-1.0922,-1.0411,-0.9777,-0.9263,-0.8699,-0.799,-0.7235,-0.6372,-0.5344,-0.4177,-0.2899,-0.1564,0.0223,0.2007,0.3666,0.6122,0.8237,0.9555,1.0533,1.1543,1.2716,1.3805,1.4835,1.5856,1.6837,1.7801,1.8655,1.9397,2.0307,2.1487,2.1995,2.268,2.3652,2.3951,2.3672,2.2785,2.2973,2.3162,2.3302,2.4232,2.4701,2.4793,2.5631,2.6063,0.0,0.0,0.0,0.0,0.0,0.0,0.0,0.0,0.0,0.0,0.0,0.0,0.0,0.0,0.0,0.0,0.0,0.0,0.0,0.0,0.0,0.0,0.0,0.0,0.0,0.0,0.0,0.0,0.0,0.0,-1.9235,-1.9137,-1.9002,-1.8806,-1.8619,-1.9105,-2.0356,-2.0264,-2.0815,-2.204,-2.1764,-2.1497,-2.1183,-2.0925,-2.0628,-2.0388,-2.0111,-1.9863,-1.9574,-1.9376,-1.9101,-1.8784,-1.852,-1.8311,-1.8125,-1.784,-1.7547,-1.7179,-1.6878,-1.6392,-1.5799,-1.5188,-1.4534,-1.3873,-1.3208,-1.2589,-1.2026,-1.1477,-1.1023,-1.0514,-0.9947,-0.948,-0.9001,-0.8421,-0.767,-0.6701,-0.5399,-0.4177,-0.2899,-0.1564,0.1058,0.3561,0.5218,0.6627,0.7972,0.9249,1.0233,1.1242,1.2316,1.3532,1.4674,1.57,1.6667,1.7799,1.9179,1.9924,2.082,2.2017,2.2598,2.309,2.3583,2.3918,2.4141,2.4218,2.4533,2.4763,2.4885,2.5262,2.5498,2.5557,2.5864,2.6063,0.0,0.0,0.0,0.0,0.0,0.0,0.0,0.0,0.0,0.0,0.0,0.0,0.0,0.0,0.0,0.0,0.0,0.0,0.0,0.0,0.0,0.0,0.0,0.0,0.0,0.0,0.0,0.0,0.0,-1.9435,-1.9266,-1.9153,-1.9002,-1.8806,-1.9045,-1.9598,-2.0495,-2.0793,-2.1291,-2.1974,-2.1724,-2.1435,-2.1135,-2.0909,-2.0628,-2.032,-2.0025,-1.9741,-1.9465,-1.9242,-1.8979,-1.8697,-1.8372,-1.8135,-1.7895,-1.7584,-1.7212,-1.6876,-1.6491,-1.6001,-1.5513,-1.4926,-1.4362,-1.3752,-1.3142,-1.2608,-1.2076,-1.1578,-1.1124,-1.0667,-1.0051,-0.9577,-0.9054,-0.8527,-0.7723,-0.681,-0.5723,-0.4453,-0.2785,-0.0502,0.1782,0.3729,0.5164,0.6524,0.7765,0.8883,0.9917,1.0981,1.2159,1.3506,1.4792,1.5972,1.7192,1.8407,1.9571,2.0349,2.1312,2.2607,2.317,2.3845,2.47,2.5071,2.543,2.5727,2.5193,2.4982,2.5209,2.5858,2.6206,2.6322,2.696,2.7312,0.0,0.0,0.0,0.0,0.0,0.0,0.0,0.0,0.0,0.0,0.0,0.0,0.0,0.0,0.0,0.0,0.0,0.0,0.0,0.0,0.0,0.0,0.0,0.0,0.0,0.0,0.0,0.0,0.0,-1.9446,-1.9314,-1.9168,-1.9109,-1.9129,-1.9527,-2.0061,-2.0813,-2.1387,-2.1735,-2.1811,-2.1664,-2.1435,-2.1103,-2.0909,-2.0628,-2.027,-1.9955,-1.9632,-1.9339,-1.9093,-1.8879,-1.8634,-1.8268,-1.8043,-1.7801,-1.7474,-1.7141,-1.6791,-1.6362,-1.5881,-1.5379,-1.48,-1.4244,-1.3678,-1.3113,-1.2627,-1.2175,-1.1669,-1.1276,-1.082,-1.0257,-0.974,-0.9211,-0.8685,-0.7883,-0.6858,-0.555,-0.4233,-0.2454,0.0335,0.2063,0.3508,0.4776,0.6145,0.7391,0.8455,0.954,1.0702,1.2009,1.3452,1.4849,1.617,1.7562,1.8845,1.9898,2.0756,2.1789,2.3163,2.3771,2.4512,2.5513,2.5974,2.633,2.6674,2.58,2.5493,2.5773,2.651,2.6961,2.7118,2.786,2.8264,0.0,0.0,0.0,0.0,0.0,0.0,0.0,0.0,0.0,0.0,0.0,0.0,0.0,0.0,0.0,0.0,0.0,0.0,0.0,0.0,0.0,0.0,0.0,0.0,0.0,0.0,0.0,0.0,0.0,-1.9442,-1.9305,-1.918,-1.9395,-2.001,-1.987,-2.0385,-2.1625,-2.1983,-2.2084,-2.1899,-2.1694,-2.1466,-2.1183,-2.0925,-2.0628,-2.027,-1.9955,-1.9617,-1.9302,-1.9093,-1.8803,-1.8478,-1.8121,-1.7895,-1.7679,-1.7323,-1.7002,-1.6675,-1.6331,-1.5881,-1.5379,-1.48,-1.4244,-1.3726,-1.3152,-1.2666,-1.2224,-1.1778,-1.1427,-1.0972,-1.0573,-1.011,-0.9636,-0.9113,-0.8315,-0.6956,-0.4281,-0.3072,-0.1846,0.0279,0.1673,0.2954,0.445,0.5546,0.6691,0.7966,0.8974,1.0239,1.1896,1.3173,1.4558,1.6126,1.74,1.8686,2.016,2.1173,2.2279,2.3505,2.4292,2.4942,2.5378,2.5901,2.6312,2.6606,2.6808,2.7049,2.7374,2.7542,2.7736,2.7943,2.8109,2.8264,0.0,0.0,0.0,0.0,0.0,0.0,0.0,0.0,0.0,0.0,0.0,0.0,0.0,0.0,0.0,0.0,0.0,0.0,0.0,0.0,0.0,0.0,0.0,0.0,0.0,0.0,0.0,0.0,0.0,0.0,-1.938,-1.9723,-1.9992,-2.0099,-2.0927,-2.1655,-2.2332,-2.2334,-2.2192,-2.1899,-2.1738,-2.1481,-2.1183,-2.0925,-2.0628,-2.027,-1.9904,-1.9581,-1.9265,-1.8941,-1.862,-1.8333,-1.8055,-1.7747,-1.7487,-1.717,-1.6833,-1.6448,-1.6057,-1.5659,-1.5153,-1.4754,-1.4244,-1.3726,-1.3276,-1.2852,-1.2421,-1.1977,-1.1628,-1.1226,-1.0769,-1.0265,-0.9629,-0.8468,-0.7509,-0.6372,-0.4567,-0.3128,-0.1679,-0.0168,0.1228,0.2508,0.3619,0.4941,0.6145,0.7111,0.8495,0.995,1.1447,1.3111,1.4737,1.6249,1.7737,1.9095,2.0381,2.1354,2.2374,2.3391,2.412,2.4751,2.5317,2.577,2.617,2.6469,2.6674,2.6973,2.7324,2.7478,2.7659,2.7806,2.7996,2.8154,-2.561,0.0,0.0,0.0,0.0,0.0,0.0,0.0,0.0,0.0,0.0,0.0,0.0,0.0,0.0,0.0,0.0,0.0,0.0,0.0,0.0,0.0,0.0,0.0,0.0,0.0,0.0,0.0,0.0,0.0,-1.983,-2.0211,-2.0572,-2.0831,-2.1953,-2.2599,-2.2721,-2.2525,-2.2276,-2.1986,-2.1797,-2.1542,-2.1262,-2.0958,-2.0662,-2.0339,-1.999,-1.9581,-1.9228,-1.8865,-1.8542,-1.8254,-1.7963,-1.7638,-1.7363,-1.7086,-1.6748,-1.6349,-1.5925,-1.5468,-1.5062,-1.4708,-1.4244,-1.3716,-1.3362,-1.2997,-1.2578,-1.2126,-1.1728,-1.1377,-1.0871,-1.0249,-0.942,-0.8143,-0.7074,-0.6105,-0.4952,-0.3458,-0.1956,-0.0726,0.0669,0.1896,0.2788,0.4113,0.5399,0.6449,0.797,0.9598,1.1241,1.3034,1.471,1.6309,1.784,1.9178,2.0346,2.1348,2.2296,2.3187,2.3909,2.4549,2.5146,2.5659,2.6063,2.6349,2.659,2.6825,2.7135,2.7324,2.7509,2.7683,2.7864,2.8053,0.0,0.0,0.0,0.0,0.0,0.0,0.0,0.0,0.0,0.0,0.0,0.0,0.0,0.0,0.0,0.0,0.0,0.0,0.0,0.0,0.0,0.0,0.0,0.0,0.0,0.0,0.0,0.0,0.0,-2.0019,-2.0655,-2.0627,-2.1116,-2.2303,-2.2882,-2.3052,-2.2816,-2.2605,-2.2388,-2.2192,-2.1873,-2.1587,-2.1386,-2.1055,-2.0745,-2.0494,-2.0131,-1.9669,-1.9101,-1.8827,-1.8517,-1.8163,-1.7842,-1.7556,-1.7363,-1.7015,-1.6663,-1.6349,-1.5925,-1.5468,-1.5062,-1.4708,-1.4244,-1.3763,-1.3467,-1.3094,-1.2627,-1.2224,-1.1819,-1.1427,-1.0972,-1.0043,-0.8995,-0.829,-0.723,-0.6159,-0.5273,-0.4009,-0.2683,-0.1397,-0.0056,0.1117,0.2007,0.3174,0.4494,0.6002,0.7453,0.9173,1.1299,1.2796,1.4393,1.6275,1.7567,1.8809,2.008,2.114,2.2109,2.2844,2.3767,2.4451,2.4863,2.5513,2.6026,2.6295,2.6556,2.6775,2.6992,2.7135,2.7369,2.7701,2.776,2.8035,-2.5678,0.0,0.0,0.0,0.0,0.0,0.0,0.0,0.0,0.0,0.0,0.0,0.0,0.0,0.0,0.0,0.0,0.0,0.0,0.0,0.0,0.0,0.0,0.0,0.0,0.0,0.0,0.0,-2.0433,-2.0763,-2.084,-2.1691,-2.2513,-2.3297,-2.33,-2.3126,-2.285,-2.2659,-2.2487,-2.2265,-2.1974,-2.1738,-2.1542,-2.1183,-2.086,-2.0494,-2.0131,-1.9741,-1.9302,-1.8912,-1.8553,-1.824,-1.7828,-1.7515,-1.7212,-1.6888,-1.6534,-1.6188,-1.5836,-1.5537,-1.5165,-1.4868,-1.443,-1.4035,-1.3658,-1.32,-1.2735,-1.2224,-1.1819,-1.1326,-1.0675,-0.9844,-0.8995,-0.829,-0.7396,-0.649,-0.5441,-0.4505,-0.3456,-0.2012,-0.0782,0.0335,0.1228,0.2452,0.3735,0.5104,0.6924,0.8753,1.0422,1.2329,1.4119,1.5698,1.7079,1.8352,1.9515,2.0584,2.1623,2.2558,2.3363,2.4105,2.4799,2.5224,2.5659,2.6082,2.6295,2.6589,2.6926,2.7103,2.7307,2.7569,2.7806,2.8053,0.0,0.0,0.0,0.0,0.0,0.0,-2.5648,-2.4319,0.0,0.0,0.0,0.0,0.0,0.0,0.0,0.0,0.0,0.0,0.0,0.0,0.0,0.0,0.0,0.0,0.0,0.0,0.0,-1.9996,-2.038,-2.0808,-2.1247,-2.2556,-2.3422,-2.3682,-2.3476,-2.3217,-2.2927,-2.2764,-2.2424,-2.1891,-2.1591,-2.1213,-2.0718,-2.0404,-2.0098,-1.9734,-1.9408,-1.9072,-1.8743,-1.8666,-1.8503,-1.8279,-1.7868,-1.7502,-1.7157,-1.6876,-1.6547,-1.6156,-1.5836,-1.5537,-1.5222,-1.4914,-1.4534,-1.4129,-1.3705,-1.3296,-1.2783,-1.2274,-1.1678,-1.1124,-1.047,-0.9792,-0.9099,-0.8455,-0.761,-0.6761,-0.5882,-0.5007,-0.4015,-0.2627,-0.1453,-0.0447,0.0503,0.173,0.3079,0.4468,0.6418,0.8322,0.9969,1.1975,1.3828,1.5371,1.6687,1.8027,1.9319,2.0383,2.1417,2.236,2.3143,2.3937,2.463,2.5084,2.5508,2.5954,2.6189,2.6521,2.6959,2.7055,2.7261,2.7557,2.7853,2.8071,0.0,0.0,0.0,0.0,0.0,0.0,-2.5693,-2.4425,-2.3213,0.0,0.0,0.0,0.0,0.0,0.0,0.0,0.0,0.0,0.0,0.0,0.0,0.0,0.0,0.0,0.0,-2.0145,-2.0078,-2.0009,-2.0017,-2.0551,-2.1771,-2.307,-2.3662,-2.3473,-2.3254,-2.3024,-2.2783,-2.2633,-2.21,-2.1173,-2.0918,-2.0323,-1.9509,-1.9232,-1.8959,-1.8708,-1.8422,-1.8099,-1.7842,-1.8244,-1.8331,-1.8182,-1.7882,-1.7502,-1.7199,-1.696,-1.6577,-1.62,-1.5881,-1.557,-1.5267,-1.4914,-1.4523,-1.4129,-1.3716,-1.3296,-1.2783,-1.2175,-1.1477,-1.082,-1.0419,-0.9888,-0.9309,-0.8784,-0.7883,-0.6972,-0.6372,-0.5449,-0.4408,-0.3294,-0.2178,-0.1118,-0.0223,0.1062,0.2482,0.405,0.5939,0.786,0.962,1.1563,1.3374,1.5129,1.6394,1.7743,1.9214,2.0333,2.1321,2.2235,2.3098,2.3824,2.4457,2.4982,2.547,2.5881,2.6189,2.6572,2.7007,2.704,2.7247,2.7587,2.7853,2.8071,0.0,0.0,0.0,0.0,0.0,0.0,-2.5691,-2.4891,-2.3952,0.0,0.0,0.0,0.0,0.0,0.0,0.0,0.0,0.0,0.0,0.0,0.0,0.0,0.0,0.0,0.0,-2.0144,-2.0069,-2.002,-2.0486,-2.1146,-2.1999,-2.2212,-2.2208,-2.2025,-2.1812,-2.1569,-2.1317,-2.1109,-2.0869,-2.0489,-2.0221,-1.992,-1.9574,-1.9355,-1.9074,-1.8783,-1.8499,-1.8176,-1.7906,-1.8278,-1.8173,-1.7815,-1.7903,-1.7693,-1.7308,-1.6888,-1.659,-1.6318,-1.5925,-1.5647,-1.5379,-1.5006,-1.464,-1.428,-1.3752,-1.3296,-1.2725,-1.1877,-1.1267,-1.082,-1.0522,-0.9991,-0.9458,-0.9001,-0.8256,-0.7402,-0.6696,-0.5828,-0.4952,-0.4122,-0.3016,-0.1792,-0.056,0.0727,0.2071,0.3543,0.5292,0.7087,0.8857,1.0924,1.2848,1.4436,1.5938,1.7424,1.8715,1.9851,2.0979,2.1969,2.2904,2.3653,2.4302,2.4806,2.5262,2.5738,2.6314,2.6742,2.7007,2.7279,2.7434,2.7526,2.7853,2.7996,0.0,0.0,0.0,-2.57,0.0,0.0,0.0,-2.5033,-2.4272,0.0,0.0,0.0,0.0,0.0,0.0,0.0,0.0,0.0,0.0,0.0,0.0,0.0,0.0,0.0,0.0,-2.018,-2.0107,-2.0011,-2.0649,-2.1172,-2.1494,-2.1739,-2.1834,-2.1661,-2.146,-2.1247,-2.1004,-2.0829,-2.0453,-1.9843,-1.9614,-1.9185,-1.8593,-1.8365,-1.8076,-1.7777,-1.7581,-1.7324,-1.709,-1.7477,-1.7577,-1.7484,-1.7932,-1.7814,-1.7419,-1.7002,-1.6663,-1.6392,-1.6044,-1.5792,-1.5513,-1.504,-1.4686,-1.428,-1.3763,-1.3094,-1.2382,-1.1678,-1.1276,-1.0922,-1.0573,-1.0198,-0.9777,-0.9211,-0.858,-0.783,-0.7025,-0.6154,-0.5336,-0.4512,-0.3463,-0.2406,-0.1287,0.0168,0.162,0.2959,0.4738,0.653,0.8246,1.0319,1.2287,1.3996,1.5588,1.709,1.8459,1.9658,2.0782,2.1841,2.2723,2.348,2.4162,2.4726,2.5301,2.5937,2.6453,2.6808,2.7007,2.7341,2.7496,2.7496,2.7813,2.7957,0.0,0.0,0.0,0.0,0.0,-2.5702,0.0,0.0,0.0,0.0,0.0,0.0,0.0,0.0,0.0,0.0,0.0,0.0,0.0,0.0,0.0,0.0,0.0,0.0,0.0,-2.0241,-2.0153,-2.0021,-2.0551,-2.0841,-2.0707,-2.1202,-2.1419,-2.1253,-2.1079,-2.0877,-2.068,-2.0533,-2.0026,-1.92,-1.8984,-1.8432,-1.7589,-1.7337,-1.7093,-1.6857,-1.6686,-1.649,-1.6268,-1.6726,-1.6964,-1.7098,-1.7791,-1.788,-1.7516,-1.7157,-1.6833,-1.6479,-1.6175,-1.5925,-1.5626,-1.5096,-1.464,-1.414,-1.3621,-1.2852,-1.2026,-1.1628,-1.1326,-1.1023,-1.0718,-1.0462,-1.0095,-0.9524,-0.8949,-0.8262,-0.7456,-0.6534,-0.566,-0.4791,-0.3852,-0.2852,-0.1958,-0.0391,0.1228,0.2512,0.4323,0.6115,0.7672,0.9714,1.1721,1.36,1.5162,1.6759,1.8298,1.9463,2.0597,2.1698,2.2572,2.3392,2.4036,2.4751,2.5454,2.6206,2.6504,2.6792,2.7007,2.731,2.7465,2.7496,2.7771,2.7946,0.0,0.0,0.0,0.0,-2.5701,0.0,0.0,0.0,0.0,0.0,0.0,0.0,0.0,0.0,0.0,0.0,0.0,0.0,0.0,0.0,0.0,0.0,0.0,0.0,0.0,0.0,-2.0171,-2.0088,-2.0105,-2.0096,-2.0024,-1.9976,-1.9866,-1.9671,-1.952,-1.9339,-1.9147,-1.8946,-1.8718,-1.8429,-1.8216,-1.794,-1.7589,-1.7448,-1.7256,-1.7057,-1.6857,-1.6623,-1.639,-1.6769,-1.6726,-1.6542,-1.7277,-1.7705,-1.7788,-1.7323,-1.696,-1.6633,-1.6448,-1.6057,-1.5626,-1.5198,-1.4455,-1.3621,-1.3113,-1.2578,-1.2026,-1.1778,-1.1427,-1.1074,-1.1023,-1.0769,-1.036,-0.9999,-0.9427,-0.8738,-0.7984,-0.7009,-0.6091,-0.5175,-0.4132,-0.3021,-0.1958,-0.067,0.0837,0.2456,0.391,0.5464,0.7319,0.9066,1.0885,1.2883,1.4476,1.6187,1.7993,1.9214,2.0346,2.1554,2.2434,2.326,2.3982,2.4974,2.5754,2.6206,2.6452,2.6742,2.7007,2.7184,2.7324,2.7496,2.7771,2.7946,0.0,0.0,0.0,0.0,0.0,0.0,-2.57,0.0,-2.5602,0.0,0.0,0.0,0.0,0.0,0.0,0.0,0.0,0.0,0.0,0.0,0.0,0.0,0.0,0.0,0.0,0.0,0.0,0.0,-2.0098,-2.0038,-1.9955,-1.983,-1.9707,-1.9587,-1.9413,-1.9246,-1.9067,-1.8878,-1.8679,-1.8469,-1.8266,-1.8057,-1.7833,-1.7612,-1.7425,-1.7208,-1.705,-1.6805,-1.6586,-1.6595,-1.6635,-1.6711,-1.6723,-1.7048,-1.7497,-1.7396,-1.7199,-1.6909,-1.6241,-1.5805,-1.5379,-1.4595,-1.3868,-1.3269,-1.2986,-1.2578,-1.2175,-1.1877,-1.1628,-1.1418,-1.1368,-1.1175,-1.082,-1.0352,-0.9829,-0.9249,-0.8362,-0.745,-0.6534,-0.5563,-0.446,-0.3297,-0.2181,-0.0782,0.0782,0.2462,0.3732,0.5124,0.6743,0.8519,1.0394,1.2518,1.4137,1.5804,1.772,1.8898,2.0042,2.1202,2.2634,2.3739,2.4426,2.5208,2.5791,2.6206,2.6468,2.6742,2.7007,2.7135,2.7293,2.7496,2.7665,2.7842,-2.5693,0.0,0.0,0.0,0.0,0.0,0.0,0.0,0.0,0.0,0.0,0.0,0.0,0.0,0.0,0.0,0.0,0.0,0.0,0.0,0.0,0.0,0.0,0.0,0.0,0.0,0.0,-2.0235,-2.0171,-2.0089,-2.0029,-1.9904,-1.9788,-1.9738,-1.9555,-1.9398,-1.9266,-1.9067,-1.886,-1.8641,-1.8448,-1.8246,-1.8031,-1.7794,-1.7549,-1.7344,-1.7183,-1.6975,-1.6696,-1.649,-1.6512,-1.6623,-1.6358,-1.6493,-1.6858,-1.7006,-1.6917,-1.6636,-1.5807,-1.5318,-1.4826,-1.3942,-1.3422,-1.309,-1.2882,-1.258,-1.2274,-1.2026,-1.1828,-1.1678,-1.1578,-1.1477,-1.1217,-1.071,-1.0285,-0.9718,-0.8837,-0.7937,-0.7025,-0.5941,-0.4787,-0.3516,-0.2404,-0.0894,0.067,0.2352,0.3514,0.4772,0.6298,0.7961,0.9774,1.1986,1.3589,1.529,1.7257,1.8537,1.9863,2.1272,2.286,2.4036,2.4695,2.5246,2.5717,2.6134,2.6434,2.6708,2.6975,2.7087,2.7261,2.7496,2.7557,2.7736,0.0,0.0,0.0,-2.569,0.0,0.0,0.0,0.0,-2.569,0.0,0.0,0.0,0.0,0.0,0.0,0.0,0.0,0.0,0.0,0.0,0.0,0.0,0.0,0.0,0.0,0.0,0.0,-2.0301,-2.0223,-2.0169,-2.0098,-1.9971,-1.9862,-1.98,-1.9662,-1.9532,-1.939,-1.918,-1.8982,-1.8788,-1.8582,-1.8351,-1.809,-1.7954,-1.7732,-1.7486,-1.7272,-1.7043,-1.6789,-1.6517,-1.6262,-1.6031,-1.6291,-1.6195,-1.5938,-1.6031,-1.5838,-1.5501,-1.5235,-1.4617,-1.3871,-1.3369,-1.3216,-1.3107,-1.264,-1.2492,-1.2431,-1.2175,-1.1877,-1.1728,-1.1669,-1.1569,-1.1427,-1.1124,-1.071,-1.0146,-0.9368,-0.8514,-0.7551,-0.6421,-0.5109,-0.3788,-0.2621,-0.1172,0.0391,0.2127,0.3241,0.4398,0.5987,0.7331,0.8931,1.0915,1.2627,1.4449,1.6481,1.8049,1.9864,2.2128,2.3098,2.3894,2.4589,2.5107,2.5605,2.601,2.6329,2.6623,2.6893,2.6975,2.7201,2.7496,2.7557,2.7724,0.0,0.0,-2.571,-2.571,0.0,0.0,0.0,0.0,0.0,0.0,0.0,0.0,0.0,0.0,0.0,0.0,0.0,0.0,0.0,0.0,0.0,0.0,0.0,0.0,0.0,0.0,0.0,-2.0365,-2.0308,-2.0242,-2.0167,-2.0078,-2.0001,-1.9926,-1.9804,-1.9663,-1.9536,-1.9383,-1.9198,-1.9,-1.8788,-1.8582,-1.8368,-1.8128,-1.7936,-1.7755,-1.7526,-1.7272,-1.7043,-1.6763,-1.6474,-1.6179,-1.5993,-1.5726,-1.5516,-1.6014,-1.5991,-1.5644,-1.4822,-1.3963,-1.3202,-1.305,-1.3014,-1.3055,-1.2834,-1.2782,-1.2793,-1.2569,-1.2382,-1.2224,-1.2224,-1.2076,-1.1877,-1.1669,-1.1217,-1.0651,-0.9873,-0.9086,-0.8137,-0.702,-0.571,-0.4391,-0.3231,-0.1898,-0.0391,0.1679,0.2961,0.4174,0.5542,0.7058,0.8711,1.057,1.2105,1.3849,1.5999,1.8486,2.0544,2.2081,2.2995,2.3767,2.4482,2.5045,2.5508,2.5917,2.6206,2.6521,2.6893,2.6959,2.7169,2.7496,2.7526,2.7665,-2.5656,-2.5664,0.0,-2.5652,-2.5652,0.0,-2.5652,0.0,0.0,0.0,0.0,0.0,0.0,0.0,0.0,0.0,0.0,0.0,0.0,0.0,0.0,0.0,0.0,0.0,0.0,0.0,-2.0433,-2.0444,-2.0371,-2.0321,0.0,0.0,-2.0152,-2.0069,-1.996,-1.9832,-1.9713,-1.9582,-1.9416,-1.9214,-1.9,-1.8807,-1.86,-1.8351,-1.8128,-1.7954,-1.771,-1.7479,-1.7199,-1.6952,-1.6633,-1.6301,-1.5953,-1.5595,-1.5325,-1.5646,-1.5579,-1.5176,-1.4288,-1.3579,-1.298,-1.2864,-1.2991,-1.3153,-1.2946,-1.3068,-1.317,-1.2949,-1.2764,-1.2627,-1.2627,-1.248,-1.2274,-1.2126,-1.1728,-1.1167,-1.0431,-0.9658,-0.8771,-0.761,-0.6308,-0.505,-0.3843,-0.2565,-0.1004,0.1118,0.2456,0.3788,0.5101,0.6568,0.8187,0.9976,1.1538,1.3518,1.6245,1.8678,2.0594,2.1894,2.283,2.3638,2.4416,2.4966,2.5432,2.5828,2.6154,2.6435,2.6792,2.6942,2.7137,2.7386,2.7465,2.7604]},{"header":{"parameterUnit":"m.s-1","parameterCategory":1,"la1":30.6,"la2":29.2853,"lo1":-89.7004,"lo2":-87.6739,"dy":0.0162,"dx":0.0183,"nx":112,"ny":82,"refTime":"2023-03-05T18:00:00:Z","depth":0,"parameterNumber":3,"parameterNumberName":"V-component_of_WINDS"},"data":[0.0,0.0,0.0,0.0,0.0,0.0,0.0,0.0,0.0,0.0,0.0,0.0,0.0,0.0,0.0,0.0,0.0,0.0,0.0,0.0,0.0,0.0,0.0,0.0,0.0,0.0,0.0,0.0,0.0,0.0,0.0,0.0,0.0,0.0,0.0,0.0,0.0,0.0,0.0,0.0,0.0,0.0,0.0,0.0,0.0,0.0,0.0,0.0,0.0,0.0,0.0,0.0,0.0,0.0,0.0,0.0,0.0,0.0,0.0,0.0,0.0,0.0,0.0,0.0,0.0,0.0,0.0,0.0,0.0,0.0,0.0,0.0,0.0,0.0,0.0,0.0,0.0,0.0,0.0,0.0,0.0,0.0,0.0,0.0,0.0,0.0,0.0,0.0,0.0,0.0,0.0,1.5198,1.6864,1.7963,1.817,1.8246,1.8325,1.8406,0.0,0.0,0.0,0.0,0.0,0.0,0.0,0.0,0.0,0.0,0.0,0.0,0.0,0.0,0.0,0.0,0.0,0.0,0.0,0.0,0.0,0.0,0.0,0.0,0.0,0.0,0.0,0.0,0.0,0.0,0.0,0.0,0.0,0.0,0.0,0.0,0.0,0.0,0.0,0.0,0.0,0.0,0.0,0.0,0.0,0.0,0.0,0.0,0.0,0.0,0.0,0.0,0.0,0.0,0.0,0.0,0.0,0.0,0.0,0.0,0.0,0.0,0.0,0.0,0.0,0.0,0.0,0.0,0.0,0.0,0.0,0.0,0.0,0.0,0.0,0.0,0.0,0.0,0.0,0.0,0.0,0.0,0.0,0.0,0.0,0.0,0.0,0.0,0.0,0.0,0.0,0.0,0.0,0.0,0.0,0.0,0.0,0.0,0.0,0.0,0.0,0.0,0.0,0.0,1.3316,1.4973,1.6462,1.7432,1.7687,1.7726,1.7794,1.7971,0.0,0.0,0.0,0.0,0.0,0.0,0.0,0.0,0.0,0.0,0.0,0.0,0.0,0.0,0.0,0.0,0.0,0.0,0.0,0.0,0.0,0.0,0.0,0.0,0.0,0.0,0.0,0.0,0.0,0.0,0.0,0.0,0.0,0.0,0.0,0.0,0.0,0.0,0.0,0.0,0.0,0.0,0.0,0.0,0.0,0.0,0.0,0.0,0.0,0.0,0.0,0.0,0.0,0.0,0.0,0.0,0.0,0.0,0.0,0.0,0.0,0.0,0.0,0.0,0.0,0.0,0.0,0.0,0.0,0.0,0.0,0.0,0.0,0.0,0.0,0.0,0.0,0.0,0.0,0.0,0.0,0.0,0.0,0.0,0.0,0.0,0.0,0.0,0.0,0.0,0.0,0.0,0.0,0.0,0.0,0.0,0.0,0.0,0.0,0.0,0.0,0.0,0.0,1.2968,1.3788,1.4617,1.6016,1.6942,1.7142,1.724,1.7337,1.7462,1.767,0.0,0.0,0.0,0.0,0.0,0.0,0.0,0.0,0.0,0.0,0.0,0.0,0.0,0.0,0.0,0.0,0.0,0.0,0.0,0.0,0.0,0.0,0.0,0.0,0.0,0.0,0.0,0.0,0.0,0.0,0.0,0.0,0.0,0.0,0.0,0.0,0.0,0.0,0.0,0.0,0.0,0.0,0.0,0.0,0.0,0.0,0.0,0.0,0.0,0.0,0.0,0.0,0.0,0.0,0.0,0.0,0.0,0.0,0.0,0.0,0.0,0.0,0.0,0.0,0.0,0.0,0.0,0.0,0.0,0.0,0.0,0.0,0.0,0.0,0.0,0.0,0.0,0.0,0.0,0.0,0.0,0.0,0.0,0.0,0.0,0.0,0.0,0.0,0.0,0.0,0.0,0.0,0.0,0.0,0.0,0.0,0.0,0.0,0.0,0.0,0.0,0.0,1.3259,1.4148,1.4439,1.5625,1.6448,1.6607,1.6738,1.685,1.6935,1.7027,0.0,0.0,0.0,0.0,0.0,0.0,0.0,0.0,0.0,0.0,0.0,0.0,0.0,0.0,0.0,0.0,0.0,0.0,0.0,0.0,0.0,0.0,0.0,0.0,0.0,0.0,0.0,0.0,0.0,0.0,0.0,0.0,0.0,0.0,0.0,0.0,0.0,0.0,0.0,0.0,0.0,0.0,0.0,0.0,0.0,0.0,0.0,0.0,0.0,0.0,0.0,0.0,0.0,0.0,0.0,0.0,0.0,0.0,0.0,0.0,0.0,0.0,0.0,0.0,0.0,0.0,0.0,0.0,0.0,0.0,0.0,0.0,0.0,0.0,0.0,0.0,0.0,0.0,0.0,0.0,0.0,0.0,0.0,0.0,0.0,0.0,0.0,0.0,0.0,0.0,0.0,0.0,0.0,0.0,0.0,0.0,0.0,0.0,0.0,0.0,0.0,0.0,1.3098,1.3849,1.4603,1.5319,1.5868,1.6123,1.6203,1.634,1.6512,1.6607,0.0,0.0,0.0,0.0,0.0,0.0,0.0,0.0,0.0,0.0,0.0,0.0,0.0,0.0,0.0,0.0,0.0,0.0,0.0,0.0,0.0,0.0,0.0,0.0,0.0,0.0,0.0,0.0,0.0,0.0,0.0,0.0,0.0,0.0,0.0,0.0,0.0,0.0,0.0,0.0,0.0,0.0,0.0,0.0,0.0,0.0,0.0,0.0,0.0,0.0,0.0,0.0,0.0,0.0,0.0,0.0,0.0,0.0,0.0,0.0,0.0,0.0,0.0,0.0,0.0,0.0,0.0,0.0,0.0,0.0,0.0,0.0,0.0,0.0,0.0,0.0,0.0,0.0,0.0,0.0,0.0,0.0,0.0,0.0,0.0,0.0,0.0,0.0,0.0,0.0,0.0,0.0,0.0,0.0,0.0,0.0,0.0,0.0,0.0,0.0,0.0,0.0,1.281,1.3522,0.0,1.4994,1.5521,1.5653,1.5811,1.5909,1.5994,0.0,0.0,0.0,0.0,0.0,0.0,0.0,0.0,0.0,0.0,0.0,0.0,0.0,0.0,0.0,0.0,0.0,0.0,0.0,0.0,0.0,0.0,0.0,0.0,0.0,0.0,0.0,0.0,0.0,0.0,0.0,0.0,0.0,0.0,0.0,0.0,0.0,0.0,0.0,0.0,0.0,0.0,0.0,0.0,0.0,0.0,0.0,0.0,0.0,0.0,0.0,0.0,0.0,0.0,0.0,0.0,0.0,0.0,0.0,0.0,0.0,0.0,0.0,0.0,0.0,0.0,0.0,0.0,0.0,0.0,0.0,0.0,0.0,0.0,0.0,0.0,0.0,0.0,0.0,0.0,0.0,0.0,0.0,0.0,0.0,0.0,0.0,0.0,0.0,0.0,0.0,0.0,0.0,0.0,0.0,0.0,0.0,0.0,0.0,0.0,0.0,0.0,1.2345,1.2899,1.3488,0.0,1.4754,1.5149,1.5209,1.5344,1.5463,1.5536,0.0,0.0,0.0,0.0,0.0,0.0,0.0,0.0,0.0,0.0,0.0,0.0,0.0,0.0,0.0,0.0,0.0,0.0,0.0,0.0,0.0,0.0,0.0,0.0,0.0,0.0,0.0,0.0,0.0,0.0,0.0,0.0,0.0,0.0,0.0,0.0,0.0,0.0,0.0,0.0,0.0,0.0,0.0,0.0,0.0,0.0,0.0,0.0,0.0,0.0,0.0,0.0,0.0,0.0,0.0,0.0,0.0,0.0,0.0,0.0,0.0,0.0,0.0,0.0,0.0,0.0,0.0,0.0,0.0,0.0,0.0,0.0,0.0,0.0,0.0,0.0,0.0,0.0,0.0,0.0,0.0,0.0,0.0,0.0,0.0,0.0,0.0,0.0,0.0,0.0,0.0,0.0,0.0,0.0,0.0,0.0,0.0,0.0,0.0,0.0,0.0,0.0,1.3225,1.3435,1.3744,1.4432,1.4624,1.4714,1.4808,1.4871,1.4994,0.0,0.0,0.0,0.0,0.0,0.0,0.0,0.0,0.0,0.0,0.0,0.0,0.0,0.0,0.0,0.0,0.0,0.0,0.0,0.0,0.0,0.0,0.0,0.0,0.0,0.0,0.0,0.0,0.0,0.0,0.0,0.0,0.0,0.0,0.0,0.0,0.0,0.0,0.0,0.0,0.0,0.0,0.0,0.0,0.0,0.0,0.0,0.0,0.0,0.0,0.0,0.0,0.0,0.0,0.0,0.0,0.0,0.0,0.0,0.0,0.0,0.0,0.0,0.0,0.0,0.0,0.0,0.0,0.0,0.0,0.0,0.0,0.0,0.0,0.0,0.0,0.0,0.0,0.0,0.0,0.0,0.0,0.0,0.0,0.0,0.0,0.0,0.0,0.0,0.0,0.0,0.0,0.0,0.0,0.0,0.0,0.0,0.0,0.0,0.0,0.0,0.0,0.0,1.3101,1.3195,1.3485,1.4219,1.4319,1.4365,1.4461,1.4525,1.4606,1.4704,0.0,0.0,0.0,0.0,0.0,0.0,0.0,0.0,0.0,0.0,0.0,0.0,0.0,0.0,0.0,0.0,0.0,0.0,0.0,0.0,0.0,0.0,0.0,0.0,0.0,0.0,0.0,0.0,0.0,0.0,0.0,0.0,0.0,0.0,0.0,0.0,0.0,0.0,0.0,0.0,0.0,0.0,0.0,0.0,0.0,0.0,0.0,0.0,0.0,0.0,0.0,0.0,0.0,0.0,0.0,0.0,0.0,0.0,0.0,0.0,0.0,0.0,0.0,0.0,0.0,0.0,0.0,0.0,0.0,0.0,0.0,0.0,0.0,0.0,0.0,0.0,0.0,0.0,0.0,0.0,0.0,0.0,0.0,0.0,0.0,0.0,0.0,0.0,0.0,0.0,0.0,0.0,0.0,0.0,0.0,0.0,0.0,0.0,0.0,0.0,0.0,0.0,1.3179,1.329,1.3499,1.4,1.4072,1.4105,1.4176,1.4189,1.4254,1.4356,0.0,0.0,0.0,0.0,0.0,0.0,0.0,0.0,0.0,0.0,0.0,0.0,0.0,0.0,0.0,0.0,0.0,0.0,0.0,0.0,0.0,0.0,0.0,0.0,0.0,0.0,0.0,0.0,0.0,0.0,0.0,0.0,0.0,0.0,0.0,0.0,0.0,0.0,0.0,0.0,0.0,0.0,0.0,0.0,0.0,0.0,0.0,0.0,0.0,0.0,0.0,0.0,0.0,0.0,0.0,0.0,0.0,0.0,0.0,0.0,0.0,0.0,0.0,0.0,0.0,0.0,0.0,0.0,0.0,0.0,0.0,0.0,0.0,0.0,0.0,0.0,0.0,0.0,0.0,0.0,0.0,0.0,0.0,0.0,0.0,0.0,0.0,0.0,0.0,0.0,0.0,0.0,0.0,0.0,0.0,0.0,0.0,0.0,0.0,0.0,0.0,0.0,1.3395,1.3547,1.3628,1.3741,1.3808,1.3894,1.3934,1.3894,1.3941,1.4138,0.0,0.0,0.0,0.0,0.0,0.0,0.0,0.0,0.0,0.0,0.0,0.0,0.0,0.0,0.0,0.0,0.0,0.0,0.0,0.0,0.0,0.0,0.0,0.0,0.0,0.0,0.0,0.0,0.0,0.0,0.0,0.0,0.0,0.0,0.0,0.0,0.0,0.0,0.0,0.0,0.0,0.0,0.0,0.0,0.0,0.0,0.0,0.0,0.0,0.0,0.0,0.0,0.0,0.0,0.0,0.0,0.0,0.0,0.0,0.0,-1.0638,0.0,0.0,0.0,0.0,0.0,0.0,0.0,0.0,0.0,0.0,0.0,0.0,0.0,0.0,0.0,0.0,0.0,0.0,0.0,0.0,0.0,0.0,0.0,0.0,0.0,0.0,0.0,0.0,0.0,0.0,0.0,0.0,0.0,0.0,0.0,0.0,0.0,0.0,0.0,0.0,0.0,1.3254,1.3357,1.3459,1.3493,1.356,1.3581,1.3615,1.356,1.356,1.3715,1.3648,0.0,0.0,0.0,0.0,0.0,0.0,0.0,0.0,0.0,0.0,0.0,0.0,0.0,0.0,0.0,0.0,0.0,0.0,0.0,0.0,0.0,0.0,0.0,0.0,0.0,0.0,0.0,0.0,0.0,0.0,0.0,0.0,0.0,0.0,0.0,0.0,0.0,0.0,0.0,0.0,0.0,0.0,0.0,0.0,0.0,0.0,0.0,0.0,0.0,0.0,0.0,0.0,0.0,0.0,0.0,0.0,0.0,0.0,0.0,0.0,-1.0546,0.0,0.0,0.0,0.0,0.0,0.0,0.0,0.0,0.0,0.0,0.0,0.0,0.0,0.0,0.0,0.0,0.0,0.0,0.0,0.0,0.0,0.0,0.0,0.0,0.0,0.0,0.0,0.0,0.0,0.0,0.0,0.0,0.0,0.0,0.0,0.0,0.0,0.0,0.0,0.0,1.3047,1.3341,1.3574,1.3622,1.3657,1.3692,1.3727,1.337,1.322,1.3357,1.3254,0.0,0.0,0.0,0.0,0.0,0.0,0.0,0.0,0.0,0.0,0.0,0.0,0.0,0.0,0.0,0.0,0.0,0.0,0.0,0.0,0.0,0.0,0.0,0.0,0.0,0.0,0.0,0.0,0.0,0.0,0.0,0.0,0.0,0.0,0.0,0.0,0.0,0.0,0.0,0.0,0.0,0.0,0.0,0.0,0.0,0.0,0.0,0.0,0.0,0.0,0.0,0.0,0.0,-1.0832,-1.1207,-1.1406,-1.1554,-1.1684,-1.1709,-1.1362,-1.1086,-1.0878,0.0,0.0,0.0,0.0,0.0,0.0,0.0,0.0,0.0,0.0,0.0,0.0,0.0,0.0,0.0,0.0,0.0,0.0,0.0,0.0,0.0,0.0,0.0,0.0,0.0,1.089,1.078,0.0,0.0,0.0,0.0,0.0,0.0,0.0,0.0,0.0,0.0,0.0,0.0,1.2937,1.3399,1.3814,1.3902,1.3853,1.3828,1.3865,1.3214,1.2873,1.2955,1.2803,1.2768,0.0,0.0,0.0,0.0,0.0,0.0,0.0,0.0,0.0,0.0,0.0,0.0,0.0,0.0,0.0,0.0,0.0,0.0,0.0,0.0,0.0,0.0,0.0,0.0,0.0,0.0,0.0,0.0,0.0,0.0,0.0,0.0,-0.5112,-0.5414,0.0,0.0,0.0,0.0,0.0,0.0,0.0,0.0,0.0,0.0,0.0,0.0,0.0,-0.8313,-0.906,-0.9436,-0.9894,-1.0481,-1.1237,-1.1661,-1.1829,-1.2389,-1.2653,-1.2685,-1.2189,0.0,-1.1365,-1.1051,0.0,0.0,0.0,0.0,0.0,0.0,0.0,0.0,0.0,0.0,0.0,0.0,0.0,0.0,0.0,0.0,0.0,0.0,0.0,0.0,0.0,0.0,1.1712,1.1293,1.1228,1.1234,0.0,1.1425,1.1904,1.2364,1.2554,0.0,0.0,0.0,0.0,0.0,0.0,0.0,1.3085,1.3572,1.3971,1.3971,1.367,1.3431,1.3406,1.2817,1.2473,1.2484,1.2365,1.2354,1.2484,1.2544,0.0,0.0,0.0,0.0,0.0,0.0,0.0,0.0,0.0,0.0,0.0,0.0,0.0,0.0,0.0,0.0,0.0,0.0,0.0,0.0,0.0,0.0,0.0,0.0,0.0,0.0,0.0,0.0,0.0,-0.4473,-0.482,-0.5074,-0.5515,-0.588,0.0,0.0,0.0,0.0,0.0,0.0,0.0,0.0,0.0,-0.7578,-0.8059,-0.8552,-0.9034,-0.9852,-1.0421,-1.0799,-1.1492,-1.1873,-1.2001,-1.233,-1.2508,-1.2615,-1.2375,-1.2169,-1.2004,-1.1272,-1.1152,-1.1342,0.0,0.0,0.0,0.0,-1.018,-0.947,-0.9799,-0.6876,0.0,0.101,0.0,0.0,0.0,0.0,0.0,0.0,0.0,0.0,0.0,0.0,1.1763,1.1507,1.1236,1.1067,1.1132,1.1342,1.1577,0.0,1.2174,1.2246,1.2246,0.0,0.0,0.0,0.0,1.3027,1.3276,1.383,1.4185,1.4185,1.3935,1.3668,1.339,1.2739,1.2215,1.1968,1.1872,1.1847,1.1957,1.2066,1.2138,0.0,0.0,0.0,0.0,0.0,0.0,0.0,0.0,0.0,0.0,0.0,0.0,0.0,0.0,0.0,0.0,0.0,0.0,0.0,0.0,0.0,0.0,0.0,0.0,0.0,0.0,0.0,0.0,-0.4334,-0.463,-0.4891,-0.5407,-0.5832,0.0,0.0,0.0,0.0,0.0,0.0,-0.6905,-0.7087,-0.7329,-0.7608,-0.8213,-0.8758,-0.9137,-1.0114,-1.0729,-1.1014,-1.1511,-1.1799,-1.1957,-1.2066,-1.2174,-1.2258,-1.233,-1.2365,-1.2342,-1.1531,-1.1271,-1.133,-1.0755,-1.0456,-1.0302,-1.004,-0.9264,-0.8365,-0.836,-0.5022,-0.0274,0.2852,0.0,1.3044,1.5477,0.0,0.0,0.0,0.0,1.4826,1.3789,1.2812,1.204,1.1761,1.1238,1.0852,1.102,1.0992,1.1105,0.0,1.1653,1.176,1.1856,0.0,0.0,0.0,0.0,1.308,1.341,1.3978,1.4326,1.4326,1.4114,1.379,1.3298,1.2593,1.1992,1.1501,1.1404,1.1367,1.1431,1.159,1.1664,1.1726,0.0,0.0,0.0,0.0,0.0,0.0,0.0,0.0,0.0,0.0,0.0,0.0,0.0,0.0,0.0,0.0,0.0,0.0,0.0,0.0,0.0,0.0,0.0,0.0,0.0,0.0,0.0,0.0,0.0,-0.4958,-0.5372,0.0,0.0,0.0,0.0,-0.668,-0.6803,-0.6975,-0.7162,-0.7359,-0.7598,-0.7878,-0.8217,-0.8767,-0.9561,-0.9934,-1.0412,-1.1014,-1.1223,-1.1394,-1.1553,-1.1737,-1.1847,-1.1945,-1.2138,-1.2174,-1.2113,-1.2056,-1.1852,-1.1535,-1.0902,-1.0263,-0.957,-0.8922,-0.785,-0.6453,-0.4704,-0.2294,0.0996,0.6771,1.2643,1.748,1.7566,1.7454,0.0,0.0,1.6255,1.5742,1.4397,1.3656,1.2989,1.2105,1.1398,1.0857,1.0687,1.0467,1.0467,0.0,1.1132,1.1356,1.1754,0.0,1.1959,1.2457,1.2989,1.3366,1.3388,1.3989,1.4387,1.4387,1.3936,1.3423,1.286,1.2292,1.1691,1.1147,1.0992,1.0916,1.0954,1.1142,1.1217,1.1255,1.1442,0.0,0.0,0.0,0.0,0.0,0.0,0.0,0.0,0.0,0.0,0.0,0.0,0.0,0.0,0.0,0.0,0.0,0.0,0.0,0.0,0.0,0.0,0.0,0.0,0.0,0.0,0.0,0.0,-0.4902,-0.5339,0.0,-0.6001,-0.6195,-0.6343,-0.6542,-0.6484,-0.6549,-0.6804,-0.7021,-0.7229,-0.7515,-0.8172,-0.8702,-0.9069,-0.9724,-1.0165,-1.0418,-1.0601,-1.0753,-1.0791,-1.1105,-1.1292,-1.1468,-1.1653,-1.1822,-1.1881,-1.1856,-1.1686,-1.1345,-1.0687,-0.9855,-0.8827,-0.771,-0.6037,-0.4092,-0.2261,0.1501,0.6413,1.2016,1.5754,1.8078,1.8128,1.847,1.8739,1.8252,1.761,1.6732,1.5323,1.4063,1.2901,1.1923,1.1132,1.0495,1.0157,1.0099,1.0155,1.0277,1.0704,1.1206,1.1578,1.1743,1.1948,1.2416,1.2664,1.295,1.3331,1.3601,1.38,1.3905,1.3401,1.2884,1.2381,1.184,1.1295,1.0805,1.0736,1.0697,1.0697,1.084,1.0867,1.0867,1.1105,1.1303,0.0,0.0,0.0,0.0,0.0,0.0,0.0,0.0,0.0,0.0,0.0,0.0,0.0,0.0,0.0,0.0,0.0,0.0,0.0,0.0,0.0,0.0,0.0,0.0,0.0,0.0,-0.4655,-0.4922,-0.5281,-0.5633,-0.592,-0.5996,-0.6119,-0.6328,-0.6277,-0.6324,-0.6471,-0.6786,-0.7053,-0.7319,-0.7996,-0.8467,-0.8699,-0.9274,-0.9616,-0.9725,-0.9922,-0.9991,-1.0021,-1.0408,-1.0677,-1.0916,-1.1207,-1.1452,-1.1612,-1.1608,-1.1437,-1.1094,-1.0467,-0.9491,-0.8204,-0.6706,-0.4546,-0.1871,0.168,0.6322,1.1322,1.5165,1.7165,1.8154,1.8428,1.9193,1.9926,1.9509,1.8916,1.7967,1.6215,1.4538,1.2971,1.17,1.0791,1.0079,0.9695,0.968,0.9769,0.9778,1.0358,1.0918,1.1344,1.1464,1.1698,1.2223,1.2338,1.2529,1.2957,1.3094,1.319,1.3286,1.2882,1.2438,1.1984,1.1424,1.0944,1.0458,1.039,1.039,1.039,1.0457,1.0534,1.0572,1.085,1.1002,1.1019,0.0,0.0,0.0,0.0,0.0,0.0,0.0,0.0,0.0,0.0,0.0,0.0,0.0,0.0,0.0,0.0,0.0,0.0,0.0,0.0,0.0,0.0,0.0,-0.4043,-0.4311,-0.4642,-0.4954,-0.5149,-0.541,-0.5744,-0.5793,-0.5836,-0.5976,-0.6173,-0.6289,-0.6289,-0.6719,-0.707,-0.737,-0.7704,-0.8077,-0.8439,-0.8594,-0.8765,-0.8975,-0.9096,-0.9208,-0.9279,-0.9688,-1.0011,-1.0312,-1.0753,-1.1094,-1.1282,-1.1373,-1.1174,-1.085,-1.0312,-0.9213,-0.7762,-0.5862,-0.3288,0.0252,0.7057,1.1827,1.5053,1.5892,1.6941,1.7966,1.8549,1.9617,2.0555,2.0301,2.0065,1.9364,1.7036,1.507,1.3277,1.1475,1.0419,0.9701,0.9292,0.9249,0.9344,0.9525,0.9981,1.0484,1.0897,1.1006,1.1186,1.1765,1.1977,0.0,1.2274,1.248,1.2676,1.2657,1.2347,1.1992,1.1572,1.1068,1.056,1.0107,1.0019,0.998,0.998,1.0049,1.0166,1.0283,1.0534,1.0677,1.0677,0.0,0.0,0.0,0.0,0.0,0.0,0.0,0.0,0.0,0.0,0.0,0.0,0.0,0.0,0.0,0.0,0.0,0.0,0.0,0.0,0.0,0.0,-0.4144,-0.4219,-0.4388,-0.4509,-0.4547,-0.4596,-0.4714,-0.4923,-0.5091,-0.5226,-0.5275,-0.548,-0.5653,-0.5841,-0.605,-0.6258,-0.6592,-0.6985,-0.7286,-0.7558,-0.7724,-0.7889,-0.8054,-0.8144,-0.8308,-0.8504,-0.8901,-0.9341,-0.9825,-1.0302,-1.0649,-1.0867,-1.1002,-1.0812,-1.0428,-1.003,-0.8964,-0.739,-0.5402,-0.1178,0.4173,0.8228,1.1276,1.3628,1.497,1.6144,1.7289,1.8711,1.9957,2.0893,2.0926,2.0433,1.9433,1.7438,1.5543,1.3802,1.2231,1.1097,1.0214,0.9564,0.9352,0.924,0.913,0.9346,0.9784,1.0589,1.0706,1.0797,1.1108,1.1276,0.0,1.1578,1.1728,1.1809,1.1702,1.1352,1.099,1.0676,1.0233,0.9953,0.9802,0.9793,0.9802,0.9802,0.9793,0.9902,1.0098,1.0196,1.0341,0.0,0.0,0.0,0.0,0.0,0.0,0.0,0.0,0.0,0.0,0.0,0.0,0.0,0.0,0.0,0.0,0.0,0.0,0.0,0.0,0.0,0.0,-0.4104,-0.388,-0.3832,-0.4012,-0.4144,-0.4096,-0.4096,-0.414,-0.4316,-0.4447,-0.4574,-0.4613,-0.4787,-0.4966,-0.5236,-0.5404,-0.5615,-0.5953,-0.6227,-0.6526,-0.6768,-0.6894,-0.7021,-0.7182,-0.7231,-0.7433,-0.7807,-0.817,-0.8659,0.0,-0.9677,-1.0079,-1.0438,-1.0567,-1.0448,0.0,0.0,0.0,0.0,0.0,-0.0089,0.4651,0.7353,0.9646,1.1619,1.3215,1.4701,1.6241,1.8184,1.9973,2.1366,2.1525,2.1161,2.0158,1.788,1.5898,1.4087,1.2329,1.1095,1.0075,0.936,0.9063,0.8849,0.8543,0.8635,0.0,0.9517,0.9829,1.0087,1.0344,1.0395,1.0549,1.0812,1.0964,1.0972,1.0833,1.0545,1.025,1.0009,0.9617,0.0,0.0,0.0,0.9395,0.9395,0.9506,0.0,0.0,0.0,1.0049,1.0157,0.0,0.0,0.0,1.0725,1.0764,0.0,0.0,0.0,0.0,0.0,0.0,0.0,0.0,0.0,0.0,0.0,0.0,0.0,0.0,0.0,0.0,-0.3744,-0.3432,-0.3126,-0.3344,-0.352,-0.3565,-0.3565,-0.3612,-0.3748,-0.3748,-0.3832,-0.3957,-0.4092,-0.4268,-0.4487,0.0,0.0,0.0,0.0,-0.5761,-0.6056,-0.6099,-0.6221,-0.6392,-0.6392,-0.6641,-0.714,-0.7467,-0.7972,-0.8643,-0.9082,-0.9511,-0.9956,-1.0141,-1.0085,-0.9803,-0.9412,-0.8585,-0.7077,-0.3243,0.0,0.2812,0.509,0.0,0.0,1.0994,1.2974,1.5108,1.7434,1.9888,2.191,2.2166,2.198,2.1104,1.8358,1.6192,1.4189,1.2101,1.0795,0.9758,0.9009,0.8658,0.8353,0.7942,0.7942,0.8062,0.8062,0.8633,0.9152,0.9406,0.951,0.9614,0.9991,1.0198,1.0202,1.006,0.0,0.0,0.9392,0.9089,0.8895,0.8935,0.8935,0.8935,0.8935,0.9128,0.9239,0.9239,0.9576,0.9744,0.9774,0.9971,1.0088,1.0088,1.039,1.0544,0.0,0.0,0.0,0.0,0.0,0.0,0.0,0.0,0.0,0.0,0.0,0.0,0.0,0.0,0.0,-0.3788,-0.3388,-0.2987,-0.2546,-0.2455,-0.2544,-0.2862,-0.2815,-0.2726,-0.2771,-0.2862,-0.2993,-0.312,-0.3208,-0.3429,-0.3781,-0.3917,0.0,-0.4583,-0.4845,-0.5106,-0.5318,-0.5534,-0.5663,-0.5707,0.0,0.0,-0.6556,-0.6972,-0.7489,-0.8093,-0.8786,-0.9198,-0.9469,-0.9767,-0.946,-0.8753,-0.8176,-0.7158,-0.5735,-0.3458,-0.1237,0.0889,0.2803,0.4742,0.6736,0.9236,1.1812,1.4617,1.7964,2.0508,0.0,2.2847,2.2216,2.0877,1.8512,1.6347,1.4339,1.2644,1.1314,1.0248,0.9336,0.8671,0.814,0.7659,0.7326,0.7149,0.7149,0.7842,0.8427,0.8633,0.883,0.8981,0.904,0.9354,0.9394,0.8944,0.8973,0.8837,0.849,0.8372,0.8414,0.8496,0.8537,0.8537,0.8537,0.8724,0.8797,0.8797,0.9128,0.9417,0.9567,0.9704,0.9872,1.0019,1.0127,1.0196,0.0,0.0,0.0,0.0,0.0,0.0,0.0,0.0,0.0,0.0,0.0,-0.5936,0.0,0.0,-0.3882,-0.3268,-0.2726,-0.2279,-0.1834,-0.1564,-0.1564,-0.2103,-0.2103,-0.2014,-0.1969,-0.2059,-0.2192,-0.2319,-0.2455,-0.2679,-0.3034,-0.3211,-0.3476,-0.3873,-0.414,-0.4403,-0.4709,-0.4888,-0.5062,-0.5241,-0.541,-0.575,-0.6227,-0.6526,-0.7034,-0.7685,-0.8257,-0.8612,-0.8818,-0.9012,-0.8727,-0.8167,-0.7665,-0.6778,-0.5581,-0.4127,-0.2421,-0.0579,0.1156,0.3039,0.5122,0.7816,1.0883,1.4173,1.78,2.0534,2.2448,2.2921,2.2117,2.0541,1.8209,1.6021,1.4046,1.2385,1.1074,0.9976,0.9099,0.8368,0.7735,0.7306,0.6869,0.6544,0.644,0.6761,0.7182,0.767,0.7877,0.8037,0.8296,0.8443,0.839,0.818,0.814,0.8008,0.7714,0.7753,0.7836,0.7912,0.7953,0.7946,0.7946,0.8193,0.8316,0.8349,0.8683,0.8975,0.9217,0.9417,0.9685,1.0049,1.008,1.0089,0.0,0.0,0.0,0.0,0.0,0.0,0.0,0.0,-0.7955,-0.7454,-0.673,-0.5919,-0.4948,-0.4211,-0.3463,-0.2718,-0.2064,-0.1516,-0.1147,-0.0774,-0.0725,-0.1133,-0.1305,-0.1344,-0.1208,-0.1299,-0.1432,-0.1563,-0.1741,-0.1966,-0.2281,-0.2546,-0.2854,-0.3205,-0.3458,-0.3787,-0.4191,-0.4365,-0.4589,-0.4914,-0.5081,-0.5412,-0.589,-0.6196,-0.6691,-0.7312,-0.7795,-0.8081,-0.8219,-0.823,-0.8049,-0.7711,-0.7289,-0.6637,-0.5811,-0.4834,-0.3448,-0.1783,-0.0167,0.1777,0.3926,0.66,0.9966,1.363,1.7325,2.0206,2.2282,2.2739,2.1842,2.0199,1.7702,1.5473,1.3449,1.1796,1.0517,0.9458,0.8626,0.7889,0.7252,0.682,0.6322,0.5941,0.5837,0.5668,0.5828,0.6756,0.6923,0.7079,0.7557,0.7494,0.7436,0.741,0.7367,0.7222,0.7025,0.7125,0.7245,0.7245,0.7321,0.7356,0.7398,0.7614,0.7787,0.7897,0.8234,0.8529,0.8749,0.9125,0.9521,0.9965,1.0045,1.0122,-1.256,-1.2171,-1.1644,-1.1098,-1.0646,-1.025,0.0,0.0,-0.8047,-0.7484,-0.6509,-0.5483,-0.453,-0.3831,-0.3084,-0.2286,-0.1593,-0.0996,-0.0498,-0.0242,0.0047,0.0331,-0.0183,-0.0537,-0.0492,-0.0537,-0.0626,-0.0805,-0.085,-0.1073,-0.1478,-0.1792,-0.215,-0.2593,-0.3009,-0.3438,-0.3858,-0.4186,-0.4382,-0.4562,-0.489,-0.516,-0.5371,-0.5847,-0.6357,-0.6994,-0.7762,-0.8037,-0.7955,-0.7811,-0.754,-0.7133,-0.6707,-0.6312,-0.5855,-0.4995,-0.3843,-0.2569,-0.106,0.0669,0.2664,0.5528,0.8955,1.2703,1.6698,1.9751,2.1978,2.2569,2.1548,1.972,1.722,1.4844,1.2715,1.1107,0.9961,0.8995,0.7984,0.7354,0.6771,0.6218,0.5618,0.5179,0.5066,0.4791,0.4956,0.6,0.6213,0.6372,0.6544,0.6765,0.6778,0.6482,0.6486,0.6466,0.6331,0.6477,0.6611,0.6611,0.6725,0.6859,0.6956,0.707,0.7238,0.7454,0.7787,0.807,0.8267,0.8921,0.9316,0.9495,0.9915,1.0285,-1.2774,-1.2332,-1.1778,0.0,-1.0769,-1.0205,-0.9681,-0.8854,-0.7982,-0.7239,-0.6373,-0.5392,-0.4209,-0.3416,-0.2573,0.0,-0.0907,-0.0252,0.0202,0.0547,0.0837,0.1083,0.0922,0.0661,0.027,0.0179,0.0089,0.0,-0.0179,-0.0403,-0.0671,-0.0985,-0.1358,-0.1808,-0.2213,-0.2685,-0.3137,-0.363,-0.4028,-0.4405,-0.4734,-0.5102,-0.547,-0.5829,-0.6355,-0.7036,-0.7348,-0.7436,-0.7295,-0.7187,-0.6864,-0.6436,-0.6332,-0.6119,-0.5786,-0.5062,-0.4177,-0.3125,-0.1785,-0.0167,0.1778,0.4446,0.775,1.1463,1.5601,1.8876,2.132,2.2088,2.117,1.9327,1.6639,1.4056,1.1778,1.0195,0.9026,0.809,0.7235,0.6642,0.6109,0.5563,0.5011,0.4512,0.4405,0.4132,0.4132,0.4622,0.5117,0.55,0.5719,0.577,0.5687,0.558,0.5684,0.5722,0.5663,0.5739,0.5825,0.5922,0.6056,0.6142,0.6264,0.6435,0.6647,0.6865,0.716,0.7496,0.7814,0.8321,0.8808,0.9281,0.9681,1.0107,-1.2725,0.0,0.0,-1.1326,-1.0659,-0.994,-0.942,-0.8626,-0.7777,-0.6907,-0.6095,-0.5132,-0.3836,-0.296,-0.2136,-0.1148,-0.0312,0.0364,0.078,0.1185,0.1486,0.169,0.1777,0.1631,0.1122,0.0928,0.0787,0.0741,0.0509,0.0232,0.0,-0.0278,-0.061,-0.1064,-0.1513,-0.1988,-0.2549,-0.309,-0.3652,-0.4174,-0.4552,-0.4996,-0.5508,-0.5945,-0.6406,-0.6894,-0.696,-0.6876,-0.6663,-0.6544,-0.6273,-0.595,-0.6064,-0.6014,-0.5791,-0.534,-0.4622,-0.368,-0.2508,-0.1002,0.0722,0.3137,0.6196,0.9715,1.3848,1.7439,2.0274,2.1004,2.0288,1.8668,1.5749,1.2979,1.0554,0.9051,0.7966,0.7182,0.648,0.5937,0.5391,0.4904,0.4349,0.3904,0.3741,0.3524,0.3413,0.3519,0.4015,0.4567,0.4948,0.4872,0.4766,0.4701,0.4874,0.4957,0.4957,0.5005,0.5091,0.5231,0.5366,0.5501,0.562,0.5836,0.6056,0.627,0.6568,0.6904,0.7269,0.7797,0.8335,0.8984,0.9369,0.9764,0.0,0.0,-1.1578,-1.1074,-1.0344,-0.9666,-0.9106,-0.8249,-0.7278,-0.6421,-0.555,-0.4567,-0.3347,-0.2512,-0.1732,-0.0838,-0.0112,0.0615,0.1174,0.1523,0.1809,0.2123,0.2115,0.2069,0.0,0.1811,0.1559,0.1307,0.1256,0.1056,0.0502,0.0352,0.005,-0.0503,-0.1043,-0.1593,-0.2123,-0.2795,-0.3341,-0.381,-0.4334,-0.4817,-0.5242,-0.6092,-0.6406,-0.6334,-0.66,-0.6431,-0.6,-0.6,-0.595,-0.5795,-0.5795,-0.59,-0.6,-0.5832,-0.5226,-0.4294,-0.3239,-0.2063,-0.0667,0.1379,0.4147,0.7333,1.1182,1.531,1.8741,1.9093,1.8689,1.7483,1.4529,1.1477,0.8847,0.7623,0.6891,0.6308,0.5727,0.5289,0.4732,0.4132,0.3691,0.3299,0.3019,0.2798,0.28,0.2907,0.3072,0.3405,0.4122,0.4244,0.4138,0.3958,0.4049,0.4132,0.4132,0.4316,0.4491,0.4618,0.4753,0.4927,0.5101,0.5236,0.5458,0.5723,0.6056,0.6389,0.6742,0.751,0.8036,0.8323,0.8947,0.9204,0.0,0.0,-1.1267,-1.0592,-0.9925,-0.9204,-0.8461,-0.7551,-0.6632,-0.5655,-0.4838,-0.3962,-0.291,-0.2069,-0.1286,-0.0505,0.0224,0.0842,0.1234,0.1721,0.2093,0.2203,0.24,0.0,0.0,0.0,0.0,0.1666,0.1616,0.1413,0.1059,0.0806,0.0459,0.0,-0.0476,-0.0969,-0.1543,-0.2338,-0.3005,-0.3572,-0.4446,-0.5043,-0.5395,-0.5873,-0.6087,-0.6119,-0.6077,-0.5941,-0.5732,-0.5567,-0.5572,-0.5681,-0.5841,-0.6059,-0.6273,-0.6376,-0.6263,-0.5873,-0.456,-0.3448,-0.2273,-0.0716,0.1408,0.3902,0.6882,0.9591,1.1749,1.2618,1.3309,1.3091,1.002,0.8386,0.7169,0.5725,0.5089,0.4721,0.4343,0.3901,0.3514,0.3183,0.2794,0.2462,0.235,0.2183,0.2183,0.2406,0.291,0.3382,0.363,0.3676,0.3599,0.346,0.3539,0.3656,0.3656,0.3796,0.3928,0.4144,0.4188,0.432,0.4578,0.467,0.4845,0.5106,0.5375,0.5707,0.6105,0.6801,0.7247,0.7532,0.8065,0.8402,0.0,-1.1309,-1.0744,-1.002,-0.9295,-0.8514,-0.7771,-0.6912,-0.5991,-0.5058,-0.4291,-0.3466,-0.2519,-0.1736,-0.1008,-0.0224,0.0444,0.0995,0.1345,0.1775,0.2101,0.2181,0.2408,0.2521,0.0,0.0,0.0,0.194,0.1836,0.1679,0.1312,0.1154,0.0795,0.0271,0.0,-0.0494,-0.1065,-0.1793,-0.2629,-0.3466,-0.4419,-0.5014,-0.5275,-0.554,-0.5663,-0.5673,-0.5614,-0.5508,-0.5403,-0.5352,-0.5462,-0.5677,-0.6005,-0.6327,-0.6707,-0.6972,-0.7187,-0.7182,-0.571,-0.4769,-0.4039,-0.2918,-0.1469,0.0213,0.2216,0.3792,0.5017,0.5713,0.6625,0.6906,0.4867,0.4339,0.42,0.3419,0.3161,0.3118,0.2901,0.2569,0.2291,0.2066,0.1789,0.1568,0.1624,0.1568,0.1681,0.1905,0.2464,0.2874,0.3045,0.3074,0.3036,0.2873,0.3036,0.3129,0.3129,0.3318,0.3481,0.3653,0.3649,0.376,0.3972,0.4052,0.4184,0.4403,0.472,0.5083,0.5476,0.5987,0.6406,0.679,0.7158,0.7498,-1.1217,-1.0592,-0.9961,-0.9309,-0.8461,-0.7711,-0.7133,-0.6273,-0.5344,-0.4574,-0.3855,-0.3079,0.0,0.0,-0.0839,-0.0112,0.0435,0.0968,0.1501,0.1741,0.1943,0.0,0.0,0.0,0.0,0.0,0.0,0.2183,0.0,0.1792,0.1347,0.1291,0.101,0.0449,0.028,-0.0112,-0.0673,-0.1343,-0.2289,-0.3569,-0.4298,-0.4739,-0.4897,-0.5171,-0.523,-0.5069,-0.5069,-0.5069,-0.5128,-0.5242,-0.5517,-0.585,-0.6277,-0.6761,-0.7187,-0.7616,-0.7996,-0.8055,-0.6804,-0.614,-0.5801,-0.5245,-0.448,-0.359,-0.278,-0.1947,-0.1314,-0.1394,-0.1154,-0.0875,-0.0903,-0.0499,0.0054,0.0717,0.1166,0.1449,0.1453,0.1341,0.1118,0.0838,0.0728,0.0673,0.0842,0.101,0.1234,0.1403,0.1625,0.1937,0.241,0.245,0.2415,0.2282,0.2522,0.2672,0.2672,0.2868,0.3066,0.3142,0.3133,0.3216,0.3357,0.3476,0.3565,0.3653,0.4042,0.4447,0.4808,0.5148,0.5597,0.61,0.6268,0.6495,-1.0482,-0.9806,-0.9131,-0.8402,-0.7711,-0.6961,-0.6159,-0.5445,-0.4677,-0.3855,-0.319,-0.2464,0.0,0.0,0.0,0.0054,0.0419,0.0,0.1088,0.1476,0.0,0.1834,0.0,0.2184,0.2184,0.2127,0.0,0.0,0.1852,0.174,0.1515,0.129,0.101,0.0617,0.0224,-0.0168,-0.0673,-0.1624,-0.2462,-0.3241,-0.3855,-0.4353,-0.4625,-0.4901,-0.5007,-0.4956,-0.4956,-0.5069,-0.5242,-0.5462,-0.5786,-0.6277,-0.6864,-0.7391,-0.7925,-0.8349,-0.8778,-0.9047,-0.8718,-0.8125,-0.7475,-0.7346,-0.7231,-0.7143,-0.7091,-0.749,-0.8013,-0.8268,-0.9163,-0.9458,-0.6956,-0.5539,-0.4264,-0.2141,-0.1108,-0.0556,-0.0446,-0.039,-0.0335,-0.0447,-0.0392,-0.028,0.0056,0.0336,0.0617,0.0785,0.1178,0.1564,0.1935,0.1948,0.1911,0.1842,0.1898,0.1967,0.1967,0.2114,0.2276,0.2429,0.247,0.2518,0.2732,0.2771,0.2815,0.2951,0.3351,0.3627,0.3807,0.427,0.4634,0.4956,0.5277,0.555,-0.9806,-0.9079,-0.8448,-0.7711,-0.702,-0.6322,-0.5563,-0.4846,-0.4181,-0.3411,-0.2798,0.0,0.0,0.0,0.0,0.0,0.0,0.0,0.0906,0.1266,0.1492,0.0,0.1734,0.0,0.1792,0.1793,0.1738,0.0,0.1685,0.1572,0.1291,0.1122,0.0842,0.0393,0.0112,-0.0336,-0.0954,-0.1849,-0.2575,-0.3019,-0.3688,-0.4076,-0.4298,-0.4629,-0.4794,-0.4794,0.0,-0.5179,-0.5466,-0.5985,-0.6517,-0.7075,-0.795,-0.8526,-0.8857,-0.9447,-0.9686,-0.9784,-0.9984,-0.9769,-0.9356,-0.8994,-0.9206,-0.9743,-1.0418,-1.1955,-1.3506,-1.3941,-1.4772,-1.4865,-1.1848,-0.9604,-0.7534,-0.5004,-0.3684,-0.2879,-0.2552,-0.2336,-0.2117,-0.1896,-0.1507,-0.1119,-0.0952,-0.0616,-0.0336,-0.0224,0.0224,0.0617,0.0784,0.1213,0.1527,0.1527,0.15,0.1536,0.1536,0.1746,0.1913,0.2008,0.2099,0.219,0.2201,0.2194,0.2284,0.242,0.2521,0.2668,0.2811,0.3295,0.3629,0.3907,0.4288,0.456,-0.9131,-0.8448,-0.7812,-0.7133,-0.6431,-0.5727,-0.5179,-0.4463,-0.3799,-0.3188,0.0,-0.1961,-0.1346,-0.0923,-0.0529,-0.0053,0.0,0.0526,0.0791,0.1018,0.1173,0.1259,0.1382,0.1405,0.1286,0.1459,0.1459,0.129,0.1403,0.1291,0.0898,0.0842,0.0505,-0.0056,-0.0168,-0.0561,-0.1347,-0.213,-0.2631,-0.2961,-0.363,-0.4024,-0.4076,-0.4522,-0.4743,-0.4798,0.0,0.0,-0.589,-0.6736,-0.7451,-0.8175,-0.931,-0.9833,-1.0053,-1.0717,-1.0727,-1.0518,-1.0879,-1.1124,-1.1107,-1.0352,-1.0712,-1.1717,-1.295,-1.5216,-1.7492,-1.8126,-1.8304,-1.7813,-1.558,-1.2872,-1.0124,-0.7835,-0.6425,-0.5437,-0.4856,-0.4429,-0.3996,-0.3503,-0.2726,-0.2173,-0.2068,-0.168,-0.1402,-0.1346,-0.0953,-0.0729,-0.0729,0.0336,0.1066,0.1066,0.1066,0.101,0.101,0.129,0.1472,0.1521,0.1666,0.1707,0.1573,0.1569,0.1658,0.1839,0.163,0.1641,0.1899,0.2295,0.2593,0.2888,0.3231,0.3624,-0.8527,-0.7836,-0.7133,-0.6534,-0.5878,-0.5281,-0.4736,-0.4135,0.0,0.0,-0.2294,-0.168,-0.1065,-0.0692,-0.0306,0.0102,0.0,0.0,0.0,0.0,0.0872,0.0,0.0,0.0,0.0,0.0,0.0,0.0,0.0,0.0842,0.0898,0.0505,0.0056,-0.0561,-0.0898,-0.129,-0.1685,-0.2242,-0.2687,-0.3074,-0.3688,-0.4132,-0.4408,-0.4849,-0.5069,-0.5226,-0.5668,0.0,-0.692,-0.7684,-0.8494,-0.94,-1.0308,-1.0982,-1.1455,-1.1659,-1.1728,-1.1731,-1.1633,-1.1728,-1.1855,-1.139,-1.1981,-1.3119,-1.411,-1.5919,-1.7876,-1.9031,-1.8916,-1.8251,-1.7313,-1.498,-1.2426,-1.0833,-0.9351,-0.8196,-0.7647,-0.6775,-0.5892,-0.5089,-0.4542,-0.3996,-0.34,-0.2792,-0.2348,-0.2015,-0.2128,-0.2298,-0.2298,-0.1008,-0.0112,-0.0112,-0.028,-0.0336,-0.0336,-0.0392,-0.0326,-0.0051,0.0,0.0097,0.0314,0.0313,0.0403,0.0537,0.0652,0.0763,0.0961,0.1495,0.1815,0.1877,0.2208,0.2571,-0.8262,-0.7568,-0.6972,-0.6372,-0.5769,-0.5171,-0.4625,0.0,0.0,0.0,-0.224,-0.1623,-0.1009,0.0,0.0,0.0,0.0,0.0,0.0,0.0,0.0,0.0,0.0,0.0,0.0,0.0,0.0,0.0,0.0,0.0336,0.0449,-0.0168,-0.0617,-0.101,-0.1514,-0.1906,-0.2188,-0.2689,-0.3132,-0.3463,-0.4076,-0.4519,-0.4849,-0.5344,-0.5668,-0.5928,-0.6426,0.0,-0.783,-0.8745,-0.9778,-1.077,-1.1823,-1.2489,-1.2789,-1.2896,-1.2732,-1.2504,-1.2364,-1.2412,-1.2435,-1.2232,-1.2807,-1.3703,-1.4574,-1.614,-1.7822,-1.8926,-1.9175,-1.8897,-1.7904,-1.6514,-1.4945,-1.3259,-1.179,-1.0532,-0.9915,-0.9036,-0.8195,-0.7317,-0.6479,-0.5679,-0.5039,-0.4278,-0.3619,-0.3342,-0.3347,-0.335,-0.335,-0.2734,-0.2178,-0.1849,-0.1906,-0.2017,-0.2184,-0.2293,-0.2172,-0.1822,-0.1461,-0.1216,-0.112,-0.1073,-0.103,-0.085,-0.0593,-0.0373,-0.0143,0.0353,0.0627,0.0851,0.1268,0.1679,-0.8037,-0.7456,-0.6923,-0.6322,-0.5773,-0.523,-0.4684,-0.4079,0.0,0.0,-0.224,-0.1623,-0.1009,0.0,-0.0317,0.0,0.0,0.0,0.0,0.0,0.0,0.0,0.0,0.0,0.0,0.0,0.0,0.0,0.0,0.0,-0.0224,-0.0897,-0.1346,-0.1514,-0.2073,-0.2464,-0.2689,-0.3246,-0.3688,-0.4018,-0.4574,-0.5014,-0.5289,-0.5891,-0.6376,-0.6681,-0.7283,0.0,0.0,-0.9895,-1.1032,-1.2206,-1.3331,-1.3924,-1.4118,-1.4055,-1.3705,-1.3298,-1.3096,-1.3035,-1.3057,-1.2904,-1.3349,-1.4069,-1.4802,-1.6191,-1.7702,-1.8679,-1.9277,-1.9401,-1.8375,-1.7717,-1.6915,-1.5259,-1.4043,-1.3032,-1.2225,-1.1452,-1.0664,-0.9738,-0.8573,-0.7488,-0.6865,-0.5959,-0.521,-0.4929,-0.4714,-0.4498,-0.4498,-0.4498,-0.4281,-0.3855,-0.3524,-0.3471,-0.3691,-0.3779,-0.3613,-0.329,-0.2697,-0.2361,-0.2284,-0.2239,-0.2152,-0.1971,-0.1701,-0.1416,-0.1142,-0.0841,-0.0514,-0.0213,0.0276,0.0672,-0.7883,-0.73,-0.6825,-0.6337,-0.5896,-0.5403,-0.4798,0.0,0.0,-0.2856,-0.224,-0.1623,-0.1009,-0.06,-0.0319,0.0,0.0,0.0,0.0,0.0,0.0,0.0,0.0,0.0,0.0,0.0,0.0,0.0,0.0,0.0,-0.101,-0.1456,-0.1847,-0.2128,-0.2685,-0.3132,-0.3302,-0.3744,-0.419,-0.4632,-0.5066,-0.55,-0.5946,-0.6549,-0.7025,-0.7439,-0.8043,0.0,0.0,-1.1053,-1.2216,-1.3399,-1.4273,-1.4923,-1.5379,-1.4661,-1.4546,-1.4489,-1.3667,-1.36,-1.3807,-1.3332,-1.3674,-1.4362,-1.5006,-1.6255,-1.7732,-1.8783,-1.9257,-1.9415,-1.9345,-1.8598,-1.7599,-1.662,-1.635,-1.6003,-1.497,-1.4114,-1.3201,-1.205,-1.0847,-0.9709,-0.8795,-0.787,-0.7084,-0.6661,-0.6333,-0.6122,-0.6023,-0.6023,-0.6023,-0.6086,-0.4992,-0.4226,-0.4177,-0.4281,-0.4137,-0.3776,-0.3405,-0.3088,-0.2907,-0.2726,-0.2595,-0.2415,-0.219,-0.2007,-0.1994,-0.1634,-0.1389,-0.1173,-0.0883,-0.0449,-0.7984,-0.7461,-0.6987,-0.6445,-0.6,-0.5559,-0.4956,0.0,-0.363,-0.2963,-0.2293,-0.1623,-0.1009,-0.061,-0.0327,0.0,0.0,0.0,0.0,0.0,0.0,0.0,0.0,0.0,0.0,0.0,0.0,0.0,0.0,0.0,-0.2074,-0.224,-0.2464,-0.274,-0.3352,-0.3741,-0.3907,-0.4349,-0.4794,-0.5238,-0.5664,-0.6154,-0.6707,-0.7241,-0.7771,-0.8296,-0.8883,0.0,0.0,-1.1967,-1.3151,-1.4579,-1.5167,-1.5816,-1.6239,-1.5435,-1.5195,-1.5173,-1.4377,-1.4316,-1.4552,-1.4479,-1.4844,-1.5254,-1.5293,-1.6374,-1.777,-1.8756,-1.9323,-1.9647,-1.9615,-1.9054,-1.8528,-1.8666,-1.8395,-1.7971,-1.7556,-1.666,-1.5624,-1.4485,-1.3211,-1.1953,-1.0997,-0.9906,-0.9003,-0.8567,-0.814,-0.7876,-0.7723,-0.7541,-0.7407,-0.7459,-0.6376,-0.5545,-0.5434,-0.5362,-0.5195,-0.4797,-0.4432,-0.4088,-0.3873,-0.3649,-0.3432,-0.3167,-0.3061,-0.2892,-0.2706,-0.2526,-0.2306,-0.2078,-0.1764,-0.14,-0.7984,-0.7568,-0.7149,-0.6598,-0.6159,-0.5723,0.0,0.0,-0.3685,-0.3016,-0.2293,-0.1623,-0.1065,-0.0673,-0.0334,0.0,0.0,0.0,0.0,0.0,0.0,0.0,0.0,0.0,0.0,0.0,0.0,0.0,0.0,0.0,0.0,-0.3023,-0.319,-0.3352,-0.391,-0.4298,-0.4508,-0.4948,-0.5449,-0.5946,-0.6268,-0.675,-0.7348,-0.7925,-0.8508,-0.9093,0.0,0.0,0.0,-1.2749,-1.3951,-1.5459,-1.5989,-1.6513,-1.6869,-1.607,-1.5815,-1.5774,-1.5101,-1.5051,-1.5351,-1.5529,-1.5853,-1.6139,-1.6009,-1.6738,-1.7786,-1.872,-1.943,-1.9894,-1.9818,-1.9601,-1.9497,-1.9956,-1.9893,-1.9663,-1.9441,-1.8716,-1.7774,-1.6695,-1.5381,-1.4122,-1.3094,-1.199,-1.1081,-1.0519,-0.9926,-0.9511,-0.9315,-0.8905,-0.8623,-0.8623,-0.7854,-0.7127,-0.6606,-0.6436,-0.6218,-0.58,-0.5358,-0.4983,-0.4797,-0.4526,-0.422,-0.3961,-0.394,-0.3762,-0.3474,-0.3397,-0.3255,-0.2972,-0.2654,-0.2348,-0.7883,-0.7521,-0.7203,-0.6815,-0.6327,-0.5837,0.0,0.0,-0.3799,-0.3072,-0.2293,-0.1679,-0.1178,-0.0729,-0.0336,-0.0224,0.0,0.0,0.0,0.0,0.0,0.0,0.0,0.0,0.0,0.0,0.0,0.0,0.0,0.0,0.0,-0.3747,-0.3965,-0.3965,-0.4467,-0.4904,-0.5277,-0.5609,-0.61,-0.6701,-0.6972,-0.7348,-0.7925,-0.8508,-0.9086,0.0,0.0,0.0,0.0,-1.3511,-1.4619,-1.5931,-1.6581,-1.6987,-1.7213,-1.6447,-1.6373,-1.6474,-1.5741,-1.5844,-1.6311,-1.6279,-1.6508,-1.6853,-1.7195,-1.7425,-1.779,-1.8651,-1.9538,-2.0171,-2.0025,-2.0287,-2.0465,-2.0018,-2.0702,-2.1278,-2.0467,-2.0113,-1.9645,-1.8493,-1.7223,-1.6028,-1.4947,-1.4046,-1.3212,-1.2464,-1.1645,-1.0983,-1.0699,-1.0094,-0.9694,-0.9694,-0.9565,-0.8912,-0.7605,-0.7314,-0.7025,-0.6708,-0.6106,-0.5755,-0.568,-0.5231,-0.4923,-0.4801,-0.467,-0.4526,-0.4409,-0.4316,-0.4097,-0.3793,-0.3627,-0.3236,-0.7777,-0.7461,-0.709,-0.6756,-0.6327,-0.5891,-0.534,0.0,-0.3904,-0.3186,-0.246,-0.1792,-0.1178,-0.0729,-0.0336,-0.0224,-0.0112,0.0,0.0,0.0,0.0,0.0,0.0,0.0,0.0,0.0,0.0,0.0,0.0,0.0,0.0,-0.4245,-0.4467,-0.4467,-0.5018,-0.5508,-0.5932,-0.6327,-0.6761,-0.7246,-0.7681,-0.8103,-0.8508,-0.9093,0.0,0.0,0.0,0.0,0.0,-1.3568,-1.4722,-1.6098,-1.6635,-1.7278,-1.7752,-1.7002,-1.6921,-1.7062,-1.6308,-1.6454,-1.7021,-1.749,-1.7882,-1.8308,-1.8994,-1.8515,-1.7983,-1.9179,-1.9846,-2.0194,-2.0194,-2.0263,-2.0378,-2.0604,-2.1118,-2.1544,-2.1493,-2.1424,-2.1061,-2.0064,-1.8987,-1.7901,-1.6824,-1.5545,-1.4431,-1.374,-1.2692,-1.19,-1.162,-1.1123,-1.0738,-1.0611,-1.0252,-0.9612,-0.8557,-0.8261,-0.7983,-0.7524,-0.7032,-0.6634,-0.6392,-0.6007,-0.5782,-0.5686,-0.5481,-0.5398,-0.54,-0.5112,-0.4736,-0.4294,-0.4239,-0.3904,0.0,-0.73,-0.7031,-0.6603,-0.6218,0.0,0.0,0.0,-0.3849,-0.3241,-0.2516,-0.1847,-0.1402,-0.0842,-0.0449,-0.028,-0.0112,0.0,0.0,0.0,0.0,0.0,0.0,0.0,0.0,0.0,0.0,0.0,0.0,0.0,0.0,-0.4684,-0.5014,-0.5234,-0.5618,-0.605,-0.6539,-0.6923,-0.7359,-0.7842,-0.8262,-0.8679,-0.9145,-0.9666,0.0,0.0,0.0,0.0,0.0,-1.3882,-1.4882,-1.6104,-1.667,-1.734,-1.7885,-1.7201,-1.7279,-1.7591,-1.6886,-1.706,-1.7679,-1.8394,-1.9001,-1.9593,-2.0113,-1.9529,-1.8818,-1.9548,-1.9962,-2.0187,-2.0307,-2.0309,-2.0347,-2.067,-2.1313,-2.1866,-2.1914,-2.2171,-2.217,-2.1313,-2.0139,-1.8945,-1.7941,-1.653,-1.5347,-1.4708,-1.3634,-1.2843,-1.2604,-1.1991,-1.1506,-1.136,-1.1005,-1.044,-0.9721,-0.9157,-0.8656,-0.825,-0.7773,-0.7349,-0.7014,-0.6683,-0.6476,-0.643,-0.6298,-0.624,-0.6262,-0.5837,-0.5445,-0.5117,-0.4897,-0.4567,0.0,0.0,0.0,0.0,0.0,0.0,0.0,0.0,0.0,-0.3186,-0.2517,-0.1903,-0.1628,-0.1122,-0.0673,-0.0449,0.0,0.0,0.0,0.0,0.0,0.0,0.0,0.0,0.0,0.0,0.0,0.0,0.0,0.0,0.0,-0.512,-0.5605,-0.6209,-0.6263,-0.6588,-0.7139,-0.7408,-0.7895,-0.8421,-0.8725,-0.9138,-0.9666,-1.019,0.0,0.0,0.0,0.0,0.0,-1.427,-1.5103,-1.6065,-1.6577,-1.719,-1.771,-1.7168,-1.7446,-1.8062,-1.7501,-1.7787,-1.8498,-1.9182,-1.9995,-2.07,-2.0701,-2.0398,-2.0061,-1.9836,-1.9933,-2.0135,-2.0332,-2.0407,-2.0389,-2.0318,-2.1344,-2.2231,-2.1879,-2.2473,-2.2845,-2.2126,-2.0705,-1.9311,-1.838,-1.7112,-1.6031,-1.5438,-1.4507,-1.3778,-1.357,-1.2697,-1.2079,-1.197,-1.1726,-1.1404,-1.0992,-0.9981,-0.9199,-0.8797,-0.8349,-0.7938,-0.7565,-0.7231,-0.7088,-0.7089,-0.715,-0.7075,-0.6894,-0.6488,-0.6263,-0.6263,-0.5664,-0.534,0.0,0.0,0.0,0.0,0.0,0.0,0.0,0.0,0.0,0.0,0.0,0.0,0.0,0.0,0.0,0.0,0.0,0.0,0.0,0.0,0.0,0.0,0.0,0.0,0.0,0.0,0.0,0.0,0.0,0.0,0.0,-0.5391,-0.5937,-0.6539,-0.6972,-0.7295,-0.7563,-0.8096,-0.8521,-0.885,-0.9354,-0.9718,-1.0095,-1.0659,0.0,0.0,0.0,0.0,-1.3669,-1.4301,-1.5118,-1.599,-1.6563,-1.7171,-1.7691,-1.7543,-1.8009,-1.8656,-1.8465,-1.9155,-2.0234,-2.1065,-2.1488,-2.1653,-2.1554,-2.0877,-2.0243,-2.047,-2.0289,-2.0073,-2.0276,-2.0402,-2.0468,-2.039,-2.1473,-2.2435,-2.2098,-2.239,-2.2536,-2.1888,-2.0617,-1.939,-1.8623,-1.7484,-1.6483,-1.5986,-1.5021,-1.4239,-1.3918,-1.3497,-1.3079,-1.2719,-1.2413,-1.2018,-1.1468,-1.0629,-0.9942,-0.9421,-0.8999,-0.861,-0.8201,-0.787,-0.7752,-0.7929,-0.8017,-0.7936,-0.7623,-0.732,-0.7085,-0.6864,-0.6539,-0.6159,-0.6014,-0.6064,-0.6064,0.0,0.0,0.0,0.0,0.0,0.0,0.0,0.0,0.0,0.0,0.0,0.0,0.0,0.0,0.0,0.0,0.0,0.0,0.0,0.0,0.0,0.0,0.0,0.0,0.0,0.0,0.0,0.0,-0.5743,-0.6284,-0.6871,-0.7287,-0.7644,-0.8043,-0.8527,-0.8949,-0.9263,-0.9777,-1.019,-1.0557,-1.1116,-1.1678,0.0,0.0,0.0,-1.3894,-1.4558,-1.5223,-1.5914,-1.6369,-1.7016,-1.7668,-1.7586,-1.8293,-1.9213,-1.9153,-2.0153,-2.153,-2.2252,-2.2508,-2.2562,-2.2738,-2.2011,-2.1168,-2.129,-2.0909,-2.0555,-2.0797,-2.0643,-2.0551,-2.09,-2.187,-2.2621,-2.2329,-2.2576,-2.2555,-2.1615,-2.035,-1.9286,-1.8751,-1.7654,-1.6712,-1.6292,-1.555,-1.4923,-1.4599,-1.4246,-1.3888,-1.3509,-1.3101,-1.2626,-1.2054,-1.1431,-1.0715,-0.9981,-0.9518,-0.9088,-0.8692,-0.8607,-0.8629,-0.8827,-0.8813,-0.8679,-0.8514,-0.8096,-0.7788,-0.7568,-0.7246,-0.6815,-0.574,-0.5786,-0.5786,-0.5407,-0.5183,0.0,0.0,0.0,0.0,0.0,0.0,0.0,0.0,0.0,0.0,0.0,0.0,0.0,0.0,0.0,0.0,0.0,0.0,0.0,0.0,0.0,0.0,0.0,0.0,0.0,0.0,-0.6125,-0.653,-0.7098,-0.734,-0.7764,-0.8339,-0.8808,-0.9245,-0.96,-1.0072,-1.0565,-1.1023,-1.1528,-1.2076,0.0,0.0,0.0,-1.4362,-1.4915,-1.5445,-1.592,-1.6269,-1.6928,-1.7617,-1.7534,-1.8417,-1.974,-1.9992,-2.1104,-2.2545,-2.3099,-2.3292,-2.3388,-2.3766,-2.3295,-2.2554,-2.2282,-2.1749,-2.1334,-2.1606,-2.1237,-2.0967,-2.1718,-2.247,-2.2951,-2.2756,-2.2857,-2.2621,-2.1441,-2.0129,-1.9087,-1.8691,-1.774,-1.691,-1.6575,-1.6145,-1.5724,-1.5389,-1.4954,-1.4564,-1.4246,-1.3756,-1.3216,-1.2638,-1.2174,-1.1479,-1.0544,-0.9981,-0.9545,-0.9142,-0.9257,-0.946,-0.9637,-0.9416,-0.9316,-0.9263,-0.8791,-0.8427,-0.8275,-0.7842,-0.7359,-0.5407,-0.5297,-0.5234,-0.5297,-0.5128,0.0,0.0,0.0,0.0,0.0,0.0,0.0,0.0,0.0,0.0,0.0,0.0,0.0,0.0,0.0,0.0,0.0,0.0,0.0,0.0,0.0,0.0,0.0,0.0,0.0,0.0,-0.6178,-0.653,-0.7098,-0.734,-0.7717,-0.8228,-0.8834,-0.9326,-0.9631,-1.042,-1.1023,-1.1427,-1.1977,-1.2461,0.0,0.0,-1.4129,-1.4812,-1.5311,-1.58,-1.6269,-1.6723,-1.7096,-1.7481,-1.7706,-1.8796,-2.0384,-2.2192,-2.293,-2.3156,-2.3883,-2.3958,-2.3812,-2.379,-2.3885,-2.3939,-2.3671,-2.2841,-2.2085,-2.235,-2.2462,-2.2561,-2.2768,-2.3405,-2.3928,-2.3736,-2.3011,-2.2281,-2.1793,-2.0119,-1.8709,-1.8405,-1.7934,-1.7462,-1.7126,-1.6773,-1.6405,-1.6024,-1.5652,-1.524,-1.4763,-1.4259,-1.3756,-1.3148,-1.2603,-1.2029,-1.1431,-1.0649,-1.0003,-0.9614,-0.9634,-0.9703,-0.9873,-0.9875,-0.9784,-0.9562,-0.9211,-0.8956,-0.8699,-0.8275,-0.7842,-0.5238,-0.5128,-0.5073,-0.5018,0.0,-0.4684,-0.419,0.0,0.0,0.0,0.0,0.0,0.0,0.0,0.0,0.0,0.0,0.0,0.0,0.0,0.0,0.0,0.0,0.0,0.0,0.0,0.0,0.0,0.0,0.0,0.0,0.0,-0.6734,-0.7197,-0.7313,-0.7486,-0.782,-0.8542,-0.922,-0.9792,-1.045,-1.1079,-1.1628,-1.2175,-1.2657,-1.316,0.0,-1.4466,-1.5051,-1.5691,-1.6219,-1.665,-1.6989,-1.7337,-1.78,-1.8934,-2.0147,-2.1384,-2.295,-2.3655,-2.4002,-2.4537,-2.4635,-2.4531,-2.4659,-2.4493,-2.4257,-2.4356,-2.3565,-2.2757,-2.3125,-2.3015,-2.299,-2.3564,-2.3958,-2.4151,-2.403,-2.3543,-2.2773,-2.1578,-2.0436,-1.9451,-1.8751,-1.8316,-1.7945,-1.7636,-1.7327,-1.7002,-1.6591,-1.6188,-1.5739,-1.5285,-1.4721,-1.4149,-1.3529,-1.2988,-1.2246,-1.1282,-1.0833,-1.0574,-1.0407,-1.0377,-1.0474,-1.0656,-1.0375,-1.0205,-1.0095,-0.9621,-0.9263,-0.9008,-0.8699,-0.8221,-0.5069,-0.5014,-0.4963,-0.4688,0.0,-0.4577,-0.4132,0.0,0.0,0.0,0.0,0.0,0.0,0.0,0.0,0.0,0.0,0.0,0.0,0.0,0.0,0.0,0.0,0.0,0.0,0.0,0.0,0.0,0.0,0.0,0.0,0.0,-0.6877,-0.721,-0.7227,-0.737,-0.7607,-0.828,-0.9059,-0.9899,-1.0525,-1.12,-1.1927,-1.2421,-1.2949,-1.3409,-1.4186,-1.4743,-1.5289,-1.5957,-1.6491,-1.696,-1.7199,-1.7705,-1.8453,-2.0034,-2.1212,-2.2177,-2.3241,-2.3952,-2.4523,-2.495,-2.5142,-2.5259,-2.5429,-2.4974,-2.4471,-2.4676,-2.4062,-2.3409,-2.385,-2.3656,-2.3535,-2.4358,-2.4549,-2.4511,-2.4444,-2.4133,-2.3426,-2.1945,-2.1078,-2.0338,-1.9444,-1.8878,-1.8434,-1.8076,-1.781,-1.7469,-1.7052,-1.6617,-1.616,-1.5739,-1.5136,-1.4456,-1.3709,-1.316,-1.2401,-1.1378,-1.1125,-1.1019,-1.1034,-1.101,-1.1116,-1.1318,-1.0871,-1.0565,-1.0522,-0.994,-0.9569,-0.9263,-0.9008,-0.854,-0.4956,-0.4849,-0.4688,-0.4574,-0.4632,0.0,-0.4132,-0.4024,0.0,-0.3469,0.0,0.0,0.0,0.0,0.0,0.0,0.0,0.0,0.0,0.0,0.0,0.0,0.0,0.0,0.0,0.0,0.0,0.0,0.0,0.0,0.0,0.0,0.0,-0.7017,-0.7244,-0.7538,-0.787,-0.8299,-0.896,-0.9906,-1.071,-1.1577,-1.248,-1.2939,-1.342,-1.3962,-1.4466,-1.5017,-1.5591,-1.6095,-1.6582,-1.7044,-1.7474,-1.8371,-1.9486,-2.0357,-2.1311,-2.2307,-2.3256,-2.3909,-2.4385,-2.495,-2.5422,-2.5776,-2.5564,-2.5291,-2.4975,-2.469,-2.4284,-2.4062,-2.4572,-2.4828,-2.5005,-2.5259,-2.5411,-2.5488,-2.5402,-2.4697,-2.3972,-2.3656,-2.2166,-2.0856,-2.0522,-1.9638,-1.8843,-1.8512,-1.8173,-1.7788,-1.7327,-1.6977,-1.6554,-1.6024,-1.5492,-1.4724,-1.3615,-1.2953,-1.2602,-1.2574,-1.1831,-1.1271,-1.1113,-1.1306,-1.1432,-1.1318,-1.1124,-1.0871,-1.0522,-1.0154,-0.9836,-0.9562,-0.9159,-0.8745,-0.4849,-0.4743,-0.4688,-0.4519,-0.4519,0.0,0.0,-0.4024,-0.3913,0.0,0.0,0.0,0.0,0.0,0.0,0.0,0.0,0.0,0.0,0.0,0.0,0.0,0.0,0.0,0.0,0.0,0.0,0.0,0.0,0.0,0.0,0.0,0.0,-0.7263,-0.7453,-0.7704,-0.7946,-0.8398,-0.9224,-1.0336,-1.0695,-1.1434,-1.2529,-1.2987,-1.3515,-1.402,-1.4605,-1.5142,-1.5635,-1.6207,-1.668,-1.7238,-1.8193,-1.9169,-2.0161,-2.0955,-2.1888,-2.2864,-2.339,-2.3909,-2.4385,-2.4886,-2.5378,-2.5799,-2.5998,-2.5533,-2.4999,-2.5121,-2.4544,-2.3999,-2.4489,-2.4804,-2.5038,-2.5269,-2.5443,-2.5544,-2.5563,-2.5239,-2.4781,-2.4105,-2.3322,-2.2341,-2.1065,-2.0407,-1.978,-1.895,-1.8473,-1.8111,-1.7715,-1.7272,-1.6799,-1.6301,-1.5404,-1.4639,-1.4237,-1.3615,-1.3285,-1.3283,-1.2514,-1.2054,-1.2033,-1.2111,-1.1978,-1.1669,-1.1377,-1.1074,-1.0777,-1.036,-1.0051,-0.9732,-0.9316,-0.8956,-0.4743,-0.4688,-0.4632,0.0,0.0,0.0,-0.4076,-0.4024,-0.3913,0.0,0.0,0.0,0.0,0.0,0.0,0.0,0.0,0.0,0.0,0.0,0.0,0.0,0.0,0.0,0.0,0.0,0.0,0.0,0.0,0.0,0.0,0.0,0.0,0.0,-0.7652,-0.7912,-0.8111,-0.8708,-0.9546,-1.0606,-1.0949,-1.164,-1.2666,-1.3132,-1.361,-1.415,-1.4731,-1.5232,-1.5724,-1.625,-1.6863,-1.7472,-1.8645,-1.9628,-2.0514,-2.131,-2.2235,-2.3172,-2.3465,-2.3909,-2.4385,-2.4846,-2.5339,-2.5726,-2.5961,-2.5505,-2.4931,-2.5085,-2.4462,-2.3858,-2.4265,-2.4601,-2.4904,-2.5165,-2.5337,-2.5469,-2.5553,-2.5544,-2.534,-2.4665,-2.4182,-2.3465,-2.2114,-2.1497,-2.08,-1.9643,-1.9128,-1.8653,-1.8005,-1.7486,-1.691,-1.6258,-1.5445,-1.4905,-1.4691,-1.4273,-1.399,-1.3912,-1.3224,-1.2771,-1.26,-1.2589,-1.2372,-1.1977,-1.1578,-1.1217,-1.0972,-1.0573,-1.0213,-0.9844,-0.9472,-0.9106,-0.4691,-0.4577,0.0,0.0,0.0,0.0,0.0,-0.4021,0.0,0.0,0.0,0.0,0.0,0.0,0.0,0.0,0.0,0.0,0.0,0.0,0.0,0.0,0.0,0.0,0.0,0.0,0.0,0.0,0.0,0.0,0.0,0.0,0.0,0.0,-0.7773,-0.8111,-0.8414,-0.9216,-0.9935,-1.0615,-1.15,-1.229,-1.3007,-1.343,-1.3905,-1.4419,-1.488,-1.5379,-1.5836,-1.6306,-1.6989,-1.7787,-1.8741,-1.9642,-2.0514,-2.131,-2.2235,-2.3172,-2.3465,-2.3909,-2.4385,-2.4846,-2.5285,-2.5628,-2.5379,-2.5099,-2.4798,-2.4401,-2.4017,-2.3765,-2.4034,-2.441,-2.4764,-2.5024,-2.5187,-2.5345,-2.5479,-2.5551,-2.5584,-2.5519,-2.4749,-2.4051,-2.3839,-2.2931,-2.183,-2.0678,-2.0174,-1.9449,-1.8173,-1.7589,-1.6885,-1.5839,-1.5787,-1.5541,-1.4879,-1.4751,-1.4682,-1.4592,-1.4003,-1.3307,-1.262,-1.2684,-1.2529,-1.2126,-1.1728,-1.1377,-1.1124,-1.0718,-1.0316,-0.9999,-0.9577,-0.9263,-0.4574,0.0,0.0,0.0,0.0,0.0,0.0,0.0,0.0,0.0,0.0,0.0,0.0,0.0,0.0,0.0,0.0,0.0,0.0,0.0,0.0,0.0,0.0,0.0,0.0,0.0,0.0,0.0,0.0,0.0,0.0,0.0,0.0,0.0,-0.7961,-0.8283,-0.8602,-0.9459,-1.0238,-1.0964,-1.1774,-1.2525,-1.3122,-1.3573,-1.4057,-1.4569,-1.4937,-1.5379,-1.5881,-1.665,-1.7295,-1.7827,-1.9208,-2.0018,-2.0556,-2.1853,-2.2624,-2.3127,-2.3451,-2.3882,-2.4343,-2.4751,-2.485,-2.4899,-2.5212,-2.4681,-2.4024,-2.4165,-2.3927,-2.3682,-2.3915,-2.4192,-2.4512,-2.4823,-2.5057,-2.5263,-2.5402,-2.552,-2.5599,-2.5576,-2.5312,-2.4832,-2.4079,-2.3519,-2.2797,-2.1652,-2.1098,-2.0417,-1.9269,-1.8643,-1.8003,-1.7257,-1.6812,-1.6453,-1.6163,-1.562,-1.5286,-1.5242,-1.4564,-1.3879,-1.332,-1.2996,-1.2627,-1.2234,-1.1828,-1.1477,-1.1124,-1.0769,-1.0411,-0.9999,-0.9673,-0.9413,-0.4411,0.0,0.0,0.0,0.0,0.0,0.0,0.0,0.0,0.0,0.0,0.0,0.0,0.0,0.0,0.0,0.0,0.0,0.0,0.0,0.0,0.0,0.0,0.0,0.0,0.0,0.0,0.0,0.0,0.0,0.0,0.0,0.0,0.0,-0.816,-0.8488,-0.8805,-0.9784,-1.0575,-1.1176,-1.2132,-1.2882,-1.3467,-1.3716,-1.415,-1.4662,-1.5244,-1.5691,-1.6132,-1.682,-1.7337,-1.7786,-1.9357,-2.0085,-2.0412,-2.2008,-2.2783,-2.3083,-2.3407,-2.3701,-2.3943,-2.4327,-2.4292,-2.41,-2.4348,-2.4056,-2.3624,-2.372,-2.3667,-2.3611,-2.3813,-2.4057,-2.4338,-2.4682,-2.4949,-2.5163,-2.5327,-2.5459,-2.5564,-2.5585,-2.5554,-2.529,-2.4629,-2.4285,-2.3728,-2.2548,-2.1568,-2.0643,-1.9762,-1.9111,-1.8498,-1.7878,-1.7423,-1.7054,-1.67,-1.6184,-1.5752,-1.5534,-1.4834,-1.414,-1.3621,-1.3152,-1.2774,-1.2382,-1.1977,-1.1628,-1.1276,-1.0922,-1.0565,-1.0102,-0.9836,-0.9524,0.0,0.0,0.0,0.0,0.0,0.0,0.0,0.0,0.0,0.0,0.0,0.0,0.0,0.0,0.0,0.0,0.0,0.0,0.0,0.0,0.0,0.0,0.0,0.0,0.0,0.0,0.0,0.0,0.0,0.0,0.0,0.0,0.0,-0.8021,-0.8349,-0.87,-0.9067,-1.0169,-1.0964,0.0,-1.2471,-1.3286,-1.3821,-1.3962,-1.4291,-1.48,-1.5635,-1.6163,-1.6522,-1.6863,-1.7199,-1.7664,-1.9189,-1.9871,-2.0097,-2.182,-2.2565,-2.2804,-2.3243,-2.3334,-2.3288,-2.366,-2.3594,-2.3289,-2.315,-2.3279,-2.3453,-2.3187,-2.3289,-2.3544,-2.375,-2.3999,-2.4284,-2.4594,-2.4842,-2.505,-2.5245,-2.5391,-2.5517,-2.5586,-2.5556,-2.5473,-2.5337,-2.5094,-2.4511,-2.3333,-2.1824,-2.0597,-1.998,-1.939,-1.873,-1.8044,-1.7824,-1.7441,-1.6769,-1.6501,-1.6107,-1.5558,-1.4834,-1.4186,-1.3621,-1.3238,-1.2861,-1.2529,-1.2076,-1.1778,-1.1528,-1.1124,-1.0667,-1.0265,-0.9955,-0.9584,0.0,0.0,0.0,0.0,0.0,0.0,0.0,0.0,0.0,0.0,0.0,0.0,0.0,0.0,0.0,0.0,0.0,0.0,0.0,0.0,0.0,0.0,0.0,0.0,0.0,0.0,0.0,0.0,0.0,0.0,0.0,0.0,0.0,-0.8126,-0.848,-0.898,-0.9612,-1.0565,-1.1337,0.0,-1.2778,-1.3372,-1.3821,-1.4046,-1.4512,-1.521,-1.578,-1.6163,-1.6522,-1.6863,-1.7199,-1.7624,-1.867,-1.9182,-1.9419,-2.0642,-2.1254,-2.1451,-2.1839,-2.2194,-2.2578,-2.2864,-2.286,-2.2753,-2.3031,-2.2953,-2.2838,-2.3055,-2.3289,-2.3544,-2.375,-2.4016,-2.4266,-2.4478,-2.4731,-2.4981,-2.5184,-2.5371,-2.551,-2.5593,-2.5585,-2.5543,-2.5408,-2.5156,-2.4676,-2.3707,-2.2914,-2.2185,-2.1569,-2.0942,-2.0241,-1.9543,-1.8957,-1.8313,-1.7518,-1.6928,-1.6281,-1.5558,-1.4937,-1.4337,-1.3773,-1.3296,-1.2861,-1.2529,-1.2076,-1.1778,-1.1528,-1.1124,-1.0667,-1.0265,-1.0051,-0.9688,0.0,0.0,0.0,0.0,0.0,0.0,0.0,0.0,0.0,0.0,0.0,0.0,0.0,0.0,0.0,0.0,0.0,0.0,0.0,0.0,0.0,0.0,0.0,0.0,0.0,0.0,0.0,0.0,0.0,0.0,0.0,-0.7454,-0.7829,-0.8299,-0.8618,-0.9154,-0.9913,-1.0698,-1.1464,-1.2253,-1.2959,-1.361,-1.4197,-1.4512,-1.4971,-1.5492,-1.5925,-1.6275,-1.662,-1.6876,-1.7199,-1.7569,-1.8534,-1.8989,-1.9211,-2.0288,-2.0809,-2.1044,-2.148,-2.1665,-2.183,-2.2216,-2.2159,-2.2034,-2.2478,-2.2604,-2.2659,-2.302,-2.3289,-2.3544,-2.375,-2.3996,-2.4266,-2.4444,-2.4685,-2.4929,-2.5149,-2.5329,-2.5473,-2.5584,-2.5605,-2.5554,-2.5388,-2.5008,-2.4487,-2.3801,-2.3294,-2.2781,-2.2124,-2.1444,-2.0797,-2.007,-1.9303,-1.8525,-1.7747,-1.7005,-1.6405,-1.5946,-1.5371,-1.488,-1.456,-1.4123,-1.3481,-1.2588,-1.2175,-1.1877,-1.1628,-1.1302,-1.0978,-1.0724,-1.0562,-1.0307,0.0,0.0,0.0,0.0,0.0,0.0,0.0,0.0,0.0,0.0,0.0,0.0,0.0,0.0,0.0,0.0,0.0,0.0,0.0,0.0,0.0,0.0,0.0,0.0,0.0,0.0,0.0,0.0,0.0,0.0,-0.7209,-0.7552,-0.7919,-0.8373,-0.8749,-0.933,-1.0191,-1.0832,-1.1592,-1.25,-1.3189,-1.3905,-1.4627,-1.4926,-1.5334,-1.5715,-1.6069,-1.6374,-1.6718,-1.6918,-1.7199,-1.7569,-1.8412,-1.8824,-1.9086,-2.0004,-2.052,-2.075,-2.1218,-2.1205,-2.1121,-2.1597,-2.1601,-2.1493,-2.1953,-2.2354,-2.2685,-2.302,-2.3289,-2.3522,-2.375,-2.3976,-2.4228,-2.4409,-2.4623,-2.4861,-2.5141,-2.5302,-2.5441,-2.5577,-2.5585,-2.5507,-2.5282,-2.4782,-2.4265,-2.3798,-2.3382,-2.29,-2.2248,-2.1565,-2.0894,-2.0204,-1.9369,-1.8595,-1.7936,-1.7161,-1.6665,-1.6562,-1.598,-1.5587,-1.5433,-1.5039,-1.4224,-1.2957,-1.2538,-1.2186,-1.1873,-1.1623,-1.1453,-1.1299,-1.1145,-1.0929,0.0,0.0,0.0,0.0,0.0,0.0,0.0,0.0,0.0,0.0,0.0,0.0,0.0,0.0,0.0,0.0,0.0,0.0,0.0,0.0,0.0,0.0,0.0,0.0,0.0,0.0,0.0,0.0,0.0,0.0,-0.7335,-0.7587,-0.7919,-0.8373,-0.8781,-0.9525,-1.0597,-1.106,-1.1837,-1.2918,-1.36,-1.4161,-1.4627,-1.4926,-1.5334,-1.5715,-1.6069,-1.6374,-1.6718,-1.6918,-1.7199,-1.7516,-1.7963,-1.8232,-1.8444,-1.8882,-1.9233,-1.9589,-1.9849,-2.0152,-2.0497,-2.0905,-2.1247,-2.1568,-2.1982,-2.2364,-2.2738,-2.302,-2.3241,-2.3476,-2.3721,-2.3912,-2.4075,-2.4284,-2.4512,-2.4794,-2.513,-2.5302,-2.5441,-2.5577,-2.5505,-2.5337,-2.5088,-2.4733,-2.4353,-2.3939,-2.3535,-2.3049,-2.2449,-2.1761,-2.1055,-2.0277,-1.9515,-1.8921,-1.8602,-1.7861,-1.7393,-1.7279,-1.6645,-1.6093,-1.5609,-1.5091,-1.4506,-1.3912,-1.339,-1.296,-1.268,-1.2185,-1.1822,-1.1647,-1.1246,-1.0929,0.0,0.0,0.0,0.0,0.0,0.0,0.0,0.0,0.0,0.0,0.0,0.0,0.0,0.0,0.0,0.0,0.0,0.0,0.0,0.0,0.0,0.0,0.0,0.0,0.0,0.0,0.0,0.0,0.0,-0.6787,-0.7251,-0.7545,-0.7919,-0.8373,-0.8931,-0.9718,-1.0669,-1.1231,-1.2107,-1.3334,-1.3773,-1.4255,-1.473,-1.4983,-1.5334,-1.5804,-1.6144,-1.6491,-1.6846,-1.7099,-1.7391,-1.7666,-1.7975,-1.8214,-1.845,-1.8774,-1.9116,-1.9413,-1.9741,-2.0115,-2.0494,-2.0925,-2.1293,-2.1691,-2.2089,-2.2398,-2.2712,-2.297,-2.3193,-2.3407,-2.3678,-2.3852,-2.4056,-2.4247,-2.4495,-2.4764,-2.5038,-2.5255,-2.5434,-2.5561,-2.5485,-2.5332,-2.5099,-2.478,-2.4441,-2.4078,-2.3649,-2.3153,-2.2512,-2.2258,-2.1827,-2.1004,-2.058,-2.0088,-1.9486,-1.8729,-1.8202,-1.7982,-1.7381,-1.6852,-1.6504,-1.5972,-1.5356,-1.4853,-1.3893,-1.3214,-1.2776,-1.2612,-1.2429,-1.2135,-1.2003,-1.1734,0.0,0.0,0.0,0.0,0.0,0.0,0.0,0.0,0.0,0.0,0.0,0.0,0.0,0.0,0.0,0.0,0.0,0.0,0.0,0.0,0.0,0.0,0.0,0.0,0.0,0.0,0.0,0.0,0.0,-0.6696,-0.7125,-0.7454,-0.7915,-0.8417,-0.9054,-0.9839,-1.0777,-1.1612,-1.2549,-1.3563,-1.3868,-1.4255,-1.4776,-1.4983,-1.5334,-1.5836,-1.6231,-1.662,-1.696,-1.7267,-1.7528,-1.776,-1.8109,-1.8361,-1.8595,-1.8903,-1.9205,-1.9487,-1.9848,-2.0235,-2.0595,-2.1038,-2.1419,-2.1784,-2.2152,-2.2432,-2.2659,-2.2902,-2.3119,-2.3336,-2.3589,-2.3807,-2.3996,-2.4191,-2.4444,-2.4731,-2.5037,-2.5293,-2.5488,-2.5584,-2.5503,-2.5364,-2.5156,-2.4877,-2.4556,-2.4211,-2.3762,-2.3348,-2.2946,-2.2836,-2.2541,-2.1953,-2.1591,-2.1114,-2.0426,-1.961,-1.9025,-1.8757,-1.8076,-1.7565,-1.729,-1.6627,-1.6056,-1.5478,-1.4449,-1.3626,-1.3132,-1.3145,-1.2932,-1.2646,-1.2623,-1.2436,0.0,0.0,0.0,0.0,0.0,0.0,0.0,0.0,0.0,0.0,0.0,0.0,0.0,0.0,0.0,0.0,0.0,0.0,0.0,0.0,0.0,0.0,0.0,0.0,0.0,0.0,0.0,0.0,0.0,-0.6647,-0.6979,-0.7314,-0.7836,-0.8545,-0.9055,-0.9887,-1.1078,-1.2311,-1.3074,-1.342,-1.3821,-1.4208,-1.4627,-1.4926,-1.5334,-1.5836,-1.6231,-1.6607,-1.7002,-1.7267,-1.761,-1.7922,-1.8201,-1.845,-1.8711,-1.8988,-1.9302,-1.9611,-1.9899,-2.0235,-2.0595,-2.1038,-2.1419,-2.1754,-2.2106,-2.2388,-2.2632,-2.2868,-2.3045,-2.3265,-2.3471,-2.3674,-2.385,-2.4054,-2.4321,-2.4663,-2.5245,-2.5479,-2.5598,-2.5604,-2.5531,-2.5434,-2.5236,-2.5018,-2.4756,-2.4335,-2.4002,-2.3831,-2.399,-2.3403,-2.2961,-2.2923,-2.2171,-2.1591,-2.1338,-2.0446,-1.9798,-1.9723,-1.8809,-1.8038,-1.7523,-1.674,-1.6124,-1.5672,-1.5167,-1.461,-1.3948,-1.3657,-1.3304,-1.2956,-1.2736,-1.2436,0.0,0.0,0.0,0.0,0.0,0.0,0.0,0.0,0.0,0.0,0.0,0.0,0.0,0.0,0.0,0.0,0.0,0.0,0.0,0.0,0.0,0.0,0.0,0.0,0.0,0.0,0.0,0.0,0.0,0.0,-0.6768,-0.7423,-0.8027,-0.8583,-0.9372,-1.0445,-1.1749,-1.2444,-1.3007,-1.342,-1.3716,-1.415,-1.4627,-1.4926,-1.5334,-1.5836,-1.6262,-1.665,-1.7044,-1.7432,-1.7747,-1.8016,-1.8293,-1.862,-1.8917,-1.9153,-1.945,-1.9777,-2.0096,-2.0407,-2.0761,-2.1071,-2.1419,-2.1754,-2.1986,-2.226,-2.2525,-2.2764,-2.2944,-2.3144,-2.336,-2.3607,-2.3831,-2.4248,-2.4561,-2.4861,-2.5254,-2.5473,-2.5609,-2.5605,-2.5556,-2.5463,-2.5348,-2.5124,-2.4877,-2.4598,-2.4672,-2.4628,-2.4272,-2.4528,-2.4526,-2.3977,-2.3538,-2.3062,-2.2438,-2.1541,-2.0682,-1.9978,-1.9186,-1.8398,-1.7645,-1.6976,-1.6353,-1.5826,-1.5478,-1.4951,-1.43,-1.4001,-1.364,-1.3338,-1.2981,-1.2683,-0.2184,0.0,0.0,0.0,0.0,0.0,0.0,0.0,0.0,0.0,0.0,0.0,0.0,0.0,0.0,0.0,0.0,0.0,0.0,0.0,0.0,0.0,0.0,0.0,0.0,0.0,0.0,0.0,0.0,0.0,-0.678,-0.7456,-0.8207,-0.9058,-0.9947,-1.0961,-1.2017,-1.2421,-1.2861,-1.3276,-1.3621,-1.4057,-1.4477,-1.488,-1.5289,-1.5748,-1.6188,-1.665,-1.7086,-1.7515,-1.7828,-1.8095,-1.8439,-1.875,-1.9031,-1.9228,-1.9523,-1.9833,-2.02,-2.0527,-2.0827,-2.1103,-2.1419,-2.1738,-2.1911,-2.2175,-2.246,-2.2685,-2.2893,-2.307,-2.3313,-2.3571,-2.3915,-2.4338,-2.467,-2.4947,-2.5182,-2.541,-2.557,-2.5595,-2.5558,-2.5516,-2.5453,-2.5253,-2.513,-2.5163,-2.5277,-2.5333,-2.5247,-2.5582,-2.5607,-2.4993,-2.4555,-2.4002,-2.3098,-2.2203,-2.1251,-2.0245,-1.9448,-1.8667,-1.7854,-1.7145,-1.6524,-1.5989,-1.5584,-1.5177,-1.4656,-1.43,-1.3941,-1.3502,-1.3216,-1.2858,0.0,0.0,0.0,0.0,0.0,0.0,0.0,0.0,0.0,0.0,0.0,0.0,0.0,0.0,0.0,0.0,0.0,0.0,0.0,0.0,0.0,0.0,0.0,0.0,0.0,0.0,0.0,0.0,0.0,-0.6264,-0.6961,-0.7457,-0.8424,-0.993,-1.0731,-1.1368,-1.1877,-1.2274,-1.2666,-1.3007,-1.3536,-1.3952,-1.4222,-1.4674,-1.5142,-1.5513,-1.6013,-1.6577,-1.7199,-1.7556,-1.7882,-1.8242,-1.8556,-1.8827,-1.9031,-1.9317,-1.9596,-1.9833,-2.02,-2.0527,-2.0827,-2.1103,-2.1419,-2.1708,-2.1869,-2.2118,-2.2432,-2.2632,-2.2825,-2.3045,-2.3265,-2.366,-2.4057,-2.4247,-2.4604,-2.4934,-2.5077,-2.5309,-2.5523,-2.5587,-2.5605,-2.5581,-2.5507,-2.5388,-2.5486,-2.5996,-2.578,-2.5904,-2.6945,-2.6528,-2.6099,-2.5919,-2.5205,-2.4292,-2.3304,-2.2374,-2.1444,-2.066,-1.9592,-1.8762,-1.8147,-1.729,-1.6581,-1.6114,-1.5642,-1.5303,-1.5039,-1.4656,-1.4172,-1.3511,-1.339,-1.285,-0.1514,0.0,0.0,0.0,0.0,0.0,0.0,0.0,0.0,0.0,0.0,0.0,0.0,0.0,0.0,0.0,0.0,0.0,0.0,0.0,0.0,0.0,0.0,0.0,0.0,0.0,0.0,0.0,-0.5619,-0.6101,-0.6521,-0.7788,-0.8982,-0.9949,-1.0618,-1.1217,-1.1769,-1.2175,-1.2529,-1.292,-1.3334,-1.3716,-1.4057,-1.4558,-1.5017,-1.5513,-1.6013,-1.6491,-1.7002,-1.7406,-1.776,-1.8082,-1.8542,-1.8865,-1.9116,-1.9428,-1.9705,-1.999,-2.027,-2.0525,-2.0777,-2.1038,-2.1294,-2.1509,-2.1751,-2.2077,-2.2394,-2.2632,-2.2825,-2.3095,-2.3424,-2.3765,-2.4057,-2.4247,-2.4575,-2.487,-2.5061,-2.5226,-2.5391,-2.5565,-2.5593,-2.5584,-2.5576,-2.5468,-2.5371,-2.5371,-2.6069,-2.6543,-2.6459,-2.6899,-2.6978,-2.6386,-2.5561,-2.4688,-2.3779,-2.286,-2.1908,-2.0944,-2.0042,-1.9174,-1.8267,-1.7744,-1.7145,-1.6457,-1.6114,-1.5662,-1.5156,-1.4715,-1.4291,-1.3821,-1.3338,-1.2858,0.0,0.0,0.0,0.0,0.0,0.0,-0.1681,-0.1647,0.0,0.0,0.0,0.0,0.0,0.0,0.0,0.0,0.0,0.0,0.0,0.0,0.0,0.0,0.0,0.0,0.0,0.0,0.0,-0.4893,-0.5366,-0.6016,-0.6852,-0.821,-0.9285,-0.9991,-1.0514,-1.1074,-1.1619,-1.1977,-1.2239,-1.2512,-1.2909,-1.3191,-1.339,-1.3828,-1.427,-1.4736,-1.5163,-1.5583,-1.6008,-1.666,-1.733,-1.8042,-1.8503,-1.8851,-1.9139,-1.9413,-1.972,-2.0041,-2.027,-2.0525,-2.076,-2.1006,-2.1247,-2.1448,-2.1721,-2.202,-2.2366,-2.2605,-2.2919,-2.3193,-2.3517,-2.3786,-2.4018,-2.4211,-2.451,-2.4798,-2.4981,-2.5171,-2.5348,-2.5529,-2.5584,-2.5602,-2.56,-2.5547,-2.5538,-2.5669,-2.6479,-2.7009,-2.6841,-2.7378,-2.7435,-2.6623,-2.5819,-2.4926,-2.3964,-2.3039,-2.2081,-2.1126,-2.0295,-1.9384,-1.856,-1.7975,-1.7368,-1.6694,-1.6285,-1.5778,-1.5098,-1.4843,-1.4419,-1.389,-1.3285,-1.2867,0.0,0.0,0.0,0.0,0.0,0.0,-0.1234,-0.1173,-0.1166,0.0,0.0,0.0,0.0,0.0,0.0,0.0,0.0,0.0,0.0,0.0,0.0,0.0,0.0,0.0,0.0,-0.4236,-0.4543,-0.4757,-0.513,-0.599,-0.7443,-0.8454,-0.9261,-0.9783,-1.0292,-1.0797,-1.1297,-1.1594,-1.1813,-1.1918,-1.2322,-1.2515,-1.2489,-1.2911,-1.3275,-1.3593,-1.3945,-1.4332,-1.4773,-1.572,-1.6797,-1.7946,-1.8436,-1.8851,-1.9101,-1.9339,-1.9669,-2.0005,-2.0235,-2.0475,-2.0726,-2.1006,-2.123,-2.1448,-2.1738,-2.202,-2.2366,-2.2659,-2.302,-2.3336,-2.3539,-2.3725,-2.3937,-2.4135,-2.4444,-2.4719,-2.4861,-2.5099,-2.5322,-2.5452,-2.5532,-2.5601,-2.5604,-2.5603,-2.5779,-2.6311,-2.6791,-2.7187,-2.7548,-2.7745,-2.7572,-2.674,-2.5983,-2.5105,-2.4048,-2.3084,-2.2175,-2.1286,-2.0346,-1.9552,-1.8851,-1.815,-1.7423,-1.6807,-1.6285,-1.5652,-1.497,-1.4911,-1.4488,-1.383,-1.3285,-1.2867,0.0,0.0,0.0,0.0,0.0,0.0,-0.0785,-0.076,-0.0784,0.0,0.0,0.0,0.0,0.0,0.0,0.0,0.0,0.0,0.0,0.0,0.0,0.0,0.0,0.0,0.0,-0.4144,-0.4403,-0.4622,-0.5346,-0.6113,-0.6936,-0.754,-0.8138,-0.8621,-0.9147,-0.9659,-1.0111,-1.0582,-1.0922,-1.1299,-1.1734,-1.2088,-1.235,-1.269,-1.3109,-1.3522,-1.3877,-1.4265,-1.4695,-1.568,-1.6507,-1.7204,-1.806,-1.8644,-1.9055,-1.9428,-1.9683,-1.9884,-2.02,-2.0392,-2.0595,-2.0844,-2.1103,-2.1371,-2.1691,-2.202,-2.2377,-2.2816,-2.3102,-2.3336,-2.3494,-2.3682,-2.3858,-2.4075,-2.4321,-2.4594,-2.4775,-2.4994,-2.5182,-2.5311,-2.5486,-2.5621,-2.5677,-2.5634,-2.56,-2.5615,-2.601,-2.645,-2.6859,-2.7037,-2.7088,-2.7009,-2.6265,-2.5351,-2.4389,-2.3448,-2.2498,-2.1589,-2.0623,-1.9759,-1.8987,-1.8356,-1.7689,-1.6955,-1.6046,-1.5362,-1.497,-1.4428,-1.413,-1.395,-1.3285,-1.2981,0.0,0.0,0.0,-0.0393,0.0,0.0,0.0,-0.0546,-0.053,0.0,0.0,0.0,0.0,0.0,0.0,0.0,0.0,0.0,0.0,0.0,0.0,0.0,0.0,0.0,0.0,-0.3968,-0.4228,-0.4574,-0.534,-0.6021,-0.652,-0.7168,-0.7678,-0.8153,-0.8616,-0.9128,-0.9628,-1.0047,-1.0365,-1.0606,-1.0984,-1.1301,-1.145,-1.1813,-1.225,-1.268,-1.295,-1.3293,-1.3716,-1.46,-1.5415,-1.6304,-1.7699,-1.8528,-1.8927,-1.9302,-1.9596,-1.9797,-2.008,-2.0304,-2.0494,-2.0795,-2.1071,-2.1371,-2.1708,-2.2118,-2.2569,-2.2919,-2.3119,-2.3289,-2.3471,-2.3594,-2.375,-2.3996,-2.4229,-2.4461,-2.4704,-2.4915,-2.5103,-2.5264,-2.5449,-2.5571,-2.5632,-2.5624,-2.5574,-2.5473,-2.5878,-2.619,-2.6153,-2.6709,-2.6961,-2.6601,-2.6202,-2.5577,-2.4608,-2.3636,-2.268,-2.1746,-2.0822,-1.9965,-1.9133,-1.8464,-1.7634,-1.6684,-1.5816,-1.5245,-1.497,-1.4309,-1.401,-1.401,-1.3415,-1.3111,0.0,0.0,0.0,0.0,0.0,-0.0224,0.0,0.0,0.0,0.0,0.0,0.0,0.0,0.0,0.0,0.0,0.0,0.0,0.0,0.0,0.0,0.0,0.0,0.0,0.0,-0.3751,-0.41,-0.453,-0.5172,-0.5682,-0.6084,-0.6736,-0.7323,-0.7736,-0.8197,-0.8701,-0.9207,-0.9575,-0.9821,-0.9942,-1.0307,-1.0535,-1.0621,-1.0992,-1.1367,-1.1748,-1.1957,-1.2258,-1.271,-1.3484,-1.4361,-1.5395,-1.7256,-1.8274,-1.8784,-1.9139,-1.945,-1.9726,-1.9975,-2.02,-2.0457,-2.0778,-2.1103,-2.1464,-2.1797,-2.226,-2.2738,-2.2944,-2.3095,-2.3241,-2.3383,-2.3499,-2.3638,-2.3873,-2.4095,-2.4339,-2.4578,-2.4818,-2.5012,-2.5233,-2.5393,-2.5525,-2.5589,-2.5602,-2.5576,-2.5502,-2.5832,-2.5969,-2.5695,-2.6332,-2.6637,-2.6125,-2.5999,-2.5562,-2.4728,-2.3822,-2.2875,-2.1888,-2.0957,-2.0067,-1.9291,-1.8398,-1.7412,-1.6296,-1.5768,-1.5313,-1.497,-1.4369,-1.407,-1.401,-1.3545,-1.318,0.0,0.0,0.0,0.0,0.0336,0.0,0.0,0.0,0.0,0.0,0.0,0.0,0.0,0.0,0.0,0.0,0.0,0.0,0.0,0.0,0.0,0.0,0.0,0.0,0.0,0.0,-0.4012,-0.4316,-0.4688,-0.5057,-0.5412,-0.587,-0.6359,-0.6821,-0.7298,-0.7765,-0.8177,-0.8634,-0.9028,-0.939,-0.9839,-1.0254,-1.0621,-1.085,-1.1153,-1.156,-1.1748,-1.2077,-1.252,-1.3399,-1.4097,-1.4699,-1.6467,-1.7705,-1.8581,-1.8988,-1.9339,-1.9647,-1.9777,-2.0096,-2.0457,-2.0728,-2.123,-2.1797,-2.2152,-2.246,-2.2738,-2.2868,-2.3045,-2.3217,-2.3241,-2.336,-2.3544,-2.37,-2.3933,-2.4172,-2.4391,-2.4648,-2.4891,-2.5157,-2.5369,-2.5525,-2.5589,-2.5597,-2.5572,-2.5507,-2.5404,-2.5435,-2.5737,-2.5424,-2.5488,-2.6269,-2.5717,-2.5165,-2.4879,-2.4048,-2.3098,-2.203,-2.1104,-2.022,-1.942,-1.8061,-1.6965,-1.6296,-1.5894,-1.5439,-1.497,-1.4606,-1.43,-1.401,-1.3545,-1.318,0.0,0.0,0.0,0.0,0.0,0.0,0.0393,0.0,0.0391,0.0,0.0,0.0,0.0,0.0,0.0,0.0,0.0,0.0,0.0,0.0,0.0,0.0,0.0,0.0,0.0,0.0,0.0,0.0,-0.4364,-0.4718,-0.4975,-0.5453,-0.5884,-0.627,-0.6732,-0.7196,-0.7655,-0.8062,-0.8513,-0.8958,-0.9408,-0.9804,-1.0244,-1.0582,-1.0888,-1.1228,-1.1501,-1.1822,-1.2161,-1.2734,-1.3411,-1.4147,-1.5257,-1.6535,-1.7883,-1.8655,-1.9101,-1.9281,-1.9185,-1.9345,-1.9685,-2.0273,-2.0754,-2.1234,-2.2046,-2.246,-2.2659,-2.2816,-2.2944,-2.3028,-2.3052,-2.3168,-2.3336,-2.3526,-2.3728,-2.3939,-2.4284,-2.4559,-2.4818,-2.5094,-2.5293,-2.5471,-2.5571,-2.5593,-2.5593,-2.5565,-2.5352,-2.5187,-2.5167,-2.5097,-2.5249,-2.5665,-2.5504,-2.5292,-2.5073,-2.4297,-2.3363,-2.2342,-2.0832,-1.9656,-1.8827,-1.7733,-1.6909,-1.6296,-1.5904,-1.5439,-1.497,-1.4656,-1.4359,-1.401,-1.3718,-1.3354,0.0729,0.0,0.0,0.0,0.0,0.0,0.0,0.0,0.0,0.0,0.0,0.0,0.0,0.0,0.0,0.0,0.0,0.0,0.0,0.0,0.0,0.0,0.0,0.0,0.0,0.0,0.0,-0.3568,-0.4012,-0.4408,-0.467,-0.5101,-0.5534,-0.5847,-0.6307,-0.6774,-0.7251,-0.7655,-0.8103,-0.8643,-0.9047,-0.9448,-0.9892,-1.0273,-1.0649,-1.0943,-1.1266,-1.1612,-1.1909,-1.2258,-1.2842,-1.3642,-1.4346,-1.5448,-1.6785,-1.7842,-1.8381,-1.8557,-1.8426,-1.8582,-1.8977,-1.9636,-2.0183,-2.0747,-2.1653,-2.2235,-2.2605,-2.2738,-2.2842,-2.2919,-2.297,-2.302,-2.3126,-2.3365,-2.3513,-2.3753,-2.4115,-2.4426,-2.4704,-2.4987,-2.5214,-2.5422,-2.5551,-2.559,-2.5597,-2.5595,-2.5403,-2.5137,-2.4799,-2.487,-2.4972,-2.4989,-2.5158,-2.5196,-2.4992,-2.4378,-2.3463,-2.2221,-2.0584,-1.9291,-1.8441,-1.7678,-1.7022,-1.641,-1.5961,-1.5498,-1.5029,-1.4784,-1.4419,-1.401,-1.389,-1.3528,0.0,0.0,0.0,0.129,0.0,0.0,0.0,0.0,0.129,0.0,0.0,0.0,0.0,0.0,0.0,0.0,0.0,0.0,0.0,0.0,0.0,0.0,0.0,0.0,0.0,0.0,0.0,-0.317,-0.352,-0.3921,-0.4272,-0.4748,-0.5183,-0.5491,-0.5964,-0.6441,-0.6914,-0.7314,-0.7814,-0.8414,-0.8814,-0.9199,-0.9619,-0.9952,-1.0341,-1.0715,-1.1057,-1.1442,-1.1811,-1.2222,-1.2591,-1.3039,-1.4037,-1.4646,-1.5125,-1.6313,-1.6984,-1.7292,-1.7449,-1.797,-1.8576,-1.8917,-1.9686,-2.0574,-2.0933,-2.1746,-2.2542,-2.2659,-2.2816,-2.2893,-2.2902,-2.2952,-2.3045,-2.3193,-2.3365,-2.3616,-2.3935,-2.4211,-2.4508,-2.4828,-2.5111,-2.5343,-2.5471,-2.5559,-2.5602,-2.5595,-2.5478,-2.5265,-2.4936,-2.4554,-2.4372,-2.4516,-2.4649,-2.4652,-2.4434,-2.428,-2.336,-2.1369,-2.0346,-1.9436,-1.8614,-1.7909,-1.719,-1.657,-1.6134,-1.5682,-1.5215,-1.5029,-1.4616,-1.401,-1.389,-1.3597,0.0,0.0,0.1291,0.1291,0.0,0.0,0.0,0.0,0.0,0.0,0.0,0.0,0.0,0.0,0.0,0.0,0.0,0.0,0.0,0.0,0.0,0.0,0.0,0.0,0.0,0.0,0.0,-0.2726,-0.3126,-0.3524,-0.3829,-0.4176,-0.4618,-0.5014,-0.5399,-0.5825,-0.6301,-0.6816,-0.7321,-0.7821,-0.8365,-0.8814,-0.9208,-0.9588,-0.9942,-1.0302,-1.0687,-1.1057,-1.1442,-1.1847,-1.2246,-1.2697,-1.3361,-1.3852,-1.4405,-1.5944,-1.6705,-1.6924,-1.6902,-1.6864,-1.6974,-1.7798,-1.876,-1.9723,-2.0539,-2.1485,-2.2271,-2.2443,-2.2569,-2.2632,-2.2632,-2.2712,-2.2816,-2.2902,-2.3126,-2.3371,-2.3689,-2.3981,-2.4319,-2.4685,-2.4981,-2.5226,-2.5401,-2.5535,-2.5602,-2.5609,-2.5493,-2.5283,-2.4998,-2.4613,-2.4431,-2.4603,-2.4279,-2.4232,-2.4636,-2.3875,-2.2817,-2.1417,-2.0434,-1.9592,-1.8786,-1.803,-1.7368,-1.6751,-1.6296,-1.5778,-1.5215,-1.5098,-1.4675,-1.401,-1.395,-1.3718,0.185,0.1738,0.0,0.1625,0.1625,0.0,0.1625,0.0,0.0,0.0,0.0,0.0,0.0,0.0,0.0,0.0,0.0,0.0,0.0,0.0,0.0,0.0,0.0,0.0,0.0,0.0,-0.1967,-0.2239,-0.2682,-0.3037,0.0,0.0,-0.4008,-0.4403,-0.4792,-0.5221,-0.5653,-0.6221,-0.6781,-0.728,-0.7821,-0.8324,-0.8822,-0.9199,-0.9588,-0.9952,-1.038,-1.0764,-1.1169,-1.1542,-1.2029,-1.2508,-1.2918,-1.3378,-1.392,-1.5176,-1.5853,-1.6132,-1.6149,-1.604,-1.6029,-1.684,-1.7963,-1.9138,-1.9935,-2.1014,-2.2027,-2.2203,-2.2332,-2.2432,-2.2432,-2.2515,-2.2605,-2.2685,-2.2893,-2.3151,-2.3427,-2.3756,-2.4098,-2.451,-2.4836,-2.5102,-2.5335,-2.5477,-2.5566,-2.5601,-2.5507,-2.5343,-2.5072,-2.4728,-2.4467,-2.4386,-2.4056,-2.4015,-2.4427,-2.3376,-2.2376,-2.1609,-2.0646,-1.9747,-1.8905,-1.8139,-1.7479,-1.6853,-1.6343,-1.5884,-1.5391,-1.5088,-1.4734,-1.4181,-1.407,-1.3838]}]]